ftp/pub/palmer/observations_modified/2017/March/AR170318_AWS3.txt

Download

Sample DateTime	Unit Id	WS Avg 2min	WD Avg 2min	WGS 10min	WGD 10min	Air Temp	Rel Humidity	Dew Point	Pyranometer	Quantum	Air Pressure	Snow Level	Rainfall	PW Current	Visibility	CBase 1	CBase 2	CBase 3	Vert Vis
2017/03/18 00:00:01	AWS3	7.33	345	10.65	353	M	M	M	NA	NA	988.5	NA	NA		M	NA	NA	NA	NA
2017/03/18 00:01:01	AWS3	7.83	347	10.65	353	M	M	M	NA	NA	988.5	NA	NA		M	NA	NA	NA	NA
2017/03/18 00:02:01	AWS3	8.52	349	10.65	353	M	M	M	NA	NA	988.4	NA	NA		M	NA	NA	NA	NA
2017/03/18 00:03:01	AWS3	9.06	347	10.80	350	M	M	M	NA	NA	988.4	NA	NA		M	NA	NA	NA	NA
2017/03/18 00:04:01	AWS3	9.35	347	10.80	350	M	M	M	NA	NA	988.4	NA	NA		M	NA	NA	NA	NA
2017/03/18 00:05:01	AWS3	9.56	352	11.21	7	M	M	M	NA	NA	988.3	NA	NA		M	NA	NA	NA	NA
2017/03/18 00:06:01	AWS3	9.75	352	11.21	7	M	M	M	NA	NA	988.4	NA	NA		M	NA	NA	NA	NA
2017/03/18 00:07:01	AWS3	10.01	349	11.78	340	M	M	M	NA	NA	988.3	NA	NA		M	NA	NA	NA	NA
2017/03/18 00:08:01	AWS3	9.84	347	11.78	340	M	M	M	NA	NA	988.4	NA	NA		M	NA	NA	NA	NA
2017/03/18 00:09:01	AWS3	8.99	343	11.78	340	M	M	M	NA	NA	988.4	NA	NA		M	NA	NA	NA	NA
2017/03/18 00:10:01	AWS3	8.72	342	11.78	340	M	M	M	NA	NA	988.5	NA	NA		M	NA	NA	NA	NA
2017/03/18 00:11:01	AWS3	9.33	344	11.78	340	M	M	M	NA	NA	988.5	NA	NA		M	NA	NA	NA	NA
2017/03/18 00:12:01	AWS3	10.40	345	12.14	348	M	M	M	NA	NA	988.5	NA	NA		M	NA	NA	NA	NA
2017/03/18 00:13:01	AWS3	9.62	344	12.14	348	M	M	M	NA	NA	988.6	NA	NA		M	NA	NA	NA	NA
2017/03/18 00:14:01	AWS3	8.46	342	12.14	348	M	M	M	NA	NA	988.6	NA	NA		M	NA	NA	NA	NA
2017/03/18 00:15:01	AWS3	9.11	343	12.14	348	M	M	M	NA	NA	988.6	NA	NA		M	NA	NA	NA	NA
2017/03/18 00:16:01	AWS3	9.43	343	12.14	348	M	M	M	NA	NA	988.6	NA	NA		M	NA	NA	NA	NA
2017/03/18 00:17:01	AWS3	9.60	343	12.14	337	M	M	M	NA	NA	988.6	NA	NA		M	NA	NA	NA	NA
2017/03/18 00:18:01	AWS3	10.25	344	12.30	341	M	M	M	NA	NA	988.6	NA	NA		M	NA	NA	NA	NA
2017/03/18 00:19:01	AWS3	10.00	344	12.30	341	M	M	M	NA	NA	988.7	NA	NA		M	NA	NA	NA	NA
2017/03/18 00:20:01	AWS3	9.01	345	12.30	341	M	M	M	NA	NA	988.7	NA	NA		M	NA	NA	NA	NA
2017/03/18 00:21:01	AWS3	8.31	344	12.30	341	M	M	M	NA	NA	988.7	NA	NA		M	NA	NA	NA	NA
2017/03/18 00:22:01	AWS3	8.56	342	12.30	341	M	M	M	NA	NA	988.7	NA	NA		M	NA	NA	NA	NA
2017/03/18 00:23:01	AWS3	9.57	344	12.30	341	M	M	M	NA	NA	988.6	NA	NA		M	NA	NA	NA	NA
2017/03/18 00:24:01	AWS3	10.25	347	12.30	341	M	M	M	NA	NA	988.6	NA	NA		M	NA	NA	NA	NA
2017/03/18 00:25:01	AWS3	10.22	350	12.30	341	M	M	M	NA	NA	988.6	NA	NA		M	NA	NA	NA	NA
2017/03/18 00:26:01	AWS3	9.70	350	12.30	341	M	M	M	NA	NA	988.6	NA	NA		M	NA	NA	NA	NA
2017/03/18 00:27:01	AWS3	9.79	347	12.30	341	M	M	M	NA	NA	988.6	NA	NA		M	NA	NA	NA	NA
2017/03/18 00:28:01	AWS3	10.16	348	12.04	354	M	M	M	NA	NA	988.6	NA	NA		M	NA	NA	NA	NA
2017/03/18 00:29:01	AWS3	9.85	349	12.04	354	M	M	M	NA	NA	988.6	NA	NA		M	NA	NA	NA	NA
2017/03/18 00:30:01	AWS3	9.83	347	12.04	354	M	M	M	NA	NA	988.6	NA	NA		M	NA	NA	NA	NA
2017/03/18 00:31:01	AWS3	9.88	345	12.04	354	M	M	M	NA	NA	988.6	NA	NA		M	NA	NA	NA	NA
2017/03/18 00:32:01	AWS3	9.55	344	12.04	354	M	M	M	NA	NA	988.6	NA	NA		M	NA	NA	NA	NA
2017/03/18 00:33:01	AWS3	9.27	343	12.04	354	M	M	M	NA	NA	988.6	NA	NA		M	NA	NA	NA	NA
2017/03/18 00:34:01	AWS3	8.91	342	12.04	354	M	M	M	NA	NA	988.6	NA	NA		M	NA	NA	NA	NA
2017/03/18 00:35:01	AWS3	8.70	345	11.68	349	M	M	M	NA	NA	988.6	NA	NA		M	NA	NA	NA	NA
2017/03/18 00:36:01	AWS3	8.66	348	11.68	349	M	M	M	NA	NA	988.6	NA	NA		M	NA	NA	NA	NA
2017/03/18 00:37:01	AWS3	9.85	348	11.88	354	M	M	M	NA	NA	988.5	NA	NA		M	NA	NA	NA	NA
2017/03/18 00:38:01	AWS3	10.67	347	12.30	351	M	M	M	NA	NA	988.6	NA	NA		M	NA	NA	NA	NA
2017/03/18 00:39:01	AWS3	10.78	348	12.30	349	M	M	M	NA	NA	988.5	NA	NA		M	NA	NA	NA	NA
2017/03/18 00:40:01	AWS3	10.91	349	12.30	349	M	M	M	NA	NA	988.6	NA	NA		M	NA	NA	NA	NA
2017/03/18 00:41:01	AWS3	10.40	346	12.30	349	M	M	M	NA	NA	988.6	NA	NA		M	NA	NA	NA	NA
2017/03/18 00:42:01	AWS3	10.34	345	12.35	355	M	M	M	NA	NA	988.6	NA	NA		M	NA	NA	NA	NA
2017/03/18 00:43:01	AWS3	10.31	348	12.35	355	M	M	M	NA	NA	988.7	NA	NA		M	NA	NA	NA	NA
2017/03/18 00:44:01	AWS3	10.35	349	12.35	355	M	M	M	NA	NA	988.6	NA	NA		M	NA	NA	NA	NA
2017/03/18 00:45:01	AWS3	10.69	348	12.35	355	M	M	M	NA	NA	988.6	NA	NA		M	NA	NA	NA	NA
2017/03/18 00:46:01	AWS3	10.72	348	12.55	342	M	M	M	NA	NA	988.6	NA	NA		M	NA	NA	NA	NA
2017/03/18 00:47:01	AWS3	9.85	350	12.55	342	M	M	M	NA	NA	988.7	NA	NA		M	NA	NA	NA	NA
2017/03/18 00:48:01	AWS3	9.65	352	12.55	342	M	M	M	NA	NA	988.6	NA	NA		M	NA	NA	NA	NA
2017/03/18 00:49:01	AWS3	10.09	350	12.55	342	M	M	M	NA	NA	988.7	NA	NA		M	NA	NA	NA	NA
2017/03/18 00:50:01	AWS3	10.22	346	12.76	349	M	M	M	NA	NA	988.7	NA	NA		M	NA	NA	NA	NA
2017/03/18 00:51:01	AWS3	9.95	345	12.76	349	M	M	M	NA	NA	988.7	NA	NA		M	NA	NA	NA	NA
2017/03/18 00:52:01	AWS3	9.31	346	12.76	349	M	M	M	NA	NA	988.7	NA	NA		M	NA	NA	NA	NA
2017/03/18 00:53:01	AWS3	9.23	346	12.76	349	M	M	M	NA	NA	988.7	NA	NA		M	NA	NA	NA	NA
2017/03/18 00:54:01	AWS3	9.52	344	12.76	349	M	M	M	NA	NA	988.7	NA	NA		M	NA	NA	NA	NA
2017/03/18 00:55:01	AWS3	8.93	347	12.76	349	M	M	M	NA	NA	988.8	NA	NA		M	NA	NA	NA	NA
2017/03/18 00:56:01	AWS3	8.86	351	12.76	349	M	M	M	NA	NA	988.7	NA	NA		M	NA	NA	NA	NA
2017/03/18 00:57:01	AWS3	8.91	351	12.76	349	M	M	M	NA	NA	988.8	NA	NA		M	NA	NA	NA	NA
2017/03/18 00:58:00	AWS3	9.00	347	12.76	349	M	M	M	NA	NA	988.7	NA	NA		M	NA	NA	NA	NA
2017/03/18 00:59:00	AWS3	9.91	347	12.76	349	M	M	M	NA	NA	988.7	NA	NA		M	NA	NA	NA	NA
2017/03/18 01:00:01	AWS3	10.15	350	11.88	353	M	M	M	NA	NA	988.7	NA	NA		M	NA	NA	NA	NA
2017/03/18 01:01:00	AWS3	9.09	349	11.88	353	M	M	M	NA	NA	988.7	NA	NA		M	NA	NA	NA	NA
2017/03/18 01:02:00	AWS3	8.51	350	11.88	353	M	M	M	NA	NA	988.7	NA	NA		M	NA	NA	NA	NA
2017/03/18 01:03:00	AWS3	10.05	354	12.91	4	M	M	M	NA	NA	988.6	NA	NA		M	NA	NA	NA	NA
2017/03/18 01:04:00	AWS3	10.55	353	12.91	4	M	M	M	NA	NA	988.6	NA	NA		M	NA	NA	NA	NA
2017/03/18 01:05:00	AWS3	10.54	351	12.91	4	M	M	M	NA	NA	988.5	NA	NA		M	NA	NA	NA	NA
2017/03/18 01:06:00	AWS3	10.32	349	12.91	4	M	M	M	NA	NA	988.6	NA	NA		M	NA	NA	NA	NA
2017/03/18 01:07:00	AWS3	10.04	350	12.91	4	M	M	M	NA	NA	988.5	NA	NA		M	NA	NA	NA	NA
2017/03/18 01:08:00	AWS3	10.69	353	12.91	4	M	M	M	NA	NA	988.5	NA	NA		M	NA	NA	NA	NA
2017/03/18 01:09:00	AWS3	10.34	354	12.91	4	M	M	M	NA	NA	988.5	NA	NA		M	NA	NA	NA	NA
2017/03/18 01:10:00	AWS3	9.94	353	12.91	4	M	M	M	NA	NA	988.5	NA	NA		M	NA	NA	NA	NA
2017/03/18 01:11:00	AWS3	10.03	354	12.91	4	M	M	M	NA	NA	988.6	NA	NA		M	NA	NA	NA	NA
2017/03/18 01:12:00	AWS3	10.10	356	12.91	4	M	M	M	NA	NA	988.5	NA	NA		M	NA	NA	NA	NA
2017/03/18 01:13:00	AWS3	10.28	355	12.24	354	M	M	M	NA	NA	988.5	NA	NA		M	NA	NA	NA	NA
2017/03/18 01:14:00	AWS3	9.91	356	12.24	354	M	M	M	NA	NA	988.6	NA	NA		M	NA	NA	NA	NA
2017/03/18 01:15:00	AWS3	9.46	356	12.24	354	M	M	M	NA	NA	988.6	NA	NA		M	NA	NA	NA	NA
2017/03/18 01:16:00	AWS3	9.17	353	12.24	354	M	M	M	NA	NA	988.6	NA	NA		M	NA	NA	NA	NA
2017/03/18 01:17:00	AWS3	9.48	355	12.14	360	M	M	M	NA	NA	988.6	NA	NA		M	NA	NA	NA	NA
2017/03/18 01:18:00	AWS3	10.31	354	11.73	354	M	M	M	NA	NA	988.6	NA	NA		M	NA	NA	NA	NA
2017/03/18 01:19:00	AWS3	10.03	351	11.73	354	M	M	M	NA	NA	988.6	NA	NA		M	NA	NA	NA	NA
2017/03/18 01:20:00	AWS3	9.53	348	11.73	354	M	M	M	NA	NA	988.6	NA	NA		M	NA	NA	NA	NA
2017/03/18 01:21:00	AWS3	9.20	347	11.73	354	M	M	M	NA	NA	988.6	NA	NA		M	NA	NA	NA	NA
2017/03/18 01:22:00	AWS3	9.33	352	11.73	354	M	M	M	NA	NA	988.6	NA	NA		M	NA	NA	NA	NA
2017/03/18 01:23:00	AWS3	9.57	355	11.73	354	M	M	M	NA	NA	988.6	NA	NA		M	NA	NA	NA	NA
2017/03/18 01:24:00	AWS3	8.71	357	11.73	354	M	M	M	NA	NA	988.6	NA	NA		M	NA	NA	NA	NA
2017/03/18 01:25:00	AWS3	8.44	355	11.73	354	M	M	M	NA	NA	988.6	NA	NA		M	NA	NA	NA	NA
2017/03/18 01:26:00	AWS3	9.03	350	11.73	354	M	M	M	NA	NA	988.6	NA	NA		M	NA	NA	NA	NA
2017/03/18 01:27:00	AWS3	9.25	351	11.73	354	M	M	M	NA	NA	988.6	NA	NA		M	NA	NA	NA	NA
2017/03/18 01:28:00	AWS3	9.45	355	11.63	354	M	M	M	NA	NA	988.6	NA	NA		M	NA	NA	NA	NA
2017/03/18 01:29:00	AWS3	9.34	355	11.63	354	M	M	M	NA	NA	988.6	NA	NA		M	NA	NA	NA	NA
2017/03/18 01:30:00	AWS3	8.67	351	11.63	354	M	M	M	NA	NA	988.6	NA	NA		M	NA	NA	NA	NA
2017/03/18 01:31:00	AWS3	9.35	354	11.63	354	M	M	M	NA	NA	988.5	NA	NA		M	NA	NA	NA	NA
2017/03/18 01:32:00	AWS3	9.89	358	11.63	354	M	M	M	NA	NA	988.5	NA	NA		M	NA	NA	NA	NA
2017/03/18 01:33:00	AWS3	9.02	354	11.63	354	M	M	M	NA	NA	988.6	NA	NA		M	NA	NA	NA	NA
2017/03/18 01:34:00	AWS3	8.80	352	11.63	354	M	M	M	NA	NA	988.6	NA	NA		M	NA	NA	NA	NA
2017/03/18 01:35:00	AWS3	8.31	356	11.42	10	M	M	M	NA	NA	988.6	NA	NA		M	NA	NA	NA	NA
2017/03/18 01:36:00	AWS3	7.73	355	11.42	10	M	M	M	NA	NA	988.6	NA	NA		M	NA	NA	NA	NA
2017/03/18 01:37:00	AWS3	8.30	354	11.42	10	M	M	M	NA	NA	988.5	NA	NA		M	NA	NA	NA	NA
2017/03/18 01:38:00	AWS3	8.73	356	11.42	10	M	M	M	NA	NA	988.5	NA	NA		M	NA	NA	NA	NA
2017/03/18 01:39:00	AWS3	8.88	359	11.42	10	M	M	M	NA	NA	988.5	NA	NA		M	NA	NA	NA	NA
2017/03/18 01:40:00	AWS3	8.68	358	11.42	10	M	M	M	NA	NA	988.5	NA	NA		M	NA	NA	NA	NA
2017/03/18 01:41:00	AWS3	8.14	355	10.44	355	M	M	M	NA	NA	988.5	NA	NA		M	NA	NA	NA	NA
2017/03/18 01:42:00	AWS3	8.05	360	10.44	355	M	M	M	NA	NA	988.5	NA	NA		M	NA	NA	NA	NA
2017/03/18 01:43:00	AWS3	7.99	4	10.44	355	M	M	M	NA	NA	988.5	NA	NA		M	NA	NA	NA	NA
2017/03/18 01:44:00	AWS3	7.98	3	9.77	354	M	M	M	NA	NA	988.5	NA	NA		M	NA	NA	NA	NA
2017/03/18 01:45:00	AWS3	7.70	4	9.77	354	M	M	M	NA	NA	988.5	NA	NA		M	NA	NA	NA	NA
2017/03/18 01:46:00	AWS3	7.49	5	9.77	354	M	M	M	NA	NA	988.5	NA	NA		M	NA	NA	NA	NA
2017/03/18 01:47:00	AWS3	7.64	6	9.77	354	M	M	M	NA	NA	988.5	NA	NA		M	NA	NA	NA	NA
2017/03/18 01:48:00	AWS3	8.01	5	9.77	354	M	M	M	NA	NA	988.5	NA	NA		M	NA	NA	NA	NA
2017/03/18 01:49:00	AWS3	7.86	4	9.57	1	M	M	M	NA	NA	988.5	NA	NA		M	NA	NA	NA	NA
2017/03/18 01:50:00	AWS3	7.07	6	9.57	1	M	M	M	NA	NA	988.5	NA	NA		M	NA	NA	NA	NA
2017/03/18 01:51:00	AWS3	6.89	6	9.57	1	M	M	M	NA	NA	988.5	NA	NA		M	NA	NA	NA	NA
2017/03/18 01:52:00	AWS3	6.90	8	9.57	1	M	M	M	NA	NA	988.4	NA	NA		M	NA	NA	NA	NA
2017/03/18 01:53:00	AWS3	6.76	7	9.31	352	M	M	M	NA	NA	988.4	NA	NA		M	NA	NA	NA	NA
2017/03/18 01:54:00	AWS3	6.83	7	9.31	352	M	M	M	NA	NA	988.4	NA	NA		M	NA	NA	NA	NA
2017/03/18 01:55:00	AWS3	6.56	5	9.31	352	M	M	M	NA	NA	988.4	NA	NA		M	NA	NA	NA	NA
2017/03/18 01:56:00	AWS3	6.25	4	8.85	360	M	M	M	NA	NA	988.3	NA	NA		M	NA	NA	NA	NA
2017/03/18 01:57:00	AWS3	6.67	6	8.85	360	M	M	M	NA	NA	988.3	NA	NA		M	NA	NA	NA	NA
2017/03/18 01:58:00	AWS3	7.35	1	8.85	352	M	M	M	NA	NA	988.2	NA	NA		M	NA	NA	NA	NA
2017/03/18 01:59:00	AWS3	7.27	1	8.85	352	M	M	M	NA	NA	988.2	NA	NA		M	NA	NA	NA	NA
2017/03/18 02:00:00	AWS3	7.46	7	9.16	14	M	M	M	NA	NA	988.2	NA	NA		M	NA	NA	NA	NA
2017/03/18 02:01:00	AWS3	8.31	7	9.83	352	M	M	M	NA	NA	988.2	NA	NA		M	NA	NA	NA	NA
2017/03/18 02:02:00	AWS3	9.32	7	10.75	20	M	M	M	NA	NA	988.1	NA	NA		M	NA	NA	NA	NA
2017/03/18 02:03:00	AWS3	9.99	9	10.91	7	M	M	M	NA	NA	988.1	NA	NA		M	NA	NA	NA	NA
2017/03/18 02:04:00	AWS3	9.70	8	10.91	7	M	M	M	NA	NA	988.1	NA	NA		M	NA	NA	NA	NA
2017/03/18 02:05:00	AWS3	9.79	9	10.91	10	M	M	M	NA	NA	988.1	NA	NA		M	NA	NA	NA	NA
2017/03/18 02:06:00	AWS3	9.79	10	10.91	10	M	M	M	NA	NA	988.1	NA	NA		M	NA	NA	NA	NA
2017/03/18 02:07:00	AWS3	9.66	8	11.27	11	M	M	M	NA	NA	988.1	NA	NA		M	NA	NA	NA	NA
2017/03/18 02:08:00	AWS3	9.60	8	11.27	11	M	M	M	NA	NA	988.1	NA	NA		M	NA	NA	NA	NA
2017/03/18 02:09:00	AWS3	9.38	10	11.27	11	M	M	M	NA	NA	988.1	NA	NA		M	NA	NA	NA	NA
2017/03/18 02:10:00	AWS3	9.52	10	11.27	11	M	M	M	NA	NA	988.1	NA	NA		M	NA	NA	NA	NA
2017/03/18 02:11:00	AWS3	10.00	11	11.42	6	M	M	M	NA	NA	988.1	NA	NA		M	NA	NA	NA	NA
2017/03/18 02:12:00	AWS3	10.40	11	11.42	6	M	M	M	NA	NA	988.1	NA	NA		M	NA	NA	NA	NA
2017/03/18 02:13:00	AWS3	10.28	9	11.47	5	M	M	M	NA	NA	988.1	NA	NA		M	NA	NA	NA	NA
2017/03/18 02:14:00	AWS3	9.56	9	11.47	5	M	M	M	NA	NA	988.1	NA	NA		M	NA	NA	NA	NA
2017/03/18 02:15:00	AWS3	9.20	10	11.47	5	M	M	M	NA	NA	988.1	NA	NA		M	NA	NA	NA	NA
2017/03/18 02:16:00	AWS3	9.56	12	11.47	5	M	M	M	NA	NA	988.1	NA	NA		M	NA	NA	NA	NA
2017/03/18 02:17:00	AWS3	10.00	15	11.47	5	M	M	M	NA	NA	988.1	NA	NA		M	NA	NA	NA	NA
2017/03/18 02:18:00	AWS3	9.98	16	11.47	5	M	M	M	NA	NA	988.1	NA	NA		M	NA	NA	NA	NA
2017/03/18 02:19:00	AWS3	9.84	14	11.47	5	M	M	M	NA	NA	988.0	NA	NA		M	NA	NA	NA	NA
2017/03/18 02:20:00	AWS3	9.74	14	11.47	5	M	M	M	NA	NA	988.0	NA	NA		M	NA	NA	NA	NA
2017/03/18 02:21:00	AWS3	9.59	16	11.47	5	M	M	M	NA	NA	988.0	NA	NA		M	NA	NA	NA	NA
2017/03/18 02:22:00	AWS3	9.57	17	11.47	5	M	M	M	NA	NA	988.0	NA	NA		M	NA	NA	NA	NA
2017/03/18 02:23:00	AWS3	9.80	14	11.16	15	M	M	M	NA	NA	988.0	NA	NA		M	NA	NA	NA	NA
2017/03/18 02:24:00	AWS3	9.82	13	11.16	15	M	M	M	NA	NA	988.0	NA	NA		M	NA	NA	NA	NA
2017/03/18 02:25:00	AWS3	9.81	14	11.42	17	M	M	M	NA	NA	988.0	NA	NA		M	NA	NA	NA	NA
2017/03/18 02:26:00	AWS3	10.34	15	11.42	17	M	M	M	NA	NA	988.0	NA	NA		M	NA	NA	NA	NA
2017/03/18 02:27:00	AWS3	10.51	16	11.42	17	M	M	M	NA	NA	988.0	NA	NA		M	NA	NA	NA	NA
2017/03/18 02:28:00	AWS3	10.04	15	11.42	17	M	M	M	NA	NA	988.0	NA	NA		M	NA	NA	NA	NA
2017/03/18 02:29:00	AWS3	9.65	15	11.42	17	M	M	M	NA	NA	987.9	NA	NA		M	NA	NA	NA	NA
2017/03/18 02:30:00	AWS3	9.63	15	11.42	17	M	M	M	NA	NA	987.9	NA	NA		M	NA	NA	NA	NA
2017/03/18 02:31:00	AWS3	9.45	14	11.42	17	M	M	M	NA	NA	987.9	NA	NA		M	NA	NA	NA	NA
2017/03/18 02:32:00	AWS3	9.81	13	11.68	8	M	M	M	NA	NA	987.9	NA	NA		M	NA	NA	NA	NA
2017/03/18 02:33:00	AWS3	10.51	15	11.68	8	M	M	M	NA	NA	987.8	NA	NA		M	NA	NA	NA	NA
2017/03/18 02:34:00	AWS3	10.84	14	12.04	21	M	M	M	NA	NA	987.8	NA	NA		M	NA	NA	NA	NA
2017/03/18 02:35:00	AWS3	10.78	13	12.04	21	M	M	M	NA	NA	987.8	NA	NA		M	NA	NA	NA	NA
2017/03/18 02:36:00	AWS3	10.26	12	12.04	21	M	M	M	NA	NA	987.8	NA	NA		M	NA	NA	NA	NA
2017/03/18 02:37:00	AWS3	10.12	14	12.04	21	M	M	M	NA	NA	987.8	NA	NA		M	NA	NA	NA	NA
2017/03/18 02:38:00	AWS3	9.76	14	12.04	21	M	M	M	NA	NA	987.8	NA	NA		M	NA	NA	NA	NA
2017/03/18 02:39:00	AWS3	9.50	12	12.04	21	M	M	M	NA	NA	987.8	NA	NA		M	NA	NA	NA	NA
2017/03/18 02:40:00	AWS3	9.95	12	12.04	21	M	M	M	NA	NA	987.7	NA	NA		M	NA	NA	NA	NA
2017/03/18 02:41:00	AWS3	10.14	12	12.04	21	M	M	M	NA	NA	987.7	NA	NA		M	NA	NA	NA	NA
2017/03/18 02:42:00	AWS3	10.11	12	12.04	21	M	M	M	NA	NA	987.7	NA	NA		M	NA	NA	NA	NA
2017/03/18 02:43:00	AWS3	10.02	12	12.04	21	M	M	M	NA	NA	987.7	NA	NA		M	NA	NA	NA	NA
2017/03/18 02:44:00	AWS3	9.92	12	11.73	17	M	M	M	NA	NA	987.7	NA	NA		M	NA	NA	NA	NA
2017/03/18 02:45:00	AWS3	10.27	13	11.73	17	M	M	M	NA	NA	987.7	NA	NA		M	NA	NA	NA	NA
2017/03/18 02:46:00	AWS3	10.39	13	11.73	17	M	M	M	NA	NA	987.7	NA	NA		M	NA	NA	NA	NA
2017/03/18 02:47:00	AWS3	10.25	14	12.19	12	M	M	M	NA	NA	987.7	NA	NA		M	NA	NA	NA	NA
2017/03/18 02:48:00	AWS3	10.60	16	12.19	12	M	M	M	NA	NA	987.6	NA	NA		M	NA	NA	NA	NA
2017/03/18 02:49:00	AWS3	10.76	15	12.19	12	M	M	M	NA	NA	987.6	NA	NA		M	NA	NA	NA	NA
2017/03/18 02:50:00	AWS3	10.65	13	12.19	12	M	M	M	NA	NA	987.6	NA	NA		M	NA	NA	NA	NA
2017/03/18 02:51:00	AWS3	10.46	14	12.19	12	M	M	M	NA	NA	987.6	NA	NA		M	NA	NA	NA	NA
2017/03/18 02:52:00	AWS3	10.48	16	12.19	12	M	M	M	NA	NA	987.6	NA	NA		M	NA	NA	NA	NA
2017/03/18 02:53:00	AWS3	10.66	16	12.19	12	M	M	M	NA	NA	987.6	NA	NA		M	NA	NA	NA	NA
2017/03/18 02:54:00	AWS3	10.40	15	12.19	12	M	M	M	NA	NA	987.6	NA	NA		M	NA	NA	NA	NA
2017/03/18 02:55:00	AWS3	10.53	15	12.19	12	M	M	M	NA	NA	987.5	NA	NA		M	NA	NA	NA	NA
2017/03/18 02:56:00	AWS3	11.29	15	12.30	15	M	M	M	NA	NA	987.5	NA	NA		M	NA	NA	NA	NA
2017/03/18 02:57:00	AWS3	11.42	16	12.30	15	M	M	M	NA	NA	987.5	NA	NA		M	NA	NA	NA	NA
2017/03/18 02:58:00	AWS3	11.18	15	12.30	15	M	M	M	NA	NA	987.5	NA	NA		M	NA	NA	NA	NA
2017/03/18 02:59:00	AWS3	11.10	13	12.30	15	M	M	M	NA	NA	987.5	NA	NA		M	NA	NA	NA	NA
2017/03/18 03:00:00	AWS3	10.90	14	12.30	15	M	M	M	NA	NA	987.4	NA	NA		M	NA	NA	NA	NA
2017/03/18 03:01:00	AWS3	10.74	15	12.30	15	M	M	M	NA	NA	987.4	NA	NA		M	NA	NA	NA	NA
2017/03/18 03:02:00	AWS3	10.45	15	12.30	15	M	M	M	NA	NA	987.4	NA	NA		M	NA	NA	NA	NA
2017/03/18 03:03:00	AWS3	10.34	17	12.30	15	M	M	M	NA	NA	987.4	NA	NA		M	NA	NA	NA	NA
2017/03/18 03:04:00	AWS3	10.57	18	12.30	15	M	M	M	NA	NA	987.4	NA	NA		M	NA	NA	NA	NA
2017/03/18 03:05:00	AWS3	10.30	19	12.30	15	M	M	M	NA	NA	987.4	NA	NA		M	NA	NA	NA	NA
2017/03/18 03:06:00	AWS3	9.86	21	12.24	5	M	M	M	NA	NA	987.4	NA	NA		M	NA	NA	NA	NA
2017/03/18 03:07:00	AWS3	9.80	22	12.24	5	M	M	M	NA	NA	987.4	NA	NA		M	NA	NA	NA	NA
2017/03/18 03:08:00	AWS3	10.27	23	12.24	5	M	M	M	NA	NA	987.3	NA	NA		M	NA	NA	NA	NA
2017/03/18 03:09:00	AWS3	10.46	23	12.09	15	M	M	M	NA	NA	987.3	NA	NA		M	NA	NA	NA	NA
2017/03/18 03:10:00	AWS3	10.55	21	12.45	16	M	M	M	NA	NA	987.3	NA	NA		M	NA	NA	NA	NA
2017/03/18 03:11:00	AWS3	10.32	21	12.45	16	M	M	M	NA	NA	987.2	NA	NA		M	NA	NA	NA	NA
2017/03/18 03:12:00	AWS3	10.28	22	12.45	16	M	M	M	NA	NA	987.2	NA	NA		M	NA	NA	NA	NA
2017/03/18 03:13:00	AWS3	10.48	24	12.45	16	M	M	M	NA	NA	987.2	NA	NA		M	NA	NA	NA	NA
2017/03/18 03:14:00	AWS3	10.05	24	12.45	16	M	M	M	NA	NA	987.2	NA	NA		M	NA	NA	NA	NA
2017/03/18 03:15:00	AWS3	9.86	23	12.45	16	M	M	M	NA	NA	987.2	NA	NA		M	NA	NA	NA	NA
2017/03/18 03:16:00	AWS3	10.08	25	12.45	16	M	M	M	NA	NA	987.2	NA	NA		M	NA	NA	NA	NA
2017/03/18 03:17:00	AWS3	10.49	25	12.45	16	M	M	M	NA	NA	987.2	NA	NA		M	NA	NA	NA	NA
2017/03/18 03:18:00	AWS3	10.50	25	12.45	16	M	M	M	NA	NA	987.1	NA	NA		M	NA	NA	NA	NA
2017/03/18 03:19:00	AWS3	10.30	25	12.45	16	M	M	M	NA	NA	987.1	NA	NA		M	NA	NA	NA	NA
2017/03/18 03:20:00	AWS3	10.14	25	11.94	27	M	M	M	NA	NA	987.1	NA	NA		M	NA	NA	NA	NA
2017/03/18 03:21:00	AWS3	10.20	24	11.99	21	M	M	M	NA	NA	987.1	NA	NA		M	NA	NA	NA	NA
2017/03/18 03:22:00	AWS3	10.59	25	11.99	21	M	M	M	NA	NA	987.1	NA	NA		M	NA	NA	NA	NA
2017/03/18 03:23:00	AWS3	10.36	25	11.99	21	M	M	M	NA	NA	987.1	NA	NA		M	NA	NA	NA	NA
2017/03/18 03:24:00	AWS3	10.09	25	11.99	21	M	M	M	NA	NA	987.0	NA	NA		M	NA	NA	NA	NA
2017/03/18 03:25:00	AWS3	10.22	26	11.99	21	M	M	M	NA	NA	987.0	NA	NA		M	NA	NA	NA	NA
2017/03/18 03:26:00	AWS3	10.32	24	11.99	21	M	M	M	NA	NA	987.0	NA	NA		M	NA	NA	NA	NA
2017/03/18 03:27:00	AWS3	10.28	24	11.99	21	M	M	M	NA	NA	987.0	NA	NA		M	NA	NA	NA	NA
2017/03/18 03:28:00	AWS3	10.28	24	11.99	21	M	M	M	NA	NA	987.0	NA	NA		M	NA	NA	NA	NA
2017/03/18 03:29:00	AWS3	10.74	23	12.24	27	M	M	M	NA	NA	987.0	NA	NA		M	NA	NA	NA	NA
2017/03/18 03:30:00	AWS3	10.70	24	12.24	27	M	M	M	NA	NA	987.0	NA	NA		M	NA	NA	NA	NA
2017/03/18 03:31:00	AWS3	10.60	23	12.24	27	M	M	M	NA	NA	987.0	NA	NA		M	NA	NA	NA	NA
2017/03/18 03:32:00	AWS3	10.74	22	12.24	27	M	M	M	NA	NA	987.0	NA	NA		M	NA	NA	NA	NA
2017/03/18 03:33:00	AWS3	10.20	20	12.24	27	M	M	M	NA	NA	987.0	NA	NA		M	NA	NA	NA	NA
2017/03/18 03:34:00	AWS3	9.62	21	12.24	27	M	M	M	NA	NA	987.0	NA	NA		M	NA	NA	NA	NA
2017/03/18 03:35:00	AWS3	9.80	20	12.24	27	M	M	M	NA	NA	987.0	NA	NA		M	NA	NA	NA	NA
2017/03/18 03:36:00	AWS3	10.07	21	12.24	27	M	M	M	NA	NA	987.0	NA	NA		M	NA	NA	NA	NA
2017/03/18 03:37:00	AWS3	10.43	22	12.24	27	M	M	M	NA	NA	987.0	NA	NA		M	NA	NA	NA	NA
2017/03/18 03:38:00	AWS3	10.45	22	12.24	27	M	M	M	NA	NA	987.0	NA	NA		M	NA	NA	NA	NA
2017/03/18 03:39:00	AWS3	10.38	22	12.09	9	M	M	M	NA	NA	987.0	NA	NA		M	NA	NA	NA	NA
2017/03/18 03:40:00	AWS3	10.84	21	12.09	9	M	M	M	NA	NA	986.9	NA	NA		M	NA	NA	NA	NA
2017/03/18 03:41:00	AWS3	10.85	21	12.09	9	M	M	M	NA	NA	986.9	NA	NA		M	NA	NA	NA	NA
2017/03/18 03:42:00	AWS3	10.31	22	12.09	9	M	M	M	NA	NA	987.0	NA	NA		M	NA	NA	NA	NA
2017/03/18 03:43:00	AWS3	9.48	24	12.09	9	M	M	M	NA	NA	987.0	NA	NA		M	NA	NA	NA	NA
2017/03/18 03:44:00	AWS3	9.65	24	12.09	9	M	M	M	NA	NA	987.0	NA	NA		M	NA	NA	NA	NA
2017/03/18 03:45:00	AWS3	9.66	22	12.09	9	M	M	M	NA	NA	987.0	NA	NA		M	NA	NA	NA	NA
2017/03/18 03:46:00	AWS3	9.49	22	12.09	9	M	M	M	NA	NA	987.0	NA	NA		M	NA	NA	NA	NA
2017/03/18 03:47:00	AWS3	9.51	20	11.88	20	M	M	M	NA	NA	987.0	NA	NA		M	NA	NA	NA	NA
2017/03/18 03:48:00	AWS3	9.83	20	11.88	20	M	M	M	NA	NA	987.0	NA	NA		M	NA	NA	NA	NA
2017/03/18 03:49:00	AWS3	10.30	19	11.88	20	M	M	M	NA	NA	987.0	NA	NA		M	NA	NA	NA	NA
2017/03/18 03:50:01	AWS3	9.71	17	11.57	17	M	M	M	NA	NA	987.1	NA	NA		M	NA	NA	NA	NA
2017/03/18 03:51:01	AWS3	9.66	18	11.57	17	M	M	M	NA	NA	987.0	NA	NA		M	NA	NA	NA	NA
2017/03/18 03:52:01	AWS3	9.40	19	11.57	17	M	M	M	NA	NA	987.0	NA	NA		M	NA	NA	NA	NA
2017/03/18 03:53:00	AWS3	9.49	19	11.57	17	M	M	M	NA	NA	987.0	NA	NA		M	NA	NA	NA	NA
2017/03/18 03:54:01	AWS3	9.74	18	11.57	17	M	M	M	NA	NA	987.0	NA	NA		M	NA	NA	NA	NA
2017/03/18 03:55:00	AWS3	9.87	17	11.57	17	M	M	M	NA	NA	987.0	NA	NA		M	NA	NA	NA	NA
2017/03/18 03:56:00	AWS3	10.35	18	11.52	23	M	M	M	NA	NA	987.0	NA	NA		M	NA	NA	NA	NA
2017/03/18 03:57:00	AWS3	10.73	17	12.45	17	M	M	M	NA	NA	987.0	NA	NA		M	NA	NA	NA	NA
2017/03/18 03:58:01	AWS3	10.47	15	12.45	17	M	M	M	NA	NA	987.0	NA	NA		M	NA	NA	NA	NA
2017/03/18 03:59:00	AWS3	9.76	15	12.45	17	M	M	M	NA	NA	987.0	NA	NA		M	NA	NA	NA	NA
2017/03/18 04:00:00	AWS3	9.90	16	12.45	17	M	M	M	NA	NA	987.0	NA	NA		M	NA	NA	NA	NA
2017/03/18 04:01:01	AWS3	10.34	15	12.45	17	M	M	M	NA	NA	987.0	NA	NA		M	NA	NA	NA	NA
2017/03/18 04:02:00	AWS3	10.24	14	12.45	17	M	M	M	NA	NA	987.0	NA	NA		M	NA	NA	NA	NA
2017/03/18 04:03:00	AWS3	9.79	14	12.45	17	M	M	M	NA	NA	987.0	NA	NA		M	NA	NA	NA	NA
2017/03/18 04:04:00	AWS3	9.49	13	12.45	17	M	M	M	NA	NA	987.0	NA	NA		M	NA	NA	NA	NA
2017/03/18 04:05:00	AWS3	9.33	12	12.45	17	M	M	M	NA	NA	987.0	NA	NA		M	NA	NA	NA	NA
2017/03/18 04:06:01	AWS3	9.58	12	12.45	17	M	M	M	NA	NA	987.0	NA	NA		M	NA	NA	NA	NA
2017/03/18 04:07:00	AWS3	10.00	13	11.88	6	M	M	M	NA	NA	987.0	NA	NA		M	NA	NA	NA	NA
2017/03/18 04:08:00	AWS3	10.17	12	11.88	6	M	M	M	NA	NA	987.0	NA	NA		M	NA	NA	NA	NA
2017/03/18 04:09:00	AWS3	10.43	13	11.99	10	M	M	M	NA	NA	987.0	NA	NA		M	NA	NA	NA	NA
2017/03/18 04:10:01	AWS3	11.06	15	12.60	12	M	M	M	NA	NA	986.9	NA	NA		M	NA	NA	NA	NA
2017/03/18 04:11:01	AWS3	11.47	14	13.38	9	M	M	M	NA	NA	986.9	NA	NA		M	NA	NA	NA	NA
2017/03/18 04:12:00	AWS3	11.60	14	13.38	9	M	M	M	NA	NA	986.9	NA	NA		M	NA	NA	NA	NA
2017/03/18 04:13:00	AWS3	11.79	16	13.38	9	M	M	M	NA	NA	986.9	NA	NA		M	NA	NA	NA	NA
2017/03/18 04:14:01	AWS3	11.64	16	13.38	9	M	M	M	NA	NA	986.9	NA	NA		M	NA	NA	NA	NA
2017/03/18 04:15:01	AWS3	11.34	15	13.38	9	M	M	M	NA	NA	986.9	NA	NA		M	NA	NA	NA	NA
2017/03/18 04:16:01	AWS3	11.27	18	13.38	9	M	M	M	NA	NA	986.9	NA	NA		M	NA	NA	NA	NA
2017/03/18 04:17:01	AWS3	10.90	19	13.38	9	M	M	M	NA	NA	986.9	NA	NA		M	NA	NA	NA	NA
2017/03/18 04:18:01	AWS3	10.66	18	13.38	9	M	M	M	NA	NA	986.9	NA	NA		M	NA	NA	NA	NA
2017/03/18 04:19:01	AWS3	10.85	19	13.38	9	M	M	M	NA	NA	987.0	NA	NA		M	NA	NA	NA	NA
2017/03/18 04:20:01	AWS3	10.23	19	13.38	9	M	M	M	NA	NA	987.0	NA	NA		M	NA	NA	NA	NA
2017/03/18 04:21:01	AWS3	10.05	20	12.91	13	M	M	M	NA	NA	987.0	NA	NA		M	NA	NA	NA	NA
2017/03/18 04:22:01	AWS3	10.36	21	12.91	13	M	M	M	NA	NA	987.0	NA	NA		M	NA	NA	NA	NA
2017/03/18 04:23:01	AWS3	9.65	21	12.91	13	M	M	M	NA	NA	987.0	NA	NA		M	NA	NA	NA	NA
2017/03/18 04:24:01	AWS3	9.05	22	12.35	23	M	M	M	NA	NA	987.1	NA	NA		M	NA	NA	NA	NA
2017/03/18 04:25:01	AWS3	9.49	24	12.35	23	M	M	M	NA	NA	987.0	NA	NA		M	NA	NA	NA	NA
2017/03/18 04:26:01	AWS3	9.84	23	12.14	19	M	M	M	NA	NA	987.0	NA	NA		M	NA	NA	NA	NA
2017/03/18 04:27:01	AWS3	9.31	22	12.14	19	M	M	M	NA	NA	987.1	NA	NA		M	NA	NA	NA	NA
2017/03/18 04:28:01	AWS3	9.07	23	12.14	19	M	M	M	NA	NA	987.1	NA	NA		M	NA	NA	NA	NA
2017/03/18 04:29:01	AWS3	9.10	21	12.14	19	M	M	M	NA	NA	987.1	NA	NA		M	NA	NA	NA	NA
2017/03/18 04:30:01	AWS3	9.00	20	12.14	19	M	M	M	NA	NA	987.1	NA	NA		M	NA	NA	NA	NA
2017/03/18 04:31:01	AWS3	8.44	20	11.52	26	M	M	M	NA	NA	987.1	NA	NA		M	NA	NA	NA	NA
2017/03/18 04:32:01	AWS3	7.77	19	11.42	19	M	M	M	NA	NA	987.1	NA	NA		M	NA	NA	NA	NA
2017/03/18 04:33:01	AWS3	8.39	19	11.42	19	M	M	M	NA	NA	987.1	NA	NA		M	NA	NA	NA	NA
2017/03/18 04:34:01	AWS3	9.21	20	11.42	19	M	M	M	NA	NA	987.1	NA	NA		M	NA	NA	NA	NA
2017/03/18 04:35:01	AWS3	9.56	21	10.80	18	M	M	M	NA	NA	987.1	NA	NA		M	NA	NA	NA	NA
2017/03/18 04:36:01	AWS3	9.66	20	10.80	18	M	M	M	NA	NA	987.1	NA	NA		M	NA	NA	NA	NA
2017/03/18 04:37:01	AWS3	9.87	17	12.14	20	M	M	M	NA	NA	987.1	NA	NA		M	NA	NA	NA	NA
2017/03/18 04:38:01	AWS3	9.42	16	12.14	20	M	M	M	NA	NA	987.1	NA	NA		M	NA	NA	NA	NA
2017/03/18 04:39:01	AWS3	8.92	18	12.14	20	M	M	M	NA	NA	987.1	NA	NA		M	NA	NA	NA	NA
2017/03/18 04:40:01	AWS3	9.16	18	12.14	20	M	M	M	NA	NA	987.1	NA	NA		M	NA	NA	NA	NA
2017/03/18 04:41:01	AWS3	8.97	15	12.14	20	M	M	M	NA	NA	987.1	NA	NA		M	NA	NA	NA	NA
2017/03/18 04:42:01	AWS3	8.68	14	12.14	20	M	M	M	NA	NA	987.1	NA	NA		M	NA	NA	NA	NA
2017/03/18 04:43:01	AWS3	8.65	17	12.14	20	M	M	M	NA	NA	987.1	NA	NA		M	NA	NA	NA	NA
2017/03/18 04:44:01	AWS3	8.57	16	12.14	20	M	M	M	NA	NA	987.1	NA	NA		M	NA	NA	NA	NA
2017/03/18 04:45:01	AWS3	8.75	14	12.14	20	M	M	M	NA	NA	987.1	NA	NA		M	NA	NA	NA	NA
2017/03/18 04:46:01	AWS3	8.95	16	12.14	20	M	M	M	NA	NA	987.1	NA	NA		M	NA	NA	NA	NA
2017/03/18 04:47:01	AWS3	9.09	16	10.24	18	M	M	M	NA	NA	987.1	NA	NA		M	NA	NA	NA	NA
2017/03/18 04:48:01	AWS3	9.23	15	10.24	18	M	M	M	NA	NA	987.0	NA	NA		M	NA	NA	NA	NA
2017/03/18 04:49:01	AWS3	9.18	14	10.24	18	M	M	M	NA	NA	987.0	NA	NA		M	NA	NA	NA	NA
2017/03/18 04:50:01	AWS3	8.89	17	10.24	18	M	M	M	NA	NA	987.0	NA	NA		M	NA	NA	NA	NA
2017/03/18 04:51:01	AWS3	8.64	20	10.24	18	M	M	M	NA	NA	987.0	NA	NA		M	NA	NA	NA	NA
2017/03/18 04:52:01	AWS3	8.67	19	10.80	23	M	M	M	NA	NA	987.0	NA	NA		M	NA	NA	NA	NA
2017/03/18 04:53:01	AWS3	8.72	20	10.80	23	M	M	M	NA	NA	987.0	NA	NA		M	NA	NA	NA	NA
2017/03/18 04:54:01	AWS3	8.55	20	10.80	23	M	M	M	NA	NA	987.0	NA	NA		M	NA	NA	NA	NA
2017/03/18 04:55:01	AWS3	8.52	20	10.80	23	M	M	M	NA	NA	987.0	NA	NA		M	NA	NA	NA	NA
2017/03/18 04:56:01	AWS3	8.52	21	10.80	23	M	M	M	NA	NA	987.0	NA	NA		M	NA	NA	NA	NA
2017/03/18 04:57:01	AWS3	8.21	18	10.80	23	M	M	M	NA	NA	987.0	NA	NA		M	NA	NA	NA	NA
2017/03/18 04:58:01	AWS3	7.90	17	10.80	23	M	M	M	NA	NA	987.0	NA	NA		M	NA	NA	NA	NA
2017/03/18 04:59:01	AWS3	7.74	20	10.80	23	M	M	M	NA	NA	987.0	NA	NA		M	NA	NA	NA	NA
2017/03/18 05:00:01	AWS3	7.96	21	10.80	23	M	M	M	NA	NA	987.0	NA	NA		M	NA	NA	NA	NA
2017/03/18 05:01:01	AWS3	7.85	20	10.80	23	M	M	M	NA	NA	987.0	NA	NA		M	NA	NA	NA	NA
2017/03/18 05:02:01	AWS3	7.97	18	9.72	23	M	M	M	NA	NA	986.9	NA	NA		M	NA	NA	NA	NA
2017/03/18 05:03:01	AWS3	8.19	16	9.72	9	M	M	M	NA	NA	986.9	NA	NA		M	NA	NA	NA	NA
2017/03/18 05:04:01	AWS3	7.43	16	9.72	9	M	M	M	NA	NA	987.0	NA	NA		M	NA	NA	NA	NA
2017/03/18 05:05:01	AWS3	6.88	16	9.72	9	M	M	M	NA	NA	987.0	NA	NA		M	NA	NA	NA	NA
2017/03/18 05:06:01	AWS3	7.55	15	9.72	9	M	M	M	NA	NA	986.9	NA	NA		M	NA	NA	NA	NA
2017/03/18 05:07:01	AWS3	8.03	15	9.72	9	M	M	M	NA	NA	986.9	NA	NA		M	NA	NA	NA	NA
2017/03/18 05:08:01	AWS3	7.54	15	9.72	9	M	M	M	NA	NA	986.9	NA	NA		M	NA	NA	NA	NA
2017/03/18 05:09:01	AWS3	7.31	18	9.72	9	M	M	M	NA	NA	986.9	NA	NA		M	NA	NA	NA	NA
2017/03/18 05:10:01	AWS3	7.47	16	9.72	9	M	M	M	NA	NA	986.9	NA	NA		M	NA	NA	NA	NA
2017/03/18 05:11:01	AWS3	7.57	14	9.72	9	M	M	M	NA	NA	986.9	NA	NA		M	NA	NA	NA	NA
2017/03/18 05:12:01	AWS3	7.60	12	9.72	9	M	M	M	NA	NA	986.8	NA	NA		M	NA	NA	NA	NA
2017/03/18 05:13:01	AWS3	7.47	12	9.41	16	M	M	M	NA	NA	986.8	NA	NA		M	NA	NA	NA	NA
2017/03/18 05:14:01	AWS3	7.37	13	9.41	16	M	M	M	NA	NA	986.8	NA	NA		M	NA	NA	NA	NA
2017/03/18 05:15:01	AWS3	7.32	13	9.41	16	M	M	M	NA	NA	986.8	NA	NA		M	NA	NA	NA	NA
2017/03/18 05:16:01	AWS3	7.29	14	8.64	9	M	M	M	NA	NA	986.8	NA	NA		M	NA	NA	NA	NA
2017/03/18 05:17:01	AWS3	7.29	13	8.64	9	M	M	M	NA	NA	986.8	NA	NA		M	NA	NA	NA	NA
2017/03/18 05:18:01	AWS3	7.07	13	8.64	9	M	M	M	NA	NA	986.8	NA	NA		M	NA	NA	NA	NA
2017/03/18 05:19:01	AWS3	6.78	16	8.64	9	M	M	M	NA	NA	986.8	NA	NA		M	NA	NA	NA	NA
2017/03/18 05:20:01	AWS3	6.65	18	8.64	9	M	M	M	NA	NA	986.8	NA	NA		M	NA	NA	NA	NA
2017/03/18 05:21:01	AWS3	7.01	13	8.64	9	M	M	M	NA	NA	986.8	NA	NA		M	NA	NA	NA	NA
2017/03/18 05:22:01	AWS3	6.78	13	8.64	9	M	M	M	NA	NA	986.8	NA	NA		M	NA	NA	NA	NA
2017/03/18 05:23:01	AWS3	6.39	17	8.54	10	M	M	M	NA	NA	986.8	NA	NA		M	NA	NA	NA	NA
2017/03/18 05:24:01	AWS3	6.54	16	8.54	10	M	M	M	NA	NA	986.8	NA	NA		M	NA	NA	NA	NA
2017/03/18 05:25:01	AWS3	5.92	16	8.54	10	M	M	M	NA	NA	986.7	NA	NA		M	NA	NA	NA	NA
2017/03/18 05:26:01	AWS3	5.64	14	8.54	10	M	M	M	NA	NA	986.7	NA	NA		M	NA	NA	NA	NA
2017/03/18 05:27:01	AWS3	5.89	14	8.54	10	M	M	M	NA	NA	986.7	NA	NA		M	NA	NA	NA	NA
2017/03/18 05:28:01	AWS3	5.62	15	8.54	10	M	M	M	NA	NA	986.7	NA	NA		M	NA	NA	NA	NA
2017/03/18 05:29:01	AWS3	5.67	15	8.54	10	M	M	M	NA	NA	986.7	NA	NA		M	NA	NA	NA	NA
2017/03/18 05:30:01	AWS3	5.62	13	8.54	10	M	M	M	NA	NA	986.7	NA	NA		M	NA	NA	NA	NA
2017/03/18 05:31:01	AWS3	5.89	7	7.72	11	M	M	M	NA	NA	986.7	NA	NA		M	NA	NA	NA	NA
2017/03/18 05:32:01	AWS3	7.01	5	9.31	8	M	M	M	NA	NA	986.6	NA	NA		M	NA	NA	NA	NA
2017/03/18 05:33:01	AWS3	7.55	3	9.31	8	M	M	M	NA	NA	986.6	NA	NA		M	NA	NA	NA	NA
2017/03/18 05:34:01	AWS3	7.20	0	9.31	8	M	M	M	NA	NA	986.6	NA	NA		M	NA	NA	NA	NA
2017/03/18 05:35:01	AWS3	7.36	5	9.57	11	M	M	M	NA	NA	986.6	NA	NA		M	NA	NA	NA	NA
2017/03/18 05:36:01	AWS3	7.96	11	9.57	11	M	M	M	NA	NA	986.6	NA	NA		M	NA	NA	NA	NA
2017/03/18 05:37:01	AWS3	8.42	14	9.67	11	M	M	M	NA	NA	986.5	NA	NA		M	NA	NA	NA	NA
2017/03/18 05:38:01	AWS3	8.70	18	9.93	15	M	M	M	NA	NA	986.6	NA	NA		M	NA	NA	NA	NA
2017/03/18 05:39:01	AWS3	8.76	20	10.34	17	M	M	M	NA	NA	986.5	NA	NA		M	NA	NA	NA	NA
2017/03/18 05:40:01	AWS3	8.63	19	10.34	17	M	M	M	NA	NA	986.5	NA	NA		M	NA	NA	NA	NA
2017/03/18 05:41:01	AWS3	8.66	18	10.34	17	M	M	M	NA	NA	986.5	NA	NA		M	NA	NA	NA	NA
2017/03/18 05:42:01	AWS3	8.88	20	10.34	17	M	M	M	NA	NA	986.5	NA	NA		M	NA	NA	NA	NA
2017/03/18 05:43:01	AWS3	8.82	22	10.49	21	M	M	M	NA	NA	986.5	NA	NA		M	NA	NA	NA	NA
2017/03/18 05:44:01	AWS3	8.92	23	10.49	21	M	M	M	NA	NA	986.5	NA	NA		M	NA	NA	NA	NA
2017/03/18 05:45:01	AWS3	9.06	24	10.49	21	M	M	M	NA	NA	986.5	NA	NA		M	NA	NA	NA	NA
2017/03/18 05:46:01	AWS3	9.03	23	10.49	21	M	M	M	NA	NA	986.5	NA	NA		M	NA	NA	NA	NA
2017/03/18 05:47:01	AWS3	8.59	25	10.49	21	M	M	M	NA	NA	986.6	NA	NA		M	NA	NA	NA	NA
2017/03/18 05:48:01	AWS3	8.05	27	10.49	21	M	M	M	NA	NA	986.6	NA	NA		M	NA	NA	NA	NA
2017/03/18 05:49:01	AWS3	7.79	27	10.49	21	M	M	M	NA	NA	986.6	NA	NA		M	NA	NA	NA	NA
2017/03/18 05:50:01	AWS3	7.67	28	10.49	21	M	M	M	NA	NA	986.6	NA	NA		M	NA	NA	NA	NA
2017/03/18 05:51:01	AWS3	7.55	31	10.49	21	M	M	M	NA	NA	986.6	NA	NA		M	NA	NA	NA	NA
2017/03/18 05:52:01	AWS3	7.51	31	10.49	21	M	M	M	NA	NA	986.6	NA	NA		M	NA	NA	NA	NA
2017/03/18 05:53:01	AWS3	7.30	32	10.34	25	M	M	M	NA	NA	986.6	NA	NA		M	NA	NA	NA	NA
2017/03/18 05:54:01	AWS3	6.98	32	10.34	25	M	M	M	NA	NA	986.6	NA	NA		M	NA	NA	NA	NA
2017/03/18 05:55:01	AWS3	6.96	30	10.24	30	M	M	M	NA	NA	986.6	NA	NA		M	NA	NA	NA	NA
2017/03/18 05:56:01	AWS3	7.08	32	9.11	24	M	M	M	NA	NA	986.6	NA	NA		M	NA	NA	NA	NA
2017/03/18 05:57:01	AWS3	6.79	36	8.75	36	M	M	M	NA	NA	986.6	NA	NA		M	NA	NA	NA	NA
2017/03/18 05:58:01	AWS3	6.91	37	8.75	36	M	M	M	NA	NA	986.5	NA	NA		M	NA	NA	NA	NA
2017/03/18 05:59:01	AWS3	7.69	33	9.41	34	M	M	M	NA	NA	986.5	NA	NA		M	NA	NA	NA	NA
2017/03/18 06:00:01	AWS3	7.98	33	9.41	34	M	M	M	NA	NA	986.5	NA	NA		M	NA	NA	NA	NA
2017/03/18 06:01:01	AWS3	7.59	37	9.41	34	M	M	M	NA	NA	986.5	NA	NA		M	NA	NA	NA	NA
2017/03/18 06:02:01	AWS3	7.24	34	9.41	34	M	M	M	NA	NA	986.5	NA	NA		M	NA	NA	NA	NA
2017/03/18 06:03:01	AWS3	7.40	34	9.41	34	M	M	M	NA	NA	986.5	NA	NA		M	NA	NA	NA	NA
2017/03/18 06:04:01	AWS3	7.43	39	9.41	34	M	M	M	NA	NA	986.5	NA	NA		M	NA	NA	NA	NA
2017/03/18 06:05:01	AWS3	7.31	40	9.41	34	M	M	M	NA	NA	986.5	NA	NA		M	NA	NA	NA	NA
2017/03/18 06:06:01	AWS3	7.27	37	9.41	34	M	M	M	NA	NA	986.5	NA	NA		M	NA	NA	NA	NA
2017/03/18 06:07:00	AWS3	7.38	34	9.41	34	M	M	M	NA	NA	986.5	NA	NA		M	NA	NA	NA	NA
2017/03/18 06:08:00	AWS3	7.47	38	9.41	34	M	M	M	NA	NA	986.5	NA	NA		M	NA	NA	NA	NA
2017/03/18 06:09:00	AWS3	7.20	40	9.21	31	M	M	M	NA	NA	986.5	NA	NA		M	NA	NA	NA	NA
2017/03/18 06:10:00	AWS3	7.43	38	9.21	31	M	M	M	NA	NA	986.5	NA	NA		M	NA	NA	NA	NA
2017/03/18 06:11:00	AWS3	7.73	39	9.21	31	M	M	M	NA	NA	986.5	NA	NA		M	NA	NA	NA	NA
2017/03/18 06:12:00	AWS3	7.63	46	9.21	31	M	M	M	NA	NA	986.5	NA	NA		M	NA	NA	NA	NA
2017/03/18 06:13:00	AWS3	8.03	51	10.08	42	M	M	M	NA	NA	986.5	NA	NA		M	NA	NA	NA	NA
2017/03/18 06:14:00	AWS3	8.18	49	10.08	42	M	M	M	NA	NA	986.5	NA	NA		M	NA	NA	NA	NA
2017/03/18 06:15:00	AWS3	7.53	46	10.08	42	M	M	M	NA	NA	986.5	NA	NA		M	NA	NA	NA	NA
2017/03/18 06:16:00	AWS3	7.00	44	10.08	42	M	M	M	NA	NA	986.5	NA	NA		M	NA	NA	NA	NA
2017/03/18 06:17:00	AWS3	6.88	42	10.08	42	M	M	M	NA	NA	986.5	NA	NA		M	NA	NA	NA	NA
2017/03/18 06:18:00	AWS3	7.05	43	10.08	42	M	M	M	NA	NA	986.5	NA	NA		M	NA	NA	NA	NA
2017/03/18 06:19:00	AWS3	7.28	44	10.08	42	M	M	M	NA	NA	986.5	NA	NA		M	NA	NA	NA	NA
2017/03/18 06:20:00	AWS3	7.43	47	10.08	42	M	M	M	NA	NA	986.5	NA	NA		M	NA	NA	NA	NA
2017/03/18 06:21:00	AWS3	7.41	48	10.08	42	M	M	M	NA	NA	986.5	NA	NA		M	NA	NA	NA	NA
2017/03/18 06:22:00	AWS3	7.19	47	10.08	42	M	M	M	NA	NA	986.5	NA	NA		M	NA	NA	NA	NA
2017/03/18 06:23:00	AWS3	6.98	48	9.00	42	M	M	M	NA	NA	986.5	NA	NA		M	NA	NA	NA	NA
2017/03/18 06:24:00	AWS3	6.61	53	8.75	57	M	M	M	NA	NA	986.5	NA	NA		M	NA	NA	NA	NA
2017/03/18 06:25:00	AWS3	6.74	51	8.75	57	M	M	M	NA	NA	986.5	NA	NA		M	NA	NA	NA	NA
2017/03/18 06:26:00	AWS3	6.38	48	8.75	57	M	M	M	NA	NA	986.5	NA	NA		M	NA	NA	NA	NA
2017/03/18 06:27:00	AWS3	5.98	52	8.75	57	M	M	M	NA	NA	986.5	NA	NA		M	NA	NA	NA	NA
2017/03/18 06:28:00	AWS3	6.45	51	8.75	57	M	M	M	NA	NA	986.5	NA	NA		M	NA	NA	NA	NA
2017/03/18 06:29:00	AWS3	6.50	52	8.39	40	M	M	M	NA	NA	986.5	NA	NA		M	NA	NA	NA	NA
2017/03/18 06:30:00	AWS3	5.81	58	8.39	40	M	M	M	NA	NA	986.5	NA	NA		M	NA	NA	NA	NA
2017/03/18 06:31:00	AWS3	4.25	62	8.39	40	M	M	M	NA	NA	986.5	NA	NA		M	NA	NA	NA	NA
2017/03/18 06:32:00	AWS3	3.31	65	8.39	40	M	M	M	NA	NA	986.5	NA	NA		M	NA	NA	NA	NA
2017/03/18 06:33:00	AWS3	3.24	74	8.39	40	M	M	M	NA	NA	986.5	NA	NA		M	NA	NA	NA	NA
2017/03/18 06:34:00	AWS3	3.59	76	8.39	40	M	M	M	NA	NA	986.5	NA	NA		M	NA	NA	NA	NA
2017/03/18 06:35:00	AWS3	3.86	76	7.56	45	M	M	M	NA	NA	986.5	NA	NA		M	NA	NA	NA	NA
2017/03/18 06:36:00	AWS3	3.29	83	7.56	45	M	M	M	NA	NA	986.5	NA	NA		M	NA	NA	NA	NA
2017/03/18 06:37:00	AWS3	2.66	91	7.56	45	M	M	M	NA	NA	986.5	NA	NA		M	NA	NA	NA	NA
2017/03/18 06:38:00	AWS3	2.39	86	7.20	56	M	M	M	NA	NA	986.5	NA	NA		M	NA	NA	NA	NA
2017/03/18 06:39:00	AWS3	2.80	81	6.02	47	M	M	M	NA	NA	986.4	NA	NA		M	NA	NA	NA	NA
2017/03/18 06:40:00	AWS3	3.18	82	5.14	90	M	M	M	NA	NA	986.4	NA	NA		M	NA	NA	NA	NA
2017/03/18 06:41:00	AWS3	3.35	81	5.14	90	M	M	M	NA	NA	986.4	NA	NA		M	NA	NA	NA	NA
2017/03/18 06:42:00	AWS3	3.26	85	5.14	90	M	M	M	NA	NA	986.4	NA	NA		M	NA	NA	NA	NA
2017/03/18 06:43:00	AWS3	3.26	79	5.40	55	M	M	M	NA	NA	986.4	NA	NA		M	NA	NA	NA	NA
2017/03/18 06:44:00	AWS3	2.65	73	5.40	55	M	M	M	NA	NA	986.4	NA	NA		M	NA	NA	NA	NA
2017/03/18 06:45:00	AWS3	1.64	70	5.40	55	M	M	M	NA	NA	986.4	NA	NA		M	NA	NA	NA	NA
2017/03/18 06:46:00	AWS3	2.72	56	5.40	55	M	M	M	NA	NA	986.4	NA	NA		M	NA	NA	NA	NA
2017/03/18 06:47:00	AWS3	4.30	50	5.40	55	M	M	M	NA	NA	986.4	NA	NA		M	NA	NA	NA	NA
2017/03/18 06:48:00	AWS3	4.00	54	5.40	55	M	M	M	NA	NA	986.4	NA	NA		M	NA	NA	NA	NA
2017/03/18 06:49:00	AWS3	3.73	58	5.40	55	M	M	M	NA	NA	986.4	NA	NA		M	NA	NA	NA	NA
2017/03/18 06:50:00	AWS3	4.19	56	6.12	62	M	M	M	NA	NA	986.3	NA	NA		M	NA	NA	NA	NA
2017/03/18 06:51:00	AWS3	4.92	49	6.28	37	M	M	M	NA	NA	986.3	NA	NA		M	NA	NA	NA	NA
2017/03/18 06:52:00	AWS3	5.60	40	6.48	39	M	M	M	NA	NA	986.3	NA	NA		M	NA	NA	NA	NA
2017/03/18 06:53:00	AWS3	6.32	39	8.85	49	M	M	M	NA	NA	986.3	NA	NA		M	NA	NA	NA	NA
2017/03/18 06:54:00	AWS3	6.42	43	8.85	49	M	M	M	NA	NA	986.3	NA	NA		M	NA	NA	NA	NA
2017/03/18 06:55:00	AWS3	5.37	43	8.85	49	M	M	M	NA	NA	986.3	NA	NA		M	NA	NA	NA	NA
2017/03/18 06:56:00	AWS3	4.78	44	8.85	49	M	M	M	NA	NA	986.2	NA	NA		M	NA	NA	NA	NA
2017/03/18 06:57:00	AWS3	5.28	44	8.85	49	M	M	M	NA	NA	986.2	NA	NA		M	NA	NA	NA	NA
2017/03/18 06:58:00	AWS3	5.98	40	8.85	49	M	M	M	NA	NA	986.2	NA	NA		M	NA	NA	NA	NA
2017/03/18 06:59:00	AWS3	5.96	42	8.85	49	M	M	M	NA	NA	986.2	NA	NA		M	NA	NA	NA	NA
2017/03/18 07:00:00	AWS3	5.90	46	8.85	49	M	M	M	NA	NA	986.2	NA	NA		M	NA	NA	NA	NA
2017/03/18 07:01:00	AWS3	5.98	49	8.85	49	M	M	M	NA	NA	986.2	NA	NA		M	NA	NA	NA	NA
2017/03/18 07:02:00	AWS3	5.60	49	8.85	49	M	M	M	NA	NA	986.2	NA	NA		M	NA	NA	NA	NA
2017/03/18 07:03:00	AWS3	5.06	48	7.92	42	M	M	M	NA	NA	986.2	NA	NA		M	NA	NA	NA	NA
2017/03/18 07:04:00	AWS3	5.40	49	7.46	54	M	M	M	NA	NA	986.2	NA	NA		M	NA	NA	NA	NA
2017/03/18 07:05:00	AWS3	5.39	44	7.46	54	M	M	M	NA	NA	986.2	NA	NA		M	NA	NA	NA	NA
2017/03/18 07:06:00	AWS3	5.53	39	7.46	54	M	M	M	NA	NA	986.2	NA	NA		M	NA	NA	NA	NA
2017/03/18 07:07:00	AWS3	6.37	38	8.18	20	M	M	M	NA	NA	986.2	NA	NA		M	NA	NA	NA	NA
2017/03/18 07:08:00	AWS3	6.73	38	8.33	33	M	M	M	NA	NA	986.2	NA	NA		M	NA	NA	NA	NA
2017/03/18 07:09:00	AWS3	6.69	39	8.33	33	M	M	M	NA	NA	986.2	NA	NA		M	NA	NA	NA	NA
2017/03/18 07:10:00	AWS3	6.76	40	8.33	33	M	M	M	NA	NA	986.2	NA	NA		M	NA	NA	NA	NA
2017/03/18 07:11:00	AWS3	6.60	43	8.33	33	M	M	M	NA	NA	986.2	NA	NA		M	NA	NA	NA	NA
2017/03/18 07:12:00	AWS3	6.60	44	8.75	44	M	M	M	NA	NA	986.2	NA	NA		M	NA	NA	NA	NA
2017/03/18 07:13:00	AWS3	6.39	41	8.75	44	M	M	M	NA	NA	986.2	NA	NA		M	NA	NA	NA	NA
2017/03/18 07:14:00	AWS3	5.21	43	8.75	44	M	M	M	NA	NA	986.2	NA	NA		M	NA	NA	NA	NA
2017/03/18 07:15:00	AWS3	4.51	53	8.75	44	M	M	M	NA	NA	986.2	NA	NA		M	NA	NA	NA	NA
2017/03/18 07:16:00	AWS3	4.55	53	8.75	44	M	M	M	NA	NA	986.2	NA	NA		M	NA	NA	NA	NA
2017/03/18 07:17:00	AWS3	4.35	48	8.75	44	M	M	M	NA	NA	986.2	NA	NA		M	NA	NA	NA	NA
2017/03/18 07:18:00	AWS3	4.25	50	8.75	44	M	M	M	NA	NA	986.2	NA	NA		M	NA	NA	NA	NA
2017/03/18 07:19:00	AWS3	4.32	52	8.75	44	M	M	M	NA	NA	986.2	NA	NA		M	NA	NA	NA	NA
2017/03/18 07:20:00	AWS3	4.40	54	8.75	44	M	M	M	NA	NA	986.2	NA	NA		M	NA	NA	NA	NA
2017/03/18 07:21:00	AWS3	4.36	54	8.75	44	M	M	M	NA	NA	986.2	NA	NA		M	NA	NA	NA	NA
2017/03/18 07:22:00	AWS3	4.22	53	6.64	42	M	M	M	NA	NA	986.2	NA	NA		M	NA	NA	NA	NA
2017/03/18 07:23:00	AWS3	3.87	55	6.53	39	M	M	M	NA	NA	986.2	NA	NA		M	NA	NA	NA	NA
2017/03/18 07:24:00	AWS3	3.04	66	6.53	39	M	M	M	NA	NA	986.2	NA	NA		M	NA	NA	NA	NA
2017/03/18 07:25:00	AWS3	2.70	73	6.53	39	M	M	M	NA	NA	986.2	NA	NA		M	NA	NA	NA	NA
2017/03/18 07:26:00	AWS3	2.86	73	6.53	39	M	M	M	NA	NA	986.2	NA	NA		M	NA	NA	NA	NA
2017/03/18 07:27:00	AWS3	3.04	70	6.53	39	M	M	M	NA	NA	986.2	NA	NA		M	NA	NA	NA	NA
2017/03/18 07:28:00	AWS3	3.47	64	6.53	39	M	M	M	NA	NA	986.2	NA	NA		M	NA	NA	NA	NA
2017/03/18 07:29:00	AWS3	3.26	60	6.53	39	M	M	M	NA	NA	986.1	NA	NA		M	NA	NA	NA	NA
2017/03/18 07:30:00	AWS3	3.02	53	6.53	39	M	M	M	NA	NA	986.1	NA	NA		M	NA	NA	NA	NA
2017/03/18 07:31:00	AWS3	2.58	55	6.53	39	M	M	M	NA	NA	986.1	NA	NA		M	NA	NA	NA	NA
2017/03/18 07:32:00	AWS3	2.75	67	6.28	48	M	M	M	NA	NA	986.1	NA	NA		M	NA	NA	NA	NA
2017/03/18 07:33:00	AWS3	3.04	76	5.50	51	M	M	M	NA	NA	986.1	NA	NA		M	NA	NA	NA	NA
2017/03/18 07:34:00	AWS3	2.71	78	5.50	51	M	M	M	NA	NA	986.1	NA	NA		M	NA	NA	NA	NA
2017/03/18 07:35:00	AWS3	3.47	60	5.50	51	M	M	M	NA	NA	986.1	NA	NA		M	NA	NA	NA	NA
2017/03/18 07:36:00	AWS3	3.11	60	5.50	51	M	M	M	NA	NA	986.2	NA	NA		M	NA	NA	NA	NA
2017/03/18 07:37:00	AWS3	1.73	75	5.50	51	M	M	M	NA	NA	986.2	NA	NA		M	NA	NA	NA	NA
2017/03/18 07:38:00	AWS3	1.76	75	5.50	51	M	M	M	NA	NA	986.2	NA	NA		M	NA	NA	NA	NA
2017/03/18 07:39:00	AWS3	1.95	83	5.50	51	M	M	M	NA	NA	986.1	NA	NA		M	NA	NA	NA	NA
2017/03/18 07:40:00	AWS3	1.70	103	5.50	51	M	M	M	NA	NA	986.2	NA	NA		M	NA	NA	NA	NA
2017/03/18 07:41:00	AWS3	1.56	97	5.50	51	M	M	M	NA	NA	986.2	NA	NA		M	NA	NA	NA	NA
2017/03/18 07:42:00	AWS3	1.59	81	4.99	46	M	M	M	NA	NA	986.2	NA	NA		M	NA	NA	NA	NA
2017/03/18 07:43:00	AWS3	1.94	95	4.99	46	M	M	M	NA	NA	986.2	NA	NA		M	NA	NA	NA	NA
2017/03/18 07:44:00	AWS3	1.68	119	4.99	46	M	M	M	NA	NA	986.2	NA	NA		M	NA	NA	NA	NA
2017/03/18 07:45:00	AWS3	1.55	97	3.55	50	M	M	M	NA	NA	986.2	NA	NA		M	NA	NA	NA	NA
2017/03/18 07:46:00	AWS3	1.49	90	3.45	44	M	M	M	NA	NA	986.2	NA	NA		M	NA	NA	NA	NA
2017/03/18 07:47:00	AWS3	1.81	125	3.45	44	M	M	M	NA	NA	986.2	NA	NA		M	NA	NA	NA	NA
2017/03/18 07:48:00	AWS3	2.46	128	3.09	52	M	M	M	NA	NA	986.2	NA	NA		M	NA	NA	NA	NA
2017/03/18 07:49:00	AWS3	2.34	127	3.09	52	M	M	M	NA	NA	986.2	NA	NA		M	NA	NA	NA	NA
2017/03/18 07:50:00	AWS3	2.02	131	3.09	52	M	M	M	NA	NA	986.2	NA	NA		M	NA	NA	NA	NA
2017/03/18 07:51:00	AWS3	1.64	142	3.09	52	M	M	M	NA	NA	986.2	NA	NA		M	NA	NA	NA	NA
2017/03/18 07:52:00	AWS3	1.33	151	2.93	114	M	M	M	NA	NA	986.2	NA	NA		M	NA	NA	NA	NA
2017/03/18 07:53:00	AWS3	1.33	160	2.93	114	M	M	M	NA	NA	986.1	NA	NA		M	NA	NA	NA	NA
2017/03/18 07:54:00	AWS3	1.52	163	2.93	114	M	M	M	NA	NA	986.1	NA	NA		M	NA	NA	NA	NA
2017/03/18 07:55:00	AWS3	1.85	163	2.93	114	M	M	M	NA	NA	986.1	NA	NA		M	NA	NA	NA	NA
2017/03/18 07:56:00	AWS3	2.31	162	3.24	156	M	M	M	NA	NA	986.1	NA	NA		M	NA	NA	NA	NA
2017/03/18 07:57:00	AWS3	2.53	155	3.24	156	M	M	M	NA	NA	986.1	NA	NA		M	NA	NA	NA	NA
2017/03/18 07:58:00	AWS3	2.30	139	3.24	156	M	M	M	NA	NA	986.1	NA	NA		M	NA	NA	NA	NA
2017/03/18 07:59:00	AWS3	1.69	126	3.24	156	M	M	M	NA	NA	986.1	NA	NA		M	NA	NA	NA	NA
2017/03/18 08:00:00	AWS3	1.80	145	3.24	156	M	M	M	NA	NA	986.0	NA	NA		M	NA	NA	NA	NA
2017/03/18 08:01:00	AWS3	2.56	168	3.24	156	M	M	M	NA	NA	986.0	NA	NA		M	NA	NA	NA	NA
2017/03/18 08:02:00	AWS3	2.54	164	3.24	156	M	M	M	NA	NA	986.1	NA	NA		M	NA	NA	NA	NA
2017/03/18 08:03:00	AWS3	2.63	144	3.24	156	M	M	M	NA	NA	986.1	NA	NA		M	NA	NA	NA	NA
2017/03/18 08:04:00	AWS3	3.03	136	3.34	142	M	M	M	NA	NA	986.0	NA	NA		M	NA	NA	NA	NA
2017/03/18 08:05:00	AWS3	2.97	143	3.34	142	M	M	M	NA	NA	986.0	NA	NA		M	NA	NA	NA	NA
2017/03/18 08:06:00	AWS3	2.52	151	3.34	142	M	M	M	NA	NA	986.0	NA	NA		M	NA	NA	NA	NA
2017/03/18 08:07:00	AWS3	2.31	153	3.34	142	M	M	M	NA	NA	986.0	NA	NA		M	NA	NA	NA	NA
2017/03/18 08:08:00	AWS3	2.86	155	3.86	163	M	M	M	NA	NA	985.9	NA	NA		M	NA	NA	NA	NA
2017/03/18 08:09:00	AWS3	3.02	160	3.86	163	M	M	M	NA	NA	986.0	NA	NA		M	NA	NA	NA	NA
2017/03/18 08:10:00	AWS3	2.63	158	3.86	163	M	M	M	NA	NA	986.0	NA	NA		M	NA	NA	NA	NA
2017/03/18 08:11:00	AWS3	2.51	158	3.86	163	M	M	M	NA	NA	986.0	NA	NA		M	NA	NA	NA	NA
2017/03/18 08:12:00	AWS3	2.50	167	3.86	163	M	M	M	NA	NA	985.9	NA	NA		M	NA	NA	NA	NA
2017/03/18 08:13:00	AWS3	2.72	171	3.86	163	M	M	M	NA	NA	985.9	NA	NA		M	NA	NA	NA	NA
2017/03/18 08:14:00	AWS3	2.82	170	3.86	163	M	M	M	NA	NA	985.9	NA	NA		M	NA	NA	NA	NA
2017/03/18 08:15:00	AWS3	2.81	171	3.86	163	M	M	M	NA	NA	985.9	NA	NA		M	NA	NA	NA	NA
2017/03/18 08:16:00	AWS3	2.51	164	3.86	163	M	M	M	NA	NA	985.9	NA	NA		M	NA	NA	NA	NA
2017/03/18 08:17:00	AWS3	2.32	158	3.86	163	M	M	M	NA	NA	986.0	NA	NA		M	NA	NA	NA	NA
2017/03/18 08:18:00	AWS3	2.69	156	3.24	169	M	M	M	NA	NA	986.0	NA	NA		M	NA	NA	NA	NA
2017/03/18 08:19:00	AWS3	2.93	157	3.24	169	M	M	M	NA	NA	985.9	NA	NA		M	NA	NA	NA	NA
2017/03/18 08:20:00	AWS3	3.05	162	3.34	167	M	M	M	NA	NA	986.0	NA	NA		M	NA	NA	NA	NA
2017/03/18 08:21:00	AWS3	3.06	164	3.34	167	M	M	M	NA	NA	986.0	NA	NA		M	NA	NA	NA	NA
2017/03/18 08:22:00	AWS3	2.79	163	3.34	167	M	M	M	NA	NA	986.0	NA	NA		M	NA	NA	NA	NA
2017/03/18 08:23:00	AWS3	2.59	163	3.34	167	M	M	M	NA	NA	986.0	NA	NA		M	NA	NA	NA	NA
2017/03/18 08:24:00	AWS3	2.43	163	3.34	167	M	M	M	NA	NA	986.0	NA	NA		M	NA	NA	NA	NA
2017/03/18 08:25:00	AWS3	2.56	164	3.34	167	M	M	M	NA	NA	985.9	NA	NA		M	NA	NA	NA	NA
2017/03/18 08:26:00	AWS3	2.58	170	3.34	167	M	M	M	NA	NA	985.9	NA	NA		M	NA	NA	NA	NA
2017/03/18 08:27:00	AWS3	2.57	174	3.34	167	M	M	M	NA	NA	985.9	NA	NA		M	NA	NA	NA	NA
2017/03/18 08:28:00	AWS3	3.01	171	3.76	168	M	M	M	NA	NA	985.9	NA	NA		M	NA	NA	NA	NA
2017/03/18 08:29:00	AWS3	2.97	162	3.76	168	M	M	M	NA	NA	985.9	NA	NA		M	NA	NA	NA	NA
2017/03/18 08:30:00	AWS3	2.39	163	3.76	168	M	M	M	NA	NA	986.0	NA	NA		M	NA	NA	NA	NA
2017/03/18 08:31:00	AWS3	2.17	183	3.76	168	M	M	M	NA	NA	985.9	NA	NA		M	NA	NA	NA	NA
2017/03/18 08:32:00	AWS3	2.21	196	3.76	168	M	M	M	NA	NA	985.9	NA	NA		M	NA	NA	NA	NA
2017/03/18 08:33:00	AWS3	1.96	193	3.76	168	M	M	M	NA	NA	985.9	NA	NA		M	NA	NA	NA	NA
2017/03/18 08:34:00	AWS3	1.97	198	3.76	168	M	M	M	NA	NA	985.9	NA	NA		M	NA	NA	NA	NA
2017/03/18 08:35:00	AWS3	2.09	211	3.76	168	M	M	M	NA	NA	985.9	NA	NA		M	NA	NA	NA	NA
2017/03/18 08:36:00	AWS3	2.19	212	3.76	168	M	M	M	NA	NA	985.9	NA	NA		M	NA	NA	NA	NA
2017/03/18 08:37:00	AWS3	2.07	219	3.76	168	M	M	M	NA	NA	986.0	NA	NA		M	NA	NA	NA	NA
2017/03/18 08:38:00	AWS3	2.08	250	3.24	153	M	M	M	NA	NA	986.0	NA	NA		M	NA	NA	NA	NA
2017/03/18 08:39:00	AWS3	2.52	256	2.88	241	M	M	M	NA	NA	986.0	NA	NA		M	NA	NA	NA	NA
2017/03/18 08:40:00	AWS3	2.79	244	2.98	250	M	M	M	NA	NA	985.9	NA	NA		M	NA	NA	NA	NA
2017/03/18 08:41:00	AWS3	2.96	243	3.19	234	M	M	M	NA	NA	985.9	NA	NA		M	NA	NA	NA	NA
2017/03/18 08:42:00	AWS3	2.51	257	3.19	234	M	M	M	NA	NA	986.0	NA	NA		M	NA	NA	NA	NA
2017/03/18 08:43:00	AWS3	1.17	267	3.19	234	M	M	M	NA	NA	985.9	NA	NA		M	NA	NA	NA	NA
2017/03/18 08:44:00	AWS3	1.20	269	3.19	234	M	M	M	NA	NA	985.9	NA	NA		M	NA	NA	NA	NA
2017/03/18 08:45:00	AWS3	2.00	285	3.19	234	M	M	M	NA	NA	985.9	NA	NA		M	NA	NA	NA	NA
2017/03/18 08:46:00	AWS3	2.37	282	3.19	234	M	M	M	NA	NA	985.9	NA	NA		M	NA	NA	NA	NA
2017/03/18 08:47:00	AWS3	2.78	264	3.19	262	M	M	M	NA	NA	985.9	NA	NA		M	NA	NA	NA	NA
2017/03/18 08:48:00	AWS3	2.69	270	3.19	262	M	M	M	NA	NA	985.9	NA	NA		M	NA	NA	NA	NA
2017/03/18 08:49:00	AWS3	2.62	277	3.45	269	M	M	M	NA	NA	985.9	NA	NA		M	NA	NA	NA	NA
2017/03/18 08:50:00	AWS3	2.95	264	3.45	269	M	M	M	NA	NA	985.9	NA	NA		M	NA	NA	NA	NA
2017/03/18 08:51:00	AWS3	3.16	261	3.86	264	M	M	M	NA	NA	985.9	NA	NA		M	NA	NA	NA	NA
2017/03/18 08:52:00	AWS3	3.02	271	3.86	264	M	M	M	NA	NA	985.9	NA	NA		M	NA	NA	NA	NA
2017/03/18 08:53:00	AWS3	2.82	274	3.86	264	M	M	M	NA	NA	985.9	NA	NA		M	NA	NA	NA	NA
2017/03/18 08:54:00	AWS3	2.63	261	3.86	264	M	M	M	NA	NA	985.9	NA	NA		M	NA	NA	NA	NA
2017/03/18 08:55:00	AWS3	2.42	264	3.86	264	M	M	M	NA	NA	985.9	NA	NA		M	NA	NA	NA	NA
2017/03/18 08:56:00	AWS3	2.74	272	3.86	264	M	M	M	NA	NA	985.9	NA	NA		M	NA	NA	NA	NA
2017/03/18 08:57:00	AWS3	2.82	271	3.86	264	M	M	M	NA	NA	985.9	NA	NA		M	NA	NA	NA	NA
2017/03/18 08:58:00	AWS3	2.09	276	3.86	264	M	M	M	NA	NA	985.9	NA	NA		M	NA	NA	NA	NA
2017/03/18 08:59:00	AWS3	1.84	259	3.86	264	M	M	M	NA	NA	985.9	NA	NA		M	NA	NA	NA	NA
2017/03/18 09:00:00	AWS3	1.95	259	3.86	264	M	M	M	NA	NA	985.9	NA	NA		M	NA	NA	NA	NA
2017/03/18 09:01:00	AWS3	2.33	290	3.65	271	M	M	M	NA	NA	985.9	NA	NA		M	NA	NA	NA	NA
2017/03/18 09:02:00	AWS3	2.58	293	3.65	271	M	M	M	NA	NA	985.9	NA	NA		M	NA	NA	NA	NA
2017/03/18 09:03:00	AWS3	2.23	257	3.65	271	M	M	M	NA	NA	985.9	NA	NA		M	NA	NA	NA	NA
2017/03/18 09:04:00	AWS3	1.68	228	3.65	271	M	M	M	NA	NA	985.9	NA	NA		M	NA	NA	NA	NA
2017/03/18 09:05:00	AWS3	1.08	218	3.65	271	M	M	M	NA	NA	985.9	NA	NA		M	NA	NA	NA	NA
2017/03/18 09:06:00	AWS3	0.73	231	2.98	307	M	M	M	NA	NA	985.9	NA	NA		M	NA	NA	NA	NA
2017/03/18 09:07:00	AWS3	0.98	251	2.98	307	M	M	M	NA	NA	985.9	NA	NA		M	NA	NA	NA	NA
2017/03/18 09:08:00	AWS3	0.80	270	2.98	307	M	M	M	NA	NA	985.9	NA	NA		M	NA	NA	NA	NA
2017/03/18 09:09:00	AWS3	0.79	287	2.98	307	M	M	M	NA	NA	985.9	NA	NA		M	NA	NA	NA	NA
2017/03/18 09:10:00	AWS3	0.69	307	2.98	307	M	M	M	NA	NA	985.9	NA	NA		M	NA	NA	NA	NA
2017/03/18 09:11:00	AWS3	0.05	335	2.62	232	M	M	M	NA	NA	985.9	NA	NA		M	NA	NA	NA	NA
2017/03/18 09:12:00	AWS3	0.00	330	2.62	232	M	M	M	NA	NA	985.9	NA	NA		M	NA	NA	NA	NA
2017/03/18 09:13:00	AWS3	0.00	308	1.80	248	M	M	M	NA	NA	985.9	NA	NA		M	NA	NA	NA	NA
2017/03/18 09:14:00	AWS3	0.00	319	1.80	248	M	M	M	NA	NA	985.9	NA	NA		M	NA	NA	NA	NA
2017/03/18 09:15:00	AWS3	0.00	354	1.80	248	M	M	M	NA	NA	985.9	NA	NA		M	NA	NA	NA	NA
2017/03/18 09:16:00	AWS3	0.00	349	1.80	248	M	M	M	NA	NA	985.9	NA	NA		M	NA	NA	NA	NA
2017/03/18 09:17:00	AWS3	0.00	330	1.44	287	M	M	M	NA	NA	985.9	NA	NA		M	NA	NA	NA	NA
2017/03/18 09:18:00	AWS3	0.00	338	1.44	287	M	M	M	NA	NA	985.9	NA	NA		M	NA	NA	NA	NA
2017/03/18 09:19:00	AWS3	0.24	355	1.70	66	M	M	M	NA	NA	985.9	NA	NA		M	NA	NA	NA	NA
2017/03/18 09:20:00	AWS3	0.92	350	2.16	346	M	M	M	NA	NA	985.8	NA	NA		M	NA	NA	NA	NA
2017/03/18 09:21:00	AWS3	1.32	341	2.16	346	M	M	M	NA	NA	985.9	NA	NA		M	NA	NA	NA	NA
2017/03/18 09:22:00	AWS3	1.40	360	2.16	23	M	M	M	NA	NA	985.9	NA	NA		M	NA	NA	NA	NA
2017/03/18 09:23:00	AWS3	1.85	15	3.34	28	M	M	M	NA	NA	985.8	NA	NA		M	NA	NA	NA	NA
2017/03/18 09:24:00	AWS3	2.73	15	3.65	5	M	M	M	NA	NA	985.8	NA	NA		M	NA	NA	NA	NA
2017/03/18 09:25:00	AWS3	3.72	12	4.68	17	M	M	M	NA	NA	985.8	NA	NA		M	NA	NA	NA	NA
2017/03/18 09:26:00	AWS3	4.42	16	5.45	22	M	M	M	NA	NA	985.8	NA	NA		M	NA	NA	NA	NA
2017/03/18 09:27:00	AWS3	4.69	15	5.45	22	M	M	M	NA	NA	985.8	NA	NA		M	NA	NA	NA	NA
2017/03/18 09:28:00	AWS3	4.59	15	5.45	22	M	M	M	NA	NA	985.8	NA	NA		M	NA	NA	NA	NA
2017/03/18 09:29:00	AWS3	4.44	20	5.45	22	M	M	M	NA	NA	985.8	NA	NA		M	NA	NA	NA	NA
2017/03/18 09:30:00	AWS3	4.29	24	5.45	22	M	M	M	NA	NA	985.8	NA	NA		M	NA	NA	NA	NA
2017/03/18 09:31:00	AWS3	4.08	27	5.45	22	M	M	M	NA	NA	985.8	NA	NA		M	NA	NA	NA	NA
2017/03/18 09:32:00	AWS3	4.41	23	5.45	22	M	M	M	NA	NA	985.8	NA	NA		M	NA	NA	NA	NA
2017/03/18 09:33:00	AWS3	4.69	19	5.61	29	M	M	M	NA	NA	985.8	NA	NA		M	NA	NA	NA	NA
2017/03/18 09:34:00	AWS3	5.06	20	6.07	19	M	M	M	NA	NA	985.8	NA	NA		M	NA	NA	NA	NA
2017/03/18 09:35:00	AWS3	5.39	21	6.07	19	M	M	M	NA	NA	985.8	NA	NA		M	NA	NA	NA	NA
2017/03/18 09:36:00	AWS3	5.09	22	6.07	19	M	M	M	NA	NA	985.8	NA	NA		M	NA	NA	NA	NA
2017/03/18 09:37:00	AWS3	4.85	21	6.07	19	M	M	M	NA	NA	985.8	NA	NA		M	NA	NA	NA	NA
2017/03/18 09:38:00	AWS3	4.84	20	6.07	19	M	M	M	NA	NA	985.9	NA	NA		M	NA	NA	NA	NA
2017/03/18 09:39:00	AWS3	4.78	20	6.07	19	M	M	M	NA	NA	985.9	NA	NA		M	NA	NA	NA	NA
2017/03/18 09:40:00	AWS3	4.85	21	6.07	19	M	M	M	NA	NA	985.9	NA	NA		M	NA	NA	NA	NA
2017/03/18 09:41:00	AWS3	5.20	21	6.12	9	M	M	M	NA	NA	985.9	NA	NA		M	NA	NA	NA	NA
2017/03/18 09:42:00	AWS3	5.68	22	6.94	23	M	M	M	NA	NA	985.9	NA	NA		M	NA	NA	NA	NA
2017/03/18 09:43:00	AWS3	5.43	23	6.94	23	M	M	M	NA	NA	986.0	NA	NA		M	NA	NA	NA	NA
2017/03/18 09:44:00	AWS3	4.84	24	6.94	23	M	M	M	NA	NA	986.0	NA	NA		M	NA	NA	NA	NA
2017/03/18 09:45:00	AWS3	5.05	21	6.94	23	M	M	M	NA	NA	986.0	NA	NA		M	NA	NA	NA	NA
2017/03/18 09:46:00	AWS3	4.70	19	6.94	23	M	M	M	NA	NA	986.0	NA	NA		M	NA	NA	NA	NA
2017/03/18 09:47:00	AWS3	4.50	23	6.94	23	M	M	M	NA	NA	986.0	NA	NA		M	NA	NA	NA	NA
2017/03/18 09:48:00	AWS3	4.65	27	6.94	23	M	M	M	NA	NA	986.0	NA	NA		M	NA	NA	NA	NA
2017/03/18 09:49:00	AWS3	4.37	28	6.94	23	M	M	M	NA	NA	986.1	NA	NA		M	NA	NA	NA	NA
2017/03/18 09:50:00	AWS3	3.79	28	6.94	23	M	M	M	NA	NA	986.1	NA	NA		M	NA	NA	NA	NA
2017/03/18 09:51:00	AWS3	3.24	32	6.94	23	M	M	M	NA	NA	986.1	NA	NA		M	NA	NA	NA	NA
2017/03/18 09:52:00	AWS3	2.32	38	6.28	31	M	M	M	NA	NA	986.1	NA	NA		M	NA	NA	NA	NA
2017/03/18 09:53:00	AWS3	2.03	46	6.28	31	M	M	M	NA	NA	986.1	NA	NA		M	NA	NA	NA	NA
2017/03/18 09:54:00	AWS3	1.82	75	6.02	16	M	M	M	NA	NA	986.1	NA	NA		M	NA	NA	NA	NA
2017/03/18 09:55:00	AWS3	0.96	121	5.40	16	M	M	M	NA	NA	986.1	NA	NA		M	NA	NA	NA	NA
2017/03/18 09:56:00	AWS3	1.01	155	5.40	16	M	M	M	NA	NA	986.1	NA	NA		M	NA	NA	NA	NA
2017/03/18 09:57:00	AWS3	1.24	166	5.40	16	M	M	M	NA	NA	986.1	NA	NA		M	NA	NA	NA	NA
2017/03/18 09:58:00	AWS3	1.06	167	5.40	16	M	M	M	NA	NA	986.1	NA	NA		M	NA	NA	NA	NA
2017/03/18 09:59:00	AWS3	0.51	161	4.22	35	M	M	M	NA	NA	986.1	NA	NA		M	NA	NA	NA	NA
2017/03/18 10:00:00	AWS3	0.20	136	3.76	27	M	M	M	NA	NA	986.1	NA	NA		M	NA	NA	NA	NA
2017/03/18 10:01:00	AWS3	0.40	135	3.14	40	M	M	M	NA	NA	986.1	NA	NA		M	NA	NA	NA	NA
2017/03/18 10:02:00	AWS3	0.67	173	3.14	40	M	M	M	NA	NA	986.1	NA	NA		M	NA	NA	NA	NA
2017/03/18 10:03:00	AWS3	1.10	201	2.37	168	M	M	M	NA	NA	986.1	NA	NA		M	NA	NA	NA	NA
2017/03/18 10:04:00	AWS3	1.14	216	2.37	168	M	M	M	NA	NA	986.1	NA	NA		M	NA	NA	NA	NA
2017/03/18 10:05:00	AWS3	1.28	208	2.37	168	M	M	M	NA	NA	986.1	NA	NA		M	NA	NA	NA	NA
2017/03/18 10:06:00	AWS3	1.80	194	2.21	180	M	M	M	NA	NA	986.1	NA	NA		M	NA	NA	NA	NA
2017/03/18 10:07:00	AWS3	1.72	198	2.21	180	M	M	M	NA	NA	986.1	NA	NA		M	NA	NA	NA	NA
2017/03/18 10:08:00	AWS3	1.50	212	2.21	180	M	M	M	NA	NA	986.1	NA	NA		M	NA	NA	NA	NA
2017/03/18 10:09:00	AWS3	0.97	219	2.21	180	M	M	M	NA	NA	986.1	NA	NA		M	NA	NA	NA	NA
2017/03/18 10:10:00	AWS3	0.80	236	2.21	180	M	M	M	NA	NA	986.1	NA	NA		M	NA	NA	NA	NA
2017/03/18 10:11:00	AWS3	0.77	246	2.21	180	M	M	M	NA	NA	986.1	NA	NA		M	NA	NA	NA	NA
2017/03/18 10:12:00	AWS3	0.24	251	2.21	180	M	M	M	NA	NA	986.1	NA	NA		M	NA	NA	NA	NA
2017/03/18 10:13:00	AWS3	0.00	251	2.21	180	M	M	M	NA	NA	986.1	NA	NA		M	NA	NA	NA	NA
2017/03/18 10:14:00	AWS3	0.96	90	4.06	120	M	M	M	NA	NA	986.1	NA	NA		M	NA	NA	NA	NA
2017/03/18 10:15:00	AWS3	2.31	111	4.06	120	M	M	M	NA	NA	986.0	NA	NA		M	NA	NA	NA	NA
2017/03/18 10:16:00	AWS3	3.18	127	4.06	120	M	M	M	NA	NA	986.1	NA	NA		M	NA	NA	NA	NA
2017/03/18 10:17:00	AWS3	3.67	130	4.12	129	M	M	M	NA	NA	986.1	NA	NA		M	NA	NA	NA	NA
2017/03/18 10:18:00	AWS3	3.47	144	4.12	129	M	M	M	NA	NA	986.1	NA	NA		M	NA	NA	NA	NA
2017/03/18 10:19:00	AWS3	3.51	154	4.58	162	M	M	M	NA	NA	986.1	NA	NA		M	NA	NA	NA	NA
2017/03/18 10:20:00	AWS3	3.81	161	4.58	162	M	M	M	NA	NA	986.0	NA	NA		M	NA	NA	NA	NA
2017/03/18 10:21:00	AWS3	4.02	161	4.58	158	M	M	M	NA	NA	986.1	NA	NA		M	NA	NA	NA	NA
2017/03/18 10:22:00	AWS3	3.89	159	4.58	158	M	M	M	NA	NA	986.1	NA	NA		M	NA	NA	NA	NA
2017/03/18 10:23:00	AWS3	3.67	157	4.58	158	M	M	M	NA	NA	986.1	NA	NA		M	NA	NA	NA	NA
2017/03/18 10:24:00	AWS3	3.52	160	4.58	158	M	M	M	NA	NA	986.1	NA	NA		M	NA	NA	NA	NA
2017/03/18 10:25:00	AWS3	3.03	166	4.58	158	M	M	M	NA	NA	986.1	NA	NA		M	NA	NA	NA	NA
2017/03/18 10:26:00	AWS3	2.85	162	4.58	158	M	M	M	NA	NA	986.1	NA	NA		M	NA	NA	NA	NA
2017/03/18 10:27:00	AWS3	2.66	156	4.58	158	M	M	M	NA	NA	986.1	NA	NA		M	NA	NA	NA	NA
2017/03/18 10:28:00	AWS3	2.00	154	4.58	158	M	M	M	NA	NA	986.1	NA	NA		M	NA	NA	NA	NA
2017/03/18 10:29:00	AWS3	1.16	159	4.58	158	M	M	M	NA	NA	986.1	NA	NA		M	NA	NA	NA	NA
2017/03/18 10:30:00	AWS3	1.12	164	4.58	158	M	M	M	NA	NA	986.1	NA	NA		M	NA	NA	NA	NA
2017/03/18 10:31:00	AWS3	1.52	156	4.01	155	M	M	M	NA	NA	986.1	NA	NA		M	NA	NA	NA	NA
2017/03/18 10:32:00	AWS3	0.75	124	4.01	155	M	M	M	NA	NA	986.1	NA	NA		M	NA	NA	NA	NA
2017/03/18 10:33:00	AWS3	0.00	119	3.55	162	M	M	M	NA	NA	986.1	NA	NA		M	NA	NA	NA	NA
2017/03/18 10:34:00	AWS3	0.00	143	3.14	158	M	M	M	NA	NA	986.1	NA	NA		M	NA	NA	NA	NA
2017/03/18 10:35:00	AWS3	1.03	158	3.14	158	M	M	M	NA	NA	986.1	NA	NA		M	NA	NA	NA	NA
2017/03/18 10:36:00	AWS3	2.20	166	3.09	154	M	M	M	NA	NA	986.1	NA	NA		M	NA	NA	NA	NA
2017/03/18 10:37:00	AWS3	2.53	173	3.09	185	M	M	M	NA	NA	986.1	NA	NA		M	NA	NA	NA	NA
2017/03/18 10:38:00	AWS3	2.72	180	3.09	185	M	M	M	NA	NA	986.0	NA	NA		M	NA	NA	NA	NA
2017/03/18 10:39:00	AWS3	2.73	176	3.19	180	M	M	M	NA	NA	986.0	NA	NA		M	NA	NA	NA	NA
2017/03/18 10:40:00	AWS3	3.25	183	4.17	192	M	M	M	NA	NA	986.0	NA	NA		M	NA	NA	NA	NA
2017/03/18 10:41:00	AWS3	4.13	188	4.89	178	M	M	M	NA	NA	985.9	NA	NA		M	NA	NA	NA	NA
2017/03/18 10:42:00	AWS3	4.44	182	5.40	176	M	M	M	NA	NA	985.9	NA	NA		M	NA	NA	NA	NA
2017/03/18 10:43:00	AWS3	3.40	166	5.40	176	M	M	M	NA	NA	986.1	NA	NA		M	NA	NA	NA	NA
2017/03/18 10:44:00	AWS3	1.38	104	5.40	176	M	M	M	NA	NA	986.1	NA	NA		M	NA	NA	NA	NA
2017/03/18 10:45:00	AWS3	0.61	42	5.40	176	M	M	M	NA	NA	986.0	NA	NA		M	NA	NA	NA	NA
2017/03/18 10:46:00	AWS3	2.00	8	5.40	176	M	M	M	NA	NA	986.0	NA	NA		M	NA	NA	NA	NA
2017/03/18 10:47:00	AWS3	3.02	353	5.40	176	M	M	M	NA	NA	986.0	NA	NA		M	NA	NA	NA	NA
2017/03/18 10:48:00	AWS3	2.71	357	5.40	176	M	M	M	NA	NA	986.0	NA	NA		M	NA	NA	NA	NA
2017/03/18 10:49:00	AWS3	2.35	27	5.40	176	M	M	M	NA	NA	986.1	NA	NA		M	NA	NA	NA	NA
2017/03/18 10:50:00	AWS3	2.61	108	5.40	176	M	M	M	NA	NA	986.0	NA	NA		M	NA	NA	NA	NA
2017/03/18 10:51:00	AWS3	2.62	146	5.40	176	M	M	M	NA	NA	986.0	NA	NA		M	NA	NA	NA	NA
2017/03/18 10:52:00	AWS3	1.97	149	4.22	349	M	M	M	NA	NA	986.0	NA	NA		M	NA	NA	NA	NA
2017/03/18 10:53:00	AWS3	1.35	164	4.22	349	M	M	M	NA	NA	986.0	NA	NA		M	NA	NA	NA	NA
2017/03/18 10:54:00	AWS3	1.11	179	4.22	349	M	M	M	NA	NA	986.0	NA	NA		M	NA	NA	NA	NA
2017/03/18 10:55:00	AWS3	1.16	170	4.22	349	M	M	M	NA	NA	986.0	NA	NA		M	NA	NA	NA	NA
2017/03/18 10:56:00	AWS3	1.06	144	4.01	350	M	M	M	NA	NA	986.0	NA	NA		M	NA	NA	NA	NA
2017/03/18 10:57:00	AWS3	1.51	126	3.55	146	M	M	M	NA	NA	986.1	NA	NA		M	NA	NA	NA	NA
2017/03/18 10:58:00	AWS3	1.85	127	3.55	146	M	M	M	NA	NA	986.1	NA	NA		M	NA	NA	NA	NA
2017/03/18 10:59:00	AWS3	1.67	141	3.55	146	M	M	M	NA	NA	986.1	NA	NA		M	NA	NA	NA	NA
2017/03/18 11:00:00	AWS3	1.75	151	2.31	118	M	M	M	NA	NA	986.1	NA	NA		M	NA	NA	NA	NA
2017/03/18 11:01:00	AWS3	1.67	145	2.31	118	M	M	M	NA	NA	986.1	NA	NA		M	NA	NA	NA	NA
2017/03/18 11:02:00	AWS3	1.36	137	2.31	118	M	M	M	NA	NA	986.1	NA	NA		M	NA	NA	NA	NA
2017/03/18 11:03:00	AWS3	0.81	139	2.31	118	M	M	M	NA	NA	986.1	NA	NA		M	NA	NA	NA	NA
2017/03/18 11:04:00	AWS3	0.33	134	2.31	118	M	M	M	NA	NA	986.1	NA	NA		M	NA	NA	NA	NA
2017/03/18 11:05:00	AWS3	1.48	132	3.55	132	M	M	M	NA	NA	986.1	NA	NA		M	NA	NA	NA	NA
2017/03/18 11:06:00	AWS3	2.64	133	3.55	132	M	M	M	NA	NA	986.2	NA	NA		M	NA	NA	NA	NA
2017/03/18 11:07:00	AWS3	2.59	135	3.55	132	M	M	M	NA	NA	986.1	NA	NA		M	NA	NA	NA	NA
2017/03/18 11:08:00	AWS3	2.72	150	3.55	163	M	M	M	NA	NA	986.1	NA	NA		M	NA	NA	NA	NA
2017/03/18 11:09:00	AWS3	3.09	170	3.65	181	M	M	M	NA	NA	986.1	NA	NA		M	NA	NA	NA	NA
2017/03/18 11:10:00	AWS3	3.05	182	3.65	181	M	M	M	NA	NA	986.1	NA	NA		M	NA	NA	NA	NA
2017/03/18 11:11:00	AWS3	2.54	189	3.65	181	M	M	M	NA	NA	986.2	NA	NA		M	NA	NA	NA	NA
2017/03/18 11:12:00	AWS3	2.41	180	3.65	181	M	M	M	NA	NA	986.1	NA	NA		M	NA	NA	NA	NA
2017/03/18 11:13:00	AWS3	2.59	163	3.65	181	M	M	M	NA	NA	986.1	NA	NA		M	NA	NA	NA	NA
2017/03/18 11:14:00	AWS3	2.12	157	3.65	181	M	M	M	NA	NA	986.1	NA	NA		M	NA	NA	NA	NA
2017/03/18 11:15:00	AWS3	1.57	139	3.65	181	M	M	M	NA	NA	986.1	NA	NA		M	NA	NA	NA	NA
2017/03/18 11:16:00	AWS3	1.90	118	3.65	181	M	M	M	NA	NA	986.2	NA	NA		M	NA	NA	NA	NA
2017/03/18 11:17:00	AWS3	1.52	106	3.65	181	M	M	M	NA	NA	986.2	NA	NA		M	NA	NA	NA	NA
2017/03/18 11:18:00	AWS3	1.56	120	3.65	181	M	M	M	NA	NA	986.1	NA	NA		M	NA	NA	NA	NA
2017/03/18 11:19:00	AWS3	2.67	141	3.24	148	M	M	M	NA	NA	986.1	NA	NA		M	NA	NA	NA	NA
2017/03/18 11:20:00	AWS3	2.69	144	3.24	148	M	M	M	NA	NA	986.2	NA	NA		M	NA	NA	NA	NA
2017/03/18 11:21:00	AWS3	2.47	148	3.24	148	M	M	M	NA	NA	986.2	NA	NA		M	NA	NA	NA	NA
2017/03/18 11:22:00	AWS3	2.33	172	3.45	194	M	M	M	NA	NA	986.2	NA	NA		M	NA	NA	NA	NA
2017/03/18 11:23:00	AWS3	2.65	216	4.58	232	M	M	M	NA	NA	986.1	NA	NA		M	NA	NA	NA	NA
2017/03/18 11:24:00	AWS3	2.70	229	4.58	232	M	M	M	NA	NA	986.1	NA	NA		M	NA	NA	NA	NA
2017/03/18 11:25:00	AWS3	2.08	197	4.58	232	M	M	M	NA	NA	986.1	NA	NA		M	NA	NA	NA	NA
2017/03/18 11:26:00	AWS3	2.21	109	4.58	232	M	M	M	NA	NA	986.2	NA	NA		M	NA	NA	NA	NA
2017/03/18 11:27:00	AWS3	2.92	105	4.58	232	M	M	M	NA	NA	986.1	NA	NA		M	NA	NA	NA	NA
2017/03/18 11:28:00	AWS3	3.10	146	4.58	232	M	M	M	NA	NA	986.0	NA	NA		M	NA	NA	NA	NA
2017/03/18 11:29:00	AWS3	1.68	183	4.58	232	M	M	M	NA	NA	986.1	NA	NA		M	NA	NA	NA	NA
2017/03/18 11:30:00	AWS3	0.82	149	4.58	232	M	M	M	NA	NA	986.2	NA	NA		M	NA	NA	NA	NA
2017/03/18 11:31:00	AWS3	1.05	125	4.58	232	M	M	M	NA	NA	986.2	NA	NA		M	NA	NA	NA	NA
2017/03/18 11:32:00	AWS3	0.89	163	4.58	232	M	M	M	NA	NA	986.1	NA	NA		M	NA	NA	NA	NA
2017/03/18 11:33:00	AWS3	1.41	179	4.22	138	M	M	M	NA	NA	986.1	NA	NA		M	NA	NA	NA	NA
2017/03/18 11:34:00	AWS3	2.21	158	4.22	138	M	M	M	NA	NA	986.1	NA	NA		M	NA	NA	NA	NA
2017/03/18 11:35:00	AWS3	2.26	139	4.22	138	M	M	M	NA	NA	986.2	NA	NA		M	NA	NA	NA	NA
2017/03/18 11:36:00	AWS3	2.27	127	4.22	138	M	M	M	NA	NA	986.2	NA	NA		M	NA	NA	NA	NA
2017/03/18 11:37:00	AWS3	1.94	115	4.01	161	M	M	M	NA	NA	986.2	NA	NA		M	NA	NA	NA	NA
2017/03/18 11:38:00	AWS3	2.13	123	3.40	140	M	M	M	NA	NA	986.2	NA	NA		M	NA	NA	NA	NA
2017/03/18 11:39:00	AWS3	2.80	135	3.55	125	M	M	M	NA	NA	986.2	NA	NA		M	NA	NA	NA	NA
2017/03/18 11:40:00	AWS3	2.72	123	3.55	125	M	M	M	NA	NA	986.2	NA	NA		M	NA	NA	NA	NA
2017/03/18 11:41:00	AWS3	2.40	116	3.55	125	M	M	M	NA	NA	986.2	NA	NA		M	NA	NA	NA	NA
2017/03/18 11:42:00	AWS3	2.70	122	3.91	128	M	M	M	NA	NA	986.2	NA	NA		M	NA	NA	NA	NA
2017/03/18 11:43:00	AWS3	3.08	132	3.91	128	M	M	M	NA	NA	986.2	NA	NA		M	NA	NA	NA	NA
2017/03/18 11:44:00	AWS3	2.78	124	3.91	128	M	M	M	NA	NA	986.2	NA	NA		M	NA	NA	NA	NA
2017/03/18 11:45:00	AWS3	2.02	108	3.91	128	M	M	M	NA	NA	986.3	NA	NA		M	NA	NA	NA	NA
2017/03/18 11:46:00	AWS3	0.94	91	3.91	128	M	M	M	NA	NA	986.3	NA	NA		M	NA	NA	NA	NA
2017/03/18 11:47:00	AWS3	0.88	95	3.91	128	M	M	M	NA	NA	986.3	NA	NA		M	NA	NA	NA	NA
2017/03/18 11:48:00	AWS3	2.14	122	3.91	128	M	M	M	NA	NA	986.2	NA	NA		M	NA	NA	NA	NA
2017/03/18 11:49:00	AWS3	3.18	131	3.91	128	M	M	M	NA	NA	986.2	NA	NA		M	NA	NA	NA	NA
2017/03/18 11:50:00	AWS3	3.05	121	3.91	128	M	M	M	NA	NA	986.3	NA	NA		M	NA	NA	NA	NA
2017/03/18 11:51:00	AWS3	2.46	110	3.91	128	M	M	M	NA	NA	986.3	NA	NA		M	NA	NA	NA	NA
2017/03/18 11:52:00	AWS3	2.21	128	3.81	140	M	M	M	NA	NA	986.3	NA	NA		M	NA	NA	NA	NA
2017/03/18 11:53:00	AWS3	2.50	145	3.60	128	M	M	M	NA	NA	986.2	NA	NA		M	NA	NA	NA	NA
2017/03/18 11:54:00	AWS3	2.74	131	3.60	128	M	M	M	NA	NA	986.3	NA	NA		M	NA	NA	NA	NA
2017/03/18 11:55:00	AWS3	2.80	128	3.60	128	M	M	M	NA	NA	986.3	NA	NA		M	NA	NA	NA	NA
2017/03/18 11:56:00	AWS3	2.37	142	3.60	128	M	M	M	NA	NA	986.3	NA	NA		M	NA	NA	NA	NA
2017/03/18 11:57:00	AWS3	1.55	150	3.60	128	M	M	M	NA	NA	986.3	NA	NA		M	NA	NA	NA	NA
2017/03/18 11:58:00	AWS3	1.69	154	3.60	128	M	M	M	NA	NA	986.3	NA	NA		M	NA	NA	NA	NA
2017/03/18 11:59:00	AWS3	2.64	157	4.17	153	M	M	M	NA	NA	986.2	NA	NA		M	NA	NA	NA	NA
2017/03/18 12:00:00	AWS3	2.86	149	4.17	153	M	M	M	NA	NA	986.2	NA	NA		M	NA	NA	NA	NA
2017/03/18 12:01:00	AWS3	2.60	135	4.17	153	M	M	M	NA	NA	986.3	NA	NA		M	NA	NA	NA	NA
2017/03/18 12:02:00	AWS3	2.47	136	4.17	153	M	M	M	NA	NA	986.3	NA	NA		M	NA	NA	NA	NA
2017/03/18 12:03:00	AWS3	2.23	150	4.17	153	M	M	M	NA	NA	986.3	NA	NA		M	NA	NA	NA	NA
2017/03/18 12:04:00	AWS3	2.09	159	4.17	153	M	M	M	NA	NA	986.3	NA	NA		M	NA	NA	NA	NA
2017/03/18 12:05:00	AWS3	1.95	171	4.17	153	M	M	M	NA	NA	986.3	NA	NA		M	NA	NA	NA	NA
2017/03/18 12:06:00	AWS3	2.09	187	4.17	153	M	M	M	NA	NA	986.3	NA	NA		M	NA	NA	NA	NA
2017/03/18 12:07:00	AWS3	2.53	191	4.17	153	M	M	M	NA	NA	986.2	NA	NA		M	NA	NA	NA	NA
2017/03/18 12:08:00	AWS3	2.82	188	4.17	153	M	M	M	NA	NA	986.2	NA	NA		M	NA	NA	NA	NA
2017/03/18 12:09:00	AWS3	2.47	182	3.29	159	M	M	M	NA	NA	986.3	NA	NA		M	NA	NA	NA	NA
2017/03/18 12:10:00	AWS3	1.84	171	3.09	185	M	M	M	NA	NA	986.3	NA	NA		M	NA	NA	NA	NA
2017/03/18 12:11:00	AWS3	1.70	163	3.09	185	M	M	M	NA	NA	986.3	NA	NA		M	NA	NA	NA	NA
2017/03/18 12:12:00	AWS3	2.28	168	3.09	171	M	M	M	NA	NA	986.3	NA	NA		M	NA	NA	NA	NA
2017/03/18 12:13:00	AWS3	2.60	174	3.09	171	M	M	M	NA	NA	986.3	NA	NA		M	NA	NA	NA	NA
2017/03/18 12:14:00	AWS3	2.69	170	3.19	159	M	M	M	NA	NA	986.3	NA	NA		M	NA	NA	NA	NA
2017/03/18 12:15:00	AWS3	2.88	165	3.34	162	M	M	M	NA	NA	986.3	NA	NA		M	NA	NA	NA	NA
2017/03/18 12:16:00	AWS3	2.57	163	3.34	162	M	M	M	NA	NA	986.3	NA	NA		M	NA	NA	NA	NA
2017/03/18 12:17:00	AWS3	2.21	158	3.34	162	M	M	M	NA	NA	986.3	NA	NA		M	NA	NA	NA	NA
2017/03/18 12:18:00	AWS3	2.07	153	3.34	162	M	M	M	NA	NA	986.3	NA	NA		M	NA	NA	NA	NA
2017/03/18 12:19:00	AWS3	1.97	142	3.34	162	M	M	M	NA	NA	986.3	NA	NA		M	NA	NA	NA	NA
2017/03/18 12:20:00	AWS3	2.11	137	3.34	162	M	M	M	NA	NA	986.3	NA	NA		M	NA	NA	NA	NA
2017/03/18 12:21:00	AWS3	2.25	144	3.34	162	M	M	M	NA	NA	986.3	NA	NA		M	NA	NA	NA	NA
2017/03/18 12:22:00	AWS3	2.38	152	3.34	162	M	M	M	NA	NA	986.3	NA	NA		M	NA	NA	NA	NA
2017/03/18 12:23:00	AWS3	2.61	152	3.34	162	M	M	M	NA	NA	986.3	NA	NA		M	NA	NA	NA	NA
2017/03/18 12:24:00	AWS3	2.64	147	3.34	162	M	M	M	NA	NA	986.3	NA	NA		M	NA	NA	NA	NA
2017/03/18 12:25:00	AWS3	2.70	142	2.98	138	M	M	M	NA	NA	986.3	NA	NA		M	NA	NA	NA	NA
2017/03/18 12:26:00	AWS3	2.80	142	3.09	141	M	M	M	NA	NA	986.3	NA	NA		M	NA	NA	NA	NA
2017/03/18 12:27:00	AWS3	2.73	141	3.09	141	M	M	M	NA	NA	986.3	NA	NA		M	NA	NA	NA	NA
2017/03/18 12:28:00	AWS3	2.60	136	3.09	141	M	M	M	NA	NA	986.3	NA	NA		M	NA	NA	NA	NA
2017/03/18 12:29:00	AWS3	2.65	133	3.45	126	M	M	M	NA	NA	986.3	NA	NA		M	NA	NA	NA	NA
2017/03/18 12:30:00	AWS3	2.90	129	3.45	126	M	M	M	NA	NA	986.2	NA	NA		M	NA	NA	NA	NA
2017/03/18 12:31:00	AWS3	2.73	125	3.45	126	M	M	M	NA	NA	986.3	NA	NA		M	NA	NA	NA	NA
2017/03/18 12:32:00	AWS3	2.17	125	3.45	126	M	M	M	NA	NA	986.3	NA	NA		M	NA	NA	NA	NA
2017/03/18 12:33:00	AWS3	1.97	126	3.45	126	M	M	M	NA	NA	986.3	NA	NA		M	NA	NA	NA	NA
2017/03/18 12:34:00	AWS3	2.02	127	3.45	126	M	M	M	NA	NA	986.3	NA	NA		M	NA	NA	NA	NA
2017/03/18 12:35:00	AWS3	1.97	130	3.45	126	M	M	M	NA	NA	986.3	NA	NA		M	NA	NA	NA	NA
2017/03/18 12:36:00	AWS3	1.80	128	3.45	126	M	M	M	NA	NA	986.3	NA	NA		M	NA	NA	NA	NA
2017/03/18 12:37:00	AWS3	1.39	133	3.45	126	M	M	M	NA	NA	986.3	NA	NA		M	NA	NA	NA	NA
2017/03/18 12:38:00	AWS3	1.30	148	3.45	126	M	M	M	NA	NA	986.3	NA	NA		M	NA	NA	NA	NA
2017/03/18 12:39:00	AWS3	1.55	159	3.29	127	M	M	M	NA	NA	986.3	NA	NA		M	NA	NA	NA	NA
2017/03/18 12:40:00	AWS3	1.43	161	2.68	124	M	M	M	NA	NA	986.3	NA	NA		M	NA	NA	NA	NA
2017/03/18 12:41:00	AWS3	1.47	152	2.26	127	M	M	M	NA	NA	986.3	NA	NA		M	NA	NA	NA	NA
2017/03/18 12:42:00	AWS3	1.36	141	2.26	127	M	M	M	NA	NA	986.3	NA	NA		M	NA	NA	NA	NA
2017/03/18 12:43:00	AWS3	1.01	119	2.26	127	M	M	M	NA	NA	986.3	NA	NA		M	NA	NA	NA	NA
2017/03/18 12:44:00	AWS3	1.06	110	2.21	160	M	M	M	NA	NA	986.3	NA	NA		M	NA	NA	NA	NA
2017/03/18 12:45:00	AWS3	0.69	116	2.21	160	M	M	M	NA	NA	986.3	NA	NA		M	NA	NA	NA	NA
2017/03/18 12:46:00	AWS3	0.23	101	2.21	160	M	M	M	NA	NA	986.3	NA	NA		M	NA	NA	NA	NA
2017/03/18 12:47:00	AWS3	0.94	73	2.21	160	M	M	M	NA	NA	986.3	NA	NA		M	NA	NA	NA	NA
2017/03/18 12:48:00	AWS3	1.87	57	2.68	53	M	M	M	NA	NA	986.3	NA	NA		M	NA	NA	NA	NA
2017/03/18 12:49:00	AWS3	2.24	53	2.68	47	M	M	M	NA	NA	986.3	NA	NA		M	NA	NA	NA	NA
2017/03/18 12:50:00	AWS3	2.07	66	2.68	47	M	M	M	NA	NA	986.3	NA	NA		M	NA	NA	NA	NA
2017/03/18 12:51:00	AWS3	1.49	83	2.68	47	M	M	M	NA	NA	986.3	NA	NA		M	NA	NA	NA	NA
2017/03/18 12:52:00	AWS3	0.84	86	2.68	47	M	M	M	NA	NA	986.3	NA	NA		M	NA	NA	NA	NA
2017/03/18 12:53:00	AWS3	1.15	75	2.68	47	M	M	M	NA	NA	986.3	NA	NA		M	NA	NA	NA	NA
2017/03/18 12:54:00	AWS3	2.06	75	2.68	47	M	M	M	NA	NA	986.3	NA	NA		M	NA	NA	NA	NA
2017/03/18 12:55:00	AWS3	1.73	101	2.68	47	M	M	M	NA	NA	986.3	NA	NA		M	NA	NA	NA	NA
2017/03/18 12:56:00	AWS3	1.88	137	3.24	154	M	M	M	NA	NA	986.3	NA	NA		M	NA	NA	NA	NA
2017/03/18 12:57:00	AWS3	2.45	148	3.24	154	M	M	M	NA	NA	986.2	NA	NA		M	NA	NA	NA	NA
2017/03/18 12:58:00	AWS3	1.90	134	3.24	154	M	M	M	NA	NA	986.3	NA	NA		M	NA	NA	NA	NA
2017/03/18 12:59:00	AWS3	1.56	129	3.24	154	M	M	M	NA	NA	986.3	NA	NA		M	NA	NA	NA	NA
2017/03/18 13:00:00	AWS3	1.66	137	3.24	154	M	M	M	NA	NA	986.3	NA	NA		M	NA	NA	NA	NA
2017/03/18 13:01:00	AWS3	1.68	140	3.24	154	M	M	M	NA	NA	986.3	NA	NA		M	NA	NA	NA	NA
2017/03/18 13:02:00	AWS3	1.54	145	3.24	154	M	M	M	NA	NA	986.3	NA	NA		M	NA	NA	NA	NA
2017/03/18 13:03:00	AWS3	1.54	154	3.24	154	M	M	M	NA	NA	986.3	NA	NA		M	NA	NA	NA	NA
2017/03/18 13:04:00	AWS3	1.58	155	3.24	154	M	M	M	NA	NA	986.3	NA	NA		M	NA	NA	NA	NA
2017/03/18 13:05:00	AWS3	1.47	150	3.24	154	M	M	M	NA	NA	986.3	NA	NA		M	NA	NA	NA	NA
2017/03/18 13:06:00	AWS3	1.08	147	2.78	148	M	M	M	NA	NA	986.3	NA	NA		M	NA	NA	NA	NA
2017/03/18 13:07:00	AWS3	0.81	145	2.06	122	M	M	M	NA	NA	986.3	NA	NA		M	NA	NA	NA	NA
2017/03/18 13:08:00	AWS3	0.44	157	2.06	122	M	M	M	NA	NA	986.3	NA	NA		M	NA	NA	NA	NA
2017/03/18 13:09:00	AWS3	0.00	166	1.95	152	M	M	M	NA	NA	986.4	NA	NA		M	NA	NA	NA	NA
2017/03/18 13:10:00	AWS3	0.32	148	1.85	155	M	M	M	NA	NA	986.4	NA	NA		M	NA	NA	NA	NA
2017/03/18 13:11:00	AWS3	0.52	128	1.85	155	M	M	M	NA	NA	986.4	NA	NA		M	NA	NA	NA	NA
2017/03/18 13:12:00	AWS3	1.00	121	1.85	115	M	M	M	NA	NA	986.4	NA	NA		M	NA	NA	NA	NA
2017/03/18 13:13:00	AWS3	1.74	123	2.06	120	M	M	M	NA	NA	986.4	NA	NA		M	NA	NA	NA	NA
2017/03/18 13:14:00	AWS3	1.94	126	2.31	127	M	M	M	NA	NA	986.4	NA	NA		M	NA	NA	NA	NA
2017/03/18 13:15:00	AWS3	1.56	132	2.31	127	M	M	M	NA	NA	986.4	NA	NA		M	NA	NA	NA	NA
2017/03/18 13:16:00	AWS3	1.07	134	2.31	127	M	M	M	NA	NA	986.4	NA	NA		M	NA	NA	NA	NA
2017/03/18 13:17:00	AWS3	1.32	138	2.31	127	M	M	M	NA	NA	986.4	NA	NA		M	NA	NA	NA	NA
2017/03/18 13:18:00	AWS3	1.79	145	2.31	127	M	M	M	NA	NA	986.4	NA	NA		M	NA	NA	NA	NA
2017/03/18 13:19:00	AWS3	1.84	150	2.31	127	M	M	M	NA	NA	986.4	NA	NA		M	NA	NA	NA	NA
2017/03/18 13:20:00	AWS3	1.66	153	2.31	127	M	M	M	NA	NA	986.5	NA	NA		M	NA	NA	NA	NA
2017/03/18 13:21:00	AWS3	1.51	160	2.31	127	M	M	M	NA	NA	986.5	NA	NA		M	NA	NA	NA	NA
2017/03/18 13:22:00	AWS3	1.38	170	2.31	127	M	M	M	NA	NA	986.5	NA	NA		M	NA	NA	NA	NA
2017/03/18 13:23:00	AWS3	1.39	174	2.31	127	M	M	M	NA	NA	986.5	NA	NA		M	NA	NA	NA	NA
2017/03/18 13:24:00	AWS3	1.45	177	2.11	151	M	M	M	NA	NA	986.4	NA	NA		M	NA	NA	NA	NA
2017/03/18 13:25:00	AWS3	1.54	179	2.11	151	M	M	M	NA	NA	986.4	NA	NA		M	NA	NA	NA	NA
2017/03/18 13:26:00	AWS3	1.52	171	2.11	151	M	M	M	NA	NA	986.4	NA	NA		M	NA	NA	NA	NA
2017/03/18 13:27:00	AWS3	1.41	164	2.11	151	M	M	M	NA	NA	986.5	NA	NA		M	NA	NA	NA	NA
2017/03/18 13:28:00	AWS3	1.60	159	2.21	159	M	M	M	NA	NA	986.5	NA	NA		M	NA	NA	NA	NA
2017/03/18 13:29:00	AWS3	1.71	157	2.21	159	M	M	M	NA	NA	986.5	NA	NA		M	NA	NA	NA	NA
2017/03/18 13:30:00	AWS3	1.58	151	2.21	159	M	M	M	NA	NA	986.5	NA	NA		M	NA	NA	NA	NA
2017/03/18 13:31:00	AWS3	1.48	144	2.21	159	M	M	M	NA	NA	986.5	NA	NA		M	NA	NA	NA	NA
2017/03/18 13:32:00	AWS3	1.12	139	2.21	159	M	M	M	NA	NA	986.5	NA	NA		M	NA	NA	NA	NA
2017/03/18 13:33:00	AWS3	0.94	136	2.21	159	M	M	M	NA	NA	986.5	NA	NA		M	NA	NA	NA	NA
2017/03/18 13:34:00	AWS3	1.27	138	2.21	159	M	M	M	NA	NA	986.5	NA	NA		M	NA	NA	NA	NA
2017/03/18 13:35:00	AWS3	1.35	144	2.21	159	M	M	M	NA	NA	986.5	NA	NA		M	NA	NA	NA	NA
2017/03/18 13:36:00	AWS3	1.13	149	2.21	159	M	M	M	NA	NA	986.5	NA	NA		M	NA	NA	NA	NA
2017/03/18 13:37:00	AWS3	1.32	155	2.21	159	M	M	M	NA	NA	986.6	NA	NA		M	NA	NA	NA	NA
2017/03/18 13:38:00	AWS3	1.38	162	1.85	154	M	M	M	NA	NA	986.6	NA	NA		M	NA	NA	NA	NA
2017/03/18 13:39:00	AWS3	0.67	164	1.70	159	M	M	M	NA	NA	986.6	NA	NA		M	NA	NA	NA	NA
2017/03/18 13:40:00	AWS3	0.34	163	1.70	159	M	M	M	NA	NA	986.6	NA	NA		M	NA	NA	NA	NA
2017/03/18 13:41:00	AWS3	0.69	167	1.70	159	M	M	M	NA	NA	986.6	NA	NA		M	NA	NA	NA	NA
2017/03/18 13:42:00	AWS3	1.22	172	1.75	176	M	M	M	NA	NA	986.6	NA	NA		M	NA	NA	NA	NA
2017/03/18 13:43:00	AWS3	1.53	170	1.75	176	M	M	M	NA	NA	986.6	NA	NA		M	NA	NA	NA	NA
2017/03/18 13:44:00	AWS3	1.19	165	1.75	176	M	M	M	NA	NA	986.6	NA	NA		M	NA	NA	NA	NA
2017/03/18 13:45:00	AWS3	0.48	162	1.75	176	M	M	M	NA	NA	986.6	NA	NA		M	NA	NA	NA	NA
2017/03/18 13:46:00	AWS3	0.27	165	1.75	176	M	M	M	NA	NA	986.6	NA	NA		M	NA	NA	NA	NA
2017/03/18 13:47:00	AWS3	0.82	173	1.75	176	M	M	M	NA	NA	986.6	NA	NA		M	NA	NA	NA	NA
2017/03/18 13:48:00	AWS3	0.85	179	1.75	176	M	M	M	NA	NA	986.7	NA	NA		M	NA	NA	NA	NA
2017/03/18 13:49:00	AWS3	0.25	177	1.75	176	M	M	M	NA	NA	986.7	NA	NA		M	NA	NA	NA	NA
2017/03/18 13:50:00	AWS3	0.00	171	1.75	176	M	M	M	NA	NA	986.7	NA	NA		M	NA	NA	NA	NA
2017/03/18 13:51:00	AWS3	0.00	156	1.75	176	M	M	M	NA	NA	986.7	NA	NA		M	NA	NA	NA	NA
2017/03/18 13:52:00	AWS3	0.09	136	1.65	164	M	M	M	NA	NA	986.7	NA	NA		M	NA	NA	NA	NA
2017/03/18 13:53:00	AWS3	0.18	130	1.54	176	M	M	M	NA	NA	986.7	NA	NA		M	NA	NA	NA	NA
2017/03/18 13:54:00	AWS3	0.10	134	1.54	176	M	M	M	NA	NA	986.7	NA	NA		M	NA	NA	NA	NA
2017/03/18 13:55:00	AWS3	0.00	138	1.54	176	M	M	M	NA	NA	986.7	NA	NA		M	NA	NA	NA	NA
2017/03/18 13:56:00	AWS3	0.00	140	1.54	176	M	M	M	NA	NA	986.7	NA	NA		M	NA	NA	NA	NA
2017/03/18 13:57:00	AWS3	0.00	143	1.23	177	M	M	M	NA	NA	986.7	NA	NA		M	NA	NA	NA	NA
2017/03/18 13:58:00	AWS3	0.00	146	1.18	132	M	M	M	NA	NA	986.7	NA	NA		M	NA	NA	NA	NA
2017/03/18 13:59:00	AWS3	0.00	144	1.18	132	M	M	M	NA	NA	986.7	NA	NA		M	NA	NA	NA	NA
2017/03/18 14:00:00	AWS3	0.00	135	1.18	132	M	M	M	NA	NA	986.7	NA	NA		M	NA	NA	NA	NA
2017/03/18 14:01:00	AWS3	0.00	126	1.18	132	M	M	M	NA	NA	986.8	NA	NA		M	NA	NA	NA	NA
2017/03/18 14:02:00	AWS3	0.09	120	1.18	132	M	M	M	NA	NA	986.8	NA	NA		M	NA	NA	NA	NA
2017/03/18 14:03:00	AWS3	0.09	110	1.13	115	M	M	M	NA	NA	986.8	NA	NA		M	NA	NA	NA	NA
2017/03/18 14:04:00	AWS3	0.00	89	1.13	115	M	M	M	NA	NA	986.8	NA	NA		M	NA	NA	NA	NA
2017/03/18 14:05:00	AWS3	0.00	83	1.13	115	M	M	M	NA	NA	986.8	NA	NA		M	NA	NA	NA	NA
2017/03/18 14:06:00	AWS3	0.00	87	1.13	115	M	M	M	NA	NA	986.8	NA	NA		M	NA	NA	NA	NA
2017/03/18 14:07:00	AWS3	0.00	75	1.13	115	M	M	M	NA	NA	986.8	NA	NA		M	NA	NA	NA	NA
2017/03/18 14:08:00	AWS3	0.00	67	1.13	115	M	M	M	NA	NA	986.8	NA	NA		M	NA	NA	NA	NA
2017/03/18 14:09:00	AWS3	0.00	54	1.13	115	M	M	M	NA	NA	986.8	NA	NA		M	NA	NA	NA	NA
2017/03/18 14:10:00	AWS3	0.00	36	1.13	115	M	M	M	NA	NA	986.8	NA	NA		M	NA	NA	NA	NA
2017/03/18 14:11:00	AWS3	0.00	36	1.13	115	M	M	M	NA	NA	986.8	NA	NA		M	NA	NA	NA	NA
2017/03/18 14:12:00	AWS3	0.00	51	M	M	M	M	M	NA	NA	986.8	NA	NA		M	NA	NA	NA	NA
2017/03/18 14:13:00	AWS3	0.00	54	M	M	M	M	M	NA	NA	986.8	NA	NA		M	NA	NA	NA	NA
2017/03/18 14:14:00	AWS3	0.00	45	M	M	M	M	M	NA	NA	986.8	NA	NA		M	NA	NA	NA	NA
2017/03/18 14:15:00	AWS3	0.00	41	M	M	M	M	M	NA	NA	986.8	NA	NA		M	NA	NA	NA	NA
2017/03/18 14:16:00	AWS3	0.00	37	M	M	M	M	M	NA	NA	986.8	NA	NA		M	NA	NA	NA	NA
2017/03/18 14:17:00	AWS3	0.00	37	M	M	M	M	M	NA	NA	986.8	NA	NA		M	NA	NA	NA	NA
2017/03/18 14:18:00	AWS3	0.00	54	M	M	M	M	M	NA	NA	986.8	NA	NA		M	NA	NA	NA	NA
2017/03/18 14:19:00	AWS3	0.00	76	M	M	M	M	M	NA	NA	986.8	NA	NA		M	NA	NA	NA	NA
2017/03/18 14:20:00	AWS3	0.00	84	M	M	M	M	M	NA	NA	986.8	NA	NA		M	NA	NA	NA	NA
2017/03/18 14:21:00	AWS3	0.00	90	M	M	M	M	M	NA	NA	986.8	NA	NA		M	NA	NA	NA	NA
2017/03/18 14:22:00	AWS3	0.00	87	M	M	M	M	M	NA	NA	986.9	NA	NA		M	NA	NA	NA	NA
2017/03/18 14:23:00	AWS3	0.00	75	M	M	M	M	M	NA	NA	986.9	NA	NA		M	NA	NA	NA	NA
2017/03/18 14:24:00	AWS3	0.00	71	M	M	M	M	M	NA	NA	986.9	NA	NA		M	NA	NA	NA	NA
2017/03/18 14:25:00	AWS3	0.00	71	M	M	M	M	M	NA	NA	986.9	NA	NA		M	NA	NA	NA	NA
2017/03/18 14:26:00	AWS3	0.00	71	M	M	M	M	M	NA	NA	986.9	NA	NA		M	NA	NA	NA	NA
2017/03/18 14:27:00	AWS3	0.00	86	M	M	M	M	M	NA	NA	986.9	NA	NA		M	NA	NA	NA	NA
2017/03/18 14:28:00	AWS3	0.00	131	M	M	M	M	M	NA	NA	986.9	NA	NA		M	NA	NA	NA	NA
2017/03/18 14:29:00	AWS3	0.00	163	M	M	M	M	M	NA	NA	986.9	NA	NA		M	NA	NA	NA	NA
2017/03/18 14:30:00	AWS3	0.00	166	M	M	M	M	M	NA	NA	986.9	NA	NA		M	NA	NA	NA	NA
2017/03/18 14:31:00	AWS3	0.00	166	M	M	M	M	M	NA	NA	986.9	NA	NA		M	NA	NA	NA	NA
2017/03/18 14:32:00	AWS3	0.00	166	M	M	M	M	M	NA	NA	986.9	NA	NA		M	NA	NA	NA	NA
2017/03/18 14:33:00	AWS3	0.00	166	M	M	M	M	M	NA	NA	986.9	NA	NA		M	NA	NA	NA	NA
2017/03/18 14:34:00	AWS3	0.00	183	M	M	M	M	M	NA	NA	986.9	NA	NA		M	NA	NA	NA	NA
2017/03/18 14:35:00	AWS3	0.00	218	M	M	M	M	M	NA	NA	986.9	NA	NA		M	NA	NA	NA	NA
2017/03/18 14:36:00	AWS3	0.00	227	M	M	M	M	M	NA	NA	986.9	NA	NA		M	NA	NA	NA	NA
2017/03/18 14:37:00	AWS3	0.00	221	M	M	M	M	M	NA	NA	986.9	NA	NA		M	NA	NA	NA	NA
2017/03/18 14:38:00	AWS3	0.00	220	M	M	M	M	M	NA	NA	986.9	NA	NA		M	NA	NA	NA	NA
2017/03/18 14:39:00	AWS3	0.00	220	M	M	M	M	M	NA	NA	986.9	NA	NA		M	NA	NA	NA	NA
2017/03/18 14:40:00	AWS3	0.00	220	M	M	M	M	M	NA	NA	986.9	NA	NA		M	NA	NA	NA	NA
2017/03/18 14:41:00	AWS3	0.00	220	M	M	M	M	M	NA	NA	986.9	NA	NA		M	NA	NA	NA	NA
2017/03/18 14:42:00	AWS3	0.00	220	M	M	M	M	M	NA	NA	986.9	NA	NA		M	NA	NA	NA	NA
2017/03/18 14:43:00	AWS3	0.00	223	M	M	M	M	M	NA	NA	986.9	NA	NA		M	NA	NA	NA	NA
2017/03/18 14:44:00	AWS3	0.00	233	M	M	M	M	M	NA	NA	986.9	NA	NA		M	NA	NA	NA	NA
2017/03/18 14:45:00	AWS3	0.00	239	M	M	M	M	M	NA	NA	986.9	NA	NA		M	NA	NA	NA	NA
2017/03/18 14:46:00	AWS3	0.20	226	1.23	205	M	M	M	NA	NA	986.9	NA	NA		M	NA	NA	NA	NA
2017/03/18 14:47:00	AWS3	0.88	207	1.54	200	M	M	M	NA	NA	986.9	NA	NA		M	NA	NA	NA	NA
2017/03/18 14:48:00	AWS3	1.34	195	1.54	200	M	M	M	NA	NA	986.9	NA	NA		M	NA	NA	NA	NA
2017/03/18 14:49:00	AWS3	0.69	187	1.54	200	M	M	M	NA	NA	986.9	NA	NA		M	NA	NA	NA	NA
2017/03/18 14:50:00	AWS3	0.05	184	1.54	200	M	M	M	NA	NA	986.9	NA	NA		M	NA	NA	NA	NA
2017/03/18 14:51:00	AWS3	0.00	185	1.54	200	M	M	M	NA	NA	986.9	NA	NA		M	NA	NA	NA	NA
2017/03/18 14:52:00	AWS3	0.26	181	1.54	200	M	M	M	NA	NA	986.9	NA	NA		M	NA	NA	NA	NA
2017/03/18 14:53:00	AWS3	0.93	170	1.54	200	M	M	M	NA	NA	986.9	NA	NA		M	NA	NA	NA	NA
2017/03/18 14:54:00	AWS3	1.31	160	1.54	200	M	M	M	NA	NA	986.9	NA	NA		M	NA	NA	NA	NA
2017/03/18 14:55:00	AWS3	0.78	135	1.54	200	M	M	M	NA	NA	986.9	NA	NA		M	NA	NA	NA	NA
2017/03/18 14:56:00	AWS3	0.20	89	1.54	200	M	M	M	NA	NA	986.9	NA	NA		M	NA	NA	NA	NA
2017/03/18 14:57:00	AWS3	0.05	67	1.44	161	M	M	M	NA	NA	986.9	NA	NA		M	NA	NA	NA	NA
2017/03/18 14:58:00	AWS3	0.00	77	1.44	161	M	M	M	NA	NA	986.9	NA	NA		M	NA	NA	NA	NA
2017/03/18 14:59:00	AWS3	0.00	111	1.44	161	M	M	M	NA	NA	987.0	NA	NA		M	NA	NA	NA	NA
2017/03/18 15:00:00	AWS3	0.00	142	1.44	161	M	M	M	NA	NA	987.0	NA	NA		M	NA	NA	NA	NA
2017/03/18 15:01:00	AWS3	0.00	183	1.44	161	M	M	M	NA	NA	987.0	NA	NA		M	NA	NA	NA	NA
2017/03/18 15:02:00	AWS3	0.05	248	1.44	161	M	M	M	NA	NA	987.0	NA	NA		M	NA	NA	NA	NA
2017/03/18 15:03:00	AWS3	0.05	272	1.39	157	M	M	M	NA	NA	987.0	NA	NA		M	NA	NA	NA	NA
2017/03/18 15:04:00	AWS3	0.00	263	1.29	282	M	M	M	NA	NA	987.0	NA	NA		M	NA	NA	NA	NA
2017/03/18 15:05:00	AWS3	0.00	248	1.29	282	M	M	M	NA	NA	987.0	NA	NA		M	NA	NA	NA	NA
2017/03/18 15:06:00	AWS3	0.00	221	1.29	282	M	M	M	NA	NA	987.0	NA	NA		M	NA	NA	NA	NA
2017/03/18 15:07:00	AWS3	0.10	198	1.34	189	M	M	M	NA	NA	987.0	NA	NA		M	NA	NA	NA	NA
2017/03/18 15:08:00	AWS3	0.10	193	1.34	189	M	M	M	NA	NA	987.0	NA	NA		M	NA	NA	NA	NA
2017/03/18 15:09:00	AWS3	0.00	187	1.34	189	M	M	M	NA	NA	987.0	NA	NA		M	NA	NA	NA	NA
2017/03/18 15:10:00	AWS3	0.00	168	1.34	189	M	M	M	NA	NA	987.0	NA	NA		M	NA	NA	NA	NA
2017/03/18 15:11:00	AWS3	0.00	158	1.34	189	M	M	M	NA	NA	987.0	NA	NA		M	NA	NA	NA	NA
2017/03/18 15:12:00	AWS3	0.00	165	1.34	189	M	M	M	NA	NA	987.0	NA	NA		M	NA	NA	NA	NA
2017/03/18 15:13:00	AWS3	0.00	174	1.34	189	M	M	M	NA	NA	987.0	NA	NA		M	NA	NA	NA	NA
2017/03/18 15:14:00	AWS3	0.00	193	1.34	189	M	M	M	NA	NA	987.0	NA	NA		M	NA	NA	NA	NA
2017/03/18 15:15:00	AWS3	0.00	227	1.34	189	M	M	M	NA	NA	987.0	NA	NA		M	NA	NA	NA	NA
2017/03/18 15:16:00	AWS3	0.00	236	1.34	189	M	M	M	NA	NA	987.0	NA	NA		M	NA	NA	NA	NA
2017/03/18 15:17:00	AWS3	0.00	225	M	M	M	M	M	NA	NA	987.0	NA	NA		M	NA	NA	NA	NA
2017/03/18 15:18:00	AWS3	0.66	215	1.44	206	M	M	M	NA	NA	987.0	NA	NA		M	NA	NA	NA	NA
2017/03/18 15:19:00	AWS3	1.27	204	1.44	198	M	M	M	NA	NA	987.0	NA	NA		M	NA	NA	NA	NA
2017/03/18 15:20:00	AWS3	1.31	195	1.49	196	M	M	M	NA	NA	987.0	NA	NA		M	NA	NA	NA	NA
2017/03/18 15:21:00	AWS3	1.28	189	1.49	196	M	M	M	NA	NA	987.1	NA	NA		M	NA	NA	NA	NA
2017/03/18 15:22:00	AWS3	1.28	184	1.49	196	M	M	M	NA	NA	987.1	NA	NA		M	NA	NA	NA	NA
2017/03/18 15:23:00	AWS3	1.43	183	1.59	181	M	M	M	NA	NA	987.1	NA	NA		M	NA	NA	NA	NA
2017/03/18 15:24:00	AWS3	1.59	181	1.80	179	M	M	M	NA	NA	987.1	NA	NA		M	NA	NA	NA	NA
2017/03/18 15:25:00	AWS3	1.71	179	1.80	179	M	M	M	NA	NA	987.1	NA	NA		M	NA	NA	NA	NA
2017/03/18 15:26:00	AWS3	1.62	176	1.80	179	M	M	M	NA	NA	987.1	NA	NA		M	NA	NA	NA	NA
2017/03/18 15:27:00	AWS3	1.49	171	1.80	179	M	M	M	NA	NA	987.1	NA	NA		M	NA	NA	NA	NA
2017/03/18 15:28:00	AWS3	1.28	164	1.80	179	M	M	M	NA	NA	987.1	NA	NA		M	NA	NA	NA	NA
2017/03/18 15:29:00	AWS3	1.22	156	1.80	179	M	M	M	NA	NA	987.1	NA	NA		M	NA	NA	NA	NA
2017/03/18 15:30:00	AWS3	1.33	151	1.80	179	M	M	M	NA	NA	987.2	NA	NA		M	NA	NA	NA	NA
2017/03/18 15:31:00	AWS3	0.81	148	1.80	179	M	M	M	NA	NA	987.2	NA	NA		M	NA	NA	NA	NA
2017/03/18 15:32:00	AWS3	0.79	144	1.80	179	M	M	M	NA	NA	987.2	NA	NA		M	NA	NA	NA	NA
2017/03/18 15:33:00	AWS3	1.23	144	1.80	179	M	M	M	NA	NA	987.2	NA	NA		M	NA	NA	NA	NA
2017/03/18 15:34:00	AWS3	1.02	139	1.75	176	M	M	M	NA	NA	987.2	NA	NA		M	NA	NA	NA	NA
2017/03/18 15:35:00	AWS3	0.75	132	1.70	165	M	M	M	NA	NA	987.2	NA	NA		M	NA	NA	NA	NA
2017/03/18 15:36:00	AWS3	0.82	130	1.70	165	M	M	M	NA	NA	987.2	NA	NA		M	NA	NA	NA	NA
2017/03/18 15:37:00	AWS3	0.76	126	1.59	164	M	M	M	NA	NA	987.2	NA	NA		M	NA	NA	NA	NA
2017/03/18 15:38:00	AWS3	0.31	121	1.44	142	M	M	M	NA	NA	987.2	NA	NA		M	NA	NA	NA	NA
2017/03/18 15:39:00	AWS3	0.05	115	1.44	142	M	M	M	NA	NA	987.2	NA	NA		M	NA	NA	NA	NA
2017/03/18 15:40:00	AWS3	0.00	112	1.44	142	M	M	M	NA	NA	987.2	NA	NA		M	NA	NA	NA	NA
2017/03/18 15:41:00	AWS3	0.00	100	1.44	142	M	M	M	NA	NA	987.2	NA	NA		M	NA	NA	NA	NA
2017/03/18 15:42:00	AWS3	0.00	99	1.44	142	M	M	M	NA	NA	987.3	NA	NA		M	NA	NA	NA	NA
2017/03/18 15:43:00	AWS3	0.00	106	1.44	142	M	M	M	NA	NA	987.3	NA	NA		M	NA	NA	NA	NA
2017/03/18 15:44:00	AWS3	0.00	100	1.39	118	M	M	M	NA	NA	987.3	NA	NA		M	NA	NA	NA	NA
2017/03/18 15:45:00	AWS3	0.00	85	1.39	118	M	M	M	NA	NA	987.3	NA	NA		M	NA	NA	NA	NA
2017/03/18 15:46:00	AWS3	0.09	69	1.39	118	M	M	M	NA	NA	987.3	NA	NA		M	NA	NA	NA	NA
2017/03/18 15:47:00	AWS3	0.13	62	1.18	117	M	M	M	NA	NA	987.3	NA	NA		M	NA	NA	NA	NA
2017/03/18 15:48:00	AWS3	0.38	56	1.18	51	M	M	M	NA	NA	987.3	NA	NA		M	NA	NA	NA	NA
2017/03/18 15:49:00	AWS3	0.95	52	1.29	46	M	M	M	NA	NA	987.3	NA	NA		M	NA	NA	NA	NA
2017/03/18 15:50:00	AWS3	1.26	43	1.34	35	M	M	M	NA	NA	987.3	NA	NA		M	NA	NA	NA	NA
2017/03/18 15:51:00	AWS3	1.22	35	1.34	35	M	M	M	NA	NA	987.3	NA	NA		M	NA	NA	NA	NA
2017/03/18 15:52:00	AWS3	0.59	35	1.34	35	M	M	M	NA	NA	987.3	NA	NA		M	NA	NA	NA	NA
2017/03/18 15:53:00	AWS3	0.00	36	1.34	35	M	M	M	NA	NA	987.3	NA	NA		M	NA	NA	NA	NA
2017/03/18 15:54:00	AWS3	0.00	36	1.34	35	M	M	M	NA	NA	987.3	NA	NA		M	NA	NA	NA	NA
2017/03/18 15:55:00	AWS3	0.00	37	1.34	35	M	M	M	NA	NA	987.3	NA	NA		M	NA	NA	NA	NA
2017/03/18 15:56:00	AWS3	0.00	42	1.34	35	M	M	M	NA	NA	987.3	NA	NA		M	NA	NA	NA	NA
2017/03/18 15:57:00	AWS3	0.00	46	1.34	35	M	M	M	NA	NA	987.3	NA	NA		M	NA	NA	NA	NA
2017/03/18 15:58:00	AWS3	0.00	49	1.34	35	M	M	M	NA	NA	987.3	NA	NA		M	NA	NA	NA	NA
2017/03/18 15:59:00	AWS3	0.00	52	1.34	35	M	M	M	NA	NA	987.3	NA	NA		M	NA	NA	NA	NA
2017/03/18 16:00:00	AWS3	0.00	52	1.23	35	M	M	M	NA	NA	987.3	NA	NA		M	NA	NA	NA	NA
2017/03/18 16:01:00	AWS3	0.00	50	M	M	M	M	M	NA	NA	987.3	NA	NA		M	NA	NA	NA	NA
2017/03/18 16:02:00	AWS3	0.18	50	1.08	49	M	M	M	NA	NA	987.3	NA	NA		M	NA	NA	NA	NA
2017/03/18 16:03:00	AWS3	0.18	52	1.08	49	M	M	M	NA	NA	987.3	NA	NA		M	NA	NA	NA	NA
2017/03/18 16:04:00	AWS3	0.00	54	1.08	49	M	M	M	NA	NA	987.3	NA	NA		M	NA	NA	NA	NA
2017/03/18 16:05:00	AWS3	0.00	54	1.08	49	M	M	M	NA	NA	987.3	NA	NA		M	NA	NA	NA	NA
2017/03/18 16:06:00	AWS3	0.00	53	1.08	49	M	M	M	NA	NA	987.3	NA	NA		M	NA	NA	NA	NA
2017/03/18 16:07:00	AWS3	0.00	54	1.08	49	M	M	M	NA	NA	987.3	NA	NA		M	NA	NA	NA	NA
2017/03/18 16:08:00	AWS3	0.00	57	1.08	49	M	M	M	NA	NA	987.3	NA	NA		M	NA	NA	NA	NA
2017/03/18 16:09:00	AWS3	0.00	58	1.08	49	M	M	M	NA	NA	987.3	NA	NA		M	NA	NA	NA	NA
2017/03/18 16:10:00	AWS3	0.00	59	1.08	49	M	M	M	NA	NA	987.3	NA	NA		M	NA	NA	NA	NA
2017/03/18 16:11:00	AWS3	0.00	60	1.08	49	M	M	M	NA	NA	987.3	NA	NA		M	NA	NA	NA	NA
2017/03/18 16:12:00	AWS3	0.00	61	M	M	M	M	M	NA	NA	987.3	NA	NA		M	NA	NA	NA	NA
2017/03/18 16:13:00	AWS3	0.00	63	M	M	M	M	M	NA	NA	987.3	NA	NA		M	NA	NA	NA	NA
2017/03/18 16:14:00	AWS3	0.05	66	1.08	66	M	M	M	NA	NA	987.3	NA	NA		M	NA	NA	NA	NA
2017/03/18 16:15:00	AWS3	0.05	70	1.08	66	M	M	M	NA	NA	987.3	NA	NA		M	NA	NA	NA	NA
2017/03/18 16:16:00	AWS3	0.00	73	1.08	66	M	M	M	NA	NA	987.3	NA	NA		M	NA	NA	NA	NA
2017/03/18 16:17:00	AWS3	0.00	75	1.08	66	M	M	M	NA	NA	987.3	NA	NA		M	NA	NA	NA	NA
2017/03/18 16:18:00	AWS3	0.00	74	1.08	66	M	M	M	NA	NA	987.3	NA	NA		M	NA	NA	NA	NA
2017/03/18 16:19:00	AWS3	0.00	71	1.08	66	M	M	M	NA	NA	987.4	NA	NA		M	NA	NA	NA	NA
2017/03/18 16:20:00	AWS3	0.00	67	1.08	66	M	M	M	NA	NA	987.4	NA	NA		M	NA	NA	NA	NA
2017/03/18 16:21:00	AWS3	0.00	73	1.08	66	M	M	M	NA	NA	987.4	NA	NA		M	NA	NA	NA	NA
2017/03/18 16:22:00	AWS3	0.00	92	1.08	66	M	M	M	NA	NA	987.4	NA	NA		M	NA	NA	NA	NA
2017/03/18 16:23:00	AWS3	0.00	84	1.08	66	M	M	M	NA	NA	987.4	NA	NA		M	NA	NA	NA	NA
2017/03/18 16:24:00	AWS3	0.00	78	M	M	M	M	M	NA	NA	987.4	NA	NA		M	NA	NA	NA	NA
2017/03/18 16:25:00	AWS3	0.00	77	M	M	M	M	M	NA	NA	987.4	NA	NA		M	NA	NA	NA	NA
2017/03/18 16:26:00	AWS3	0.05	61	1.29	60	M	M	M	NA	NA	987.4	NA	NA		M	NA	NA	NA	NA
2017/03/18 16:27:00	AWS3	0.48	61	1.29	60	M	M	M	NA	NA	987.4	NA	NA		M	NA	NA	NA	NA
2017/03/18 16:28:00	AWS3	0.72	63	1.29	60	M	M	M	NA	NA	987.4	NA	NA		M	NA	NA	NA	NA
2017/03/18 16:29:00	AWS3	0.61	63	1.39	64	M	M	M	NA	NA	987.4	NA	NA		M	NA	NA	NA	NA
2017/03/18 16:30:00	AWS3	0.99	63	1.54	62	M	M	M	NA	NA	987.4	NA	NA		M	NA	NA	NA	NA
2017/03/18 16:31:00	AWS3	1.50	63	1.85	60	M	M	M	NA	NA	987.4	NA	NA		M	NA	NA	NA	NA
2017/03/18 16:32:00	AWS3	1.83	61	2.11	59	M	M	M	NA	NA	987.4	NA	NA		M	NA	NA	NA	NA
2017/03/18 16:33:00	AWS3	1.98	61	2.11	63	M	M	M	NA	NA	987.4	NA	NA		M	NA	NA	NA	NA
2017/03/18 16:34:00	AWS3	1.60	66	2.11	63	M	M	M	NA	NA	987.4	NA	NA		M	NA	NA	NA	NA
2017/03/18 16:35:00	AWS3	0.77	70	2.11	63	M	M	M	NA	NA	987.4	NA	NA		M	NA	NA	NA	NA
2017/03/18 16:36:00	AWS3	0.30	75	2.11	63	M	M	M	NA	NA	987.5	NA	NA		M	NA	NA	NA	NA
2017/03/18 16:37:00	AWS3	0.34	74	2.11	63	M	M	M	NA	NA	987.5	NA	NA		M	NA	NA	NA	NA
2017/03/18 16:38:00	AWS3	1.12	63	2.11	63	M	M	M	NA	NA	987.5	NA	NA		M	NA	NA	NA	NA
2017/03/18 16:39:00	AWS3	1.78	60	2.11	63	M	M	M	NA	NA	987.5	NA	NA		M	NA	NA	NA	NA
2017/03/18 16:40:00	AWS3	1.57	64	2.11	63	M	M	M	NA	NA	987.5	NA	NA		M	NA	NA	NA	NA
2017/03/18 16:41:00	AWS3	1.26	70	2.11	63	M	M	M	NA	NA	987.5	NA	NA		M	NA	NA	NA	NA
2017/03/18 16:42:00	AWS3	0.95	70	2.11	63	M	M	M	NA	NA	987.5	NA	NA		M	NA	NA	NA	NA
2017/03/18 16:43:00	AWS3	1.02	65	1.95	58	M	M	M	NA	NA	987.5	NA	NA		M	NA	NA	NA	NA
2017/03/18 16:44:00	AWS3	1.47	60	1.95	58	M	M	M	NA	NA	987.5	NA	NA		M	NA	NA	NA	NA
2017/03/18 16:45:00	AWS3	1.76	57	1.95	54	M	M	M	NA	NA	987.5	NA	NA		M	NA	NA	NA	NA
2017/03/18 16:46:00	AWS3	1.87	57	2.06	60	M	M	M	NA	NA	987.6	NA	NA		M	NA	NA	NA	NA
2017/03/18 16:47:00	AWS3	1.95	58	2.06	57	M	M	M	NA	NA	987.6	NA	NA		M	NA	NA	NA	NA
2017/03/18 16:48:00	AWS3	2.00	58	2.11	56	M	M	M	NA	NA	987.6	NA	NA		M	NA	NA	NA	NA
2017/03/18 16:49:00	AWS3	1.93	60	2.11	56	M	M	M	NA	NA	987.6	NA	NA		M	NA	NA	NA	NA
2017/03/18 16:50:00	AWS3	1.82	63	2.11	56	M	M	M	NA	NA	987.6	NA	NA		M	NA	NA	NA	NA
2017/03/18 16:51:00	AWS3	1.56	67	2.11	56	M	M	M	NA	NA	987.6	NA	NA		M	NA	NA	NA	NA
2017/03/18 16:52:00	AWS3	1.31	72	2.11	56	M	M	M	NA	NA	987.6	NA	NA		M	NA	NA	NA	NA
2017/03/18 16:53:00	AWS3	1.24	71	2.11	56	M	M	M	NA	NA	987.6	NA	NA		M	NA	NA	NA	NA
2017/03/18 16:54:00	AWS3	1.12	65	2.11	56	M	M	M	NA	NA	987.6	NA	NA		M	NA	NA	NA	NA
2017/03/18 16:55:00	AWS3	1.33	62	2.11	56	M	M	M	NA	NA	987.6	NA	NA		M	NA	NA	NA	NA
2017/03/18 16:56:00	AWS3	1.26	63	2.11	56	M	M	M	NA	NA	987.6	NA	NA		M	NA	NA	NA	NA
2017/03/18 16:57:00	AWS3	0.66	67	2.11	56	M	M	M	NA	NA	987.6	NA	NA		M	NA	NA	NA	NA
2017/03/18 16:58:00	AWS3	0.21	69	2.06	60	M	M	M	NA	NA	987.6	NA	NA		M	NA	NA	NA	NA
2017/03/18 16:59:00	AWS3	0.00	68	2.01	65	M	M	M	NA	NA	987.6	NA	NA		M	NA	NA	NA	NA
2017/03/18 17:00:00	AWS3	0.00	72	1.75	62	M	M	M	NA	NA	987.6	NA	NA		M	NA	NA	NA	NA
2017/03/18 17:01:00	AWS3	0.00	74	1.75	62	M	M	M	NA	NA	987.6	NA	NA		M	NA	NA	NA	NA
2017/03/18 17:02:00	AWS3	0.00	72	1.75	62	M	M	M	NA	NA	987.6	NA	NA		M	NA	NA	NA	NA
2017/03/18 17:03:00	AWS3	0.05	70	1.75	62	M	M	M	NA	NA	987.6	NA	NA		M	NA	NA	NA	NA
2017/03/18 17:04:00	AWS3	0.23	63	1.75	62	M	M	M	NA	NA	987.6	NA	NA		M	NA	NA	NA	NA
2017/03/18 17:05:00	AWS3	0.19	51	1.59	60	M	M	M	NA	NA	987.6	NA	NA		M	NA	NA	NA	NA
2017/03/18 17:06:00	AWS3	0.00	41	1.39	64	M	M	M	NA	NA	987.6	NA	NA		M	NA	NA	NA	NA
2017/03/18 17:07:00	AWS3	0.00	41	1.13	57	M	M	M	NA	NA	987.6	NA	NA		M	NA	NA	NA	NA
2017/03/18 17:08:00	AWS3	0.00	68	1.13	57	M	M	M	NA	NA	987.7	NA	NA		M	NA	NA	NA	NA
2017/03/18 17:09:00	AWS3	0.00	100	1.13	57	M	M	M	NA	NA	987.7	NA	NA		M	NA	NA	NA	NA
2017/03/18 17:10:00	AWS3	0.00	121	1.13	57	M	M	M	NA	NA	987.7	NA	NA		M	NA	NA	NA	NA
2017/03/18 17:11:00	AWS3	0.00	109	1.13	57	M	M	M	NA	NA	987.7	NA	NA		M	NA	NA	NA	NA
2017/03/18 17:12:00	AWS3	0.00	48	1.13	57	M	M	M	NA	NA	987.7	NA	NA		M	NA	NA	NA	NA
2017/03/18 17:13:00	AWS3	0.00	35	1.13	57	M	M	M	NA	NA	987.7	NA	NA		M	NA	NA	NA	NA
2017/03/18 17:14:00	AWS3	0.05	50	1.13	52	M	M	M	NA	NA	987.7	NA	NA		M	NA	NA	NA	NA
2017/03/18 17:15:00	AWS3	0.05	58	1.13	52	M	M	M	NA	NA	987.7	NA	NA		M	NA	NA	NA	NA
2017/03/18 17:16:00	AWS3	0.00	60	1.13	52	M	M	M	NA	NA	987.7	NA	NA		M	NA	NA	NA	NA
2017/03/18 17:17:00	AWS3	0.46	60	1.29	60	M	M	M	NA	NA	987.7	NA	NA		M	NA	NA	NA	NA
2017/03/18 17:18:00	AWS3	1.03	61	1.29	61	M	M	M	NA	NA	987.8	NA	NA		M	NA	NA	NA	NA
2017/03/18 17:19:00	AWS3	0.90	61	1.29	61	M	M	M	NA	NA	987.8	NA	NA		M	NA	NA	NA	NA
2017/03/18 17:20:00	AWS3	0.32	61	1.29	61	M	M	M	NA	NA	987.8	NA	NA		M	NA	NA	NA	NA
2017/03/18 17:21:00	AWS3	0.31	62	1.39	57	M	M	M	NA	NA	987.8	NA	NA		M	NA	NA	NA	NA
2017/03/18 17:22:00	AWS3	0.87	62	1.39	58	M	M	M	NA	NA	987.8	NA	NA		M	NA	NA	NA	NA
2017/03/18 17:23:00	AWS3	0.57	63	1.39	58	M	M	M	NA	NA	987.8	NA	NA		M	NA	NA	NA	NA
2017/03/18 17:24:00	AWS3	0.00	69	1.39	58	M	M	M	NA	NA	987.8	NA	NA		M	NA	NA	NA	NA
2017/03/18 17:25:00	AWS3	0.00	70	1.39	58	M	M	M	NA	NA	987.8	NA	NA		M	NA	NA	NA	NA
2017/03/18 17:26:00	AWS3	0.00	64	1.39	58	M	M	M	NA	NA	987.9	NA	NA		M	NA	NA	NA	NA
2017/03/18 17:27:00	AWS3	0.09	50	1.39	58	M	M	M	NA	NA	987.9	NA	NA		M	NA	NA	NA	NA
2017/03/18 17:28:00	AWS3	0.19	43	1.39	58	M	M	M	NA	NA	987.9	NA	NA		M	NA	NA	NA	NA
2017/03/18 17:29:00	AWS3	0.09	47	1.39	58	M	M	M	NA	NA	987.9	NA	NA		M	NA	NA	NA	NA
2017/03/18 17:30:00	AWS3	0.00	49	1.39	58	M	M	M	NA	NA	987.9	NA	NA		M	NA	NA	NA	NA
2017/03/18 17:31:00	AWS3	0.00	49	1.39	58	M	M	M	NA	NA	987.9	NA	NA		M	NA	NA	NA	NA
2017/03/18 17:32:00	AWS3	0.00	49	1.18	45	M	M	M	NA	NA	987.9	NA	NA		M	NA	NA	NA	NA
2017/03/18 17:33:00	AWS3	0.00	51	1.18	45	M	M	M	NA	NA	987.9	NA	NA		M	NA	NA	NA	NA
2017/03/18 17:34:00	AWS3	0.00	56	1.18	45	M	M	M	NA	NA	987.9	NA	NA		M	NA	NA	NA	NA
2017/03/18 17:35:00	AWS3	0.00	60	1.18	45	M	M	M	NA	NA	987.9	NA	NA		M	NA	NA	NA	NA
2017/03/18 17:36:00	AWS3	0.00	62	1.18	45	M	M	M	NA	NA	987.9	NA	NA		M	NA	NA	NA	NA
2017/03/18 17:37:00	AWS3	0.00	62	1.18	45	M	M	M	NA	NA	987.9	NA	NA		M	NA	NA	NA	NA
2017/03/18 17:38:00	AWS3	0.00	61	M	M	M	M	M	NA	NA	987.9	NA	NA		M	NA	NA	NA	NA
2017/03/18 17:39:00	AWS3	0.00	63	M	M	M	M	M	NA	NA	988.0	NA	NA		M	NA	NA	NA	NA
2017/03/18 17:40:00	AWS3	0.00	68	M	M	M	M	M	NA	NA	988.0	NA	NA		M	NA	NA	NA	NA
2017/03/18 17:41:00	AWS3	0.00	69	M	M	M	M	M	NA	NA	988.0	NA	NA		M	NA	NA	NA	NA
2017/03/18 17:42:00	AWS3	0.00	69	M	M	M	M	M	NA	NA	988.0	NA	NA		M	NA	NA	NA	NA
2017/03/18 17:43:00	AWS3	0.00	60	M	M	M	M	M	NA	NA	988.0	NA	NA		M	NA	NA	NA	NA
2017/03/18 17:44:00	AWS3	0.00	50	M	M	M	M	M	NA	NA	988.0	NA	NA		M	NA	NA	NA	NA
2017/03/18 17:45:00	AWS3	0.00	48	M	M	M	M	M	NA	NA	988.0	NA	NA		M	NA	NA	NA	NA
2017/03/18 17:46:00	AWS3	0.00	48	M	M	M	M	M	NA	NA	988.0	NA	NA		M	NA	NA	NA	NA
2017/03/18 17:47:00	AWS3	0.00	49	M	M	M	M	M	NA	NA	988.0	NA	NA		M	NA	NA	NA	NA
2017/03/18 17:48:00	AWS3	0.00	49	M	M	M	M	M	NA	NA	988.0	NA	NA		M	NA	NA	NA	NA
2017/03/18 17:49:00	AWS3	0.00	49	M	M	M	M	M	NA	NA	988.1	NA	NA		M	NA	NA	NA	NA
2017/03/18 17:50:00	AWS3	0.00	47	M	M	M	M	M	NA	NA	988.1	NA	NA		M	NA	NA	NA	NA
2017/03/18 17:51:00	AWS3	0.00	45	M	M	M	M	M	NA	NA	988.1	NA	NA		M	NA	NA	NA	NA
2017/03/18 17:52:00	AWS3	0.00	44	M	M	M	M	M	NA	NA	988.1	NA	NA		M	NA	NA	NA	NA
2017/03/18 17:53:00	AWS3	0.00	44	M	M	M	M	M	NA	NA	988.1	NA	NA		M	NA	NA	NA	NA
2017/03/18 17:54:00	AWS3	0.00	44	M	M	M	M	M	NA	NA	988.1	NA	NA		M	NA	NA	NA	NA
2017/03/18 17:55:00	AWS3	0.00	44	M	M	M	M	M	NA	NA	988.1	NA	NA		M	NA	NA	NA	NA
2017/03/18 17:56:00	AWS3	0.00	45	M	M	M	M	M	NA	NA	988.1	NA	NA		M	NA	NA	NA	NA
2017/03/18 17:57:00	AWS3	0.00	54	M	M	M	M	M	NA	NA	988.1	NA	NA		M	NA	NA	NA	NA
2017/03/18 17:58:00	AWS3	0.19	60	1.18	58	M	M	M	NA	NA	988.1	NA	NA		M	NA	NA	NA	NA
2017/03/18 17:59:00	AWS3	0.28	57	1.18	56	M	M	M	NA	NA	988.1	NA	NA		M	NA	NA	NA	NA
2017/03/18 18:00:00	AWS3	0.10	52	1.18	56	M	M	M	NA	NA	988.1	NA	NA		M	NA	NA	NA	NA
2017/03/18 18:01:00	AWS3	0.00	56	1.18	56	M	M	M	NA	NA	988.1	NA	NA		M	NA	NA	NA	NA
2017/03/18 18:02:00	AWS3	0.00	60	1.18	56	M	M	M	NA	NA	988.2	NA	NA		M	NA	NA	NA	NA
2017/03/18 18:03:00	AWS3	0.00	47	1.18	56	M	M	M	NA	NA	988.2	NA	NA		M	NA	NA	NA	NA
2017/03/18 18:04:00	AWS3	0.00	39	1.18	56	M	M	M	NA	NA	988.2	NA	NA		M	NA	NA	NA	NA
2017/03/18 18:05:00	AWS3	0.00	38	1.18	56	M	M	M	NA	NA	988.2	NA	NA		M	NA	NA	NA	NA
2017/03/18 18:06:00	AWS3	0.00	37	1.18	56	M	M	M	NA	NA	988.2	NA	NA		M	NA	NA	NA	NA
2017/03/18 18:07:00	AWS3	0.42	47	1.18	56	M	M	M	NA	NA	988.2	NA	NA		M	NA	NA	NA	NA
2017/03/18 18:08:00	AWS3	0.42	61	1.18	56	M	M	M	NA	NA	988.2	NA	NA		M	NA	NA	NA	NA
2017/03/18 18:09:00	AWS3	0.00	69	1.13	57	M	M	M	NA	NA	988.2	NA	NA		M	NA	NA	NA	NA
2017/03/18 18:10:00	AWS3	0.00	75	1.13	57	M	M	M	NA	NA	988.2	NA	NA		M	NA	NA	NA	NA
2017/03/18 18:11:00	AWS3	0.00	74	1.13	57	M	M	M	NA	NA	988.2	NA	NA		M	NA	NA	NA	NA
2017/03/18 18:12:00	AWS3	0.00	59	1.13	57	M	M	M	NA	NA	988.2	NA	NA		M	NA	NA	NA	NA
2017/03/18 18:13:00	AWS3	0.00	51	1.13	57	M	M	M	NA	NA	988.2	NA	NA		M	NA	NA	NA	NA
2017/03/18 18:14:00	AWS3	0.00	58	1.13	57	M	M	M	NA	NA	988.2	NA	NA		M	NA	NA	NA	NA
2017/03/18 18:15:00	AWS3	0.00	61	1.13	57	M	M	M	NA	NA	988.2	NA	NA		M	NA	NA	NA	NA
2017/03/18 18:16:00	AWS3	0.00	96	1.13	57	M	M	M	NA	NA	988.2	NA	NA		M	NA	NA	NA	NA
2017/03/18 18:17:00	AWS3	0.00	137	M	M	M	M	M	NA	NA	988.2	NA	NA		M	NA	NA	NA	NA
2017/03/18 18:18:00	AWS3	0.00	140	M	M	M	M	M	NA	NA	988.2	NA	NA		M	NA	NA	NA	NA
2017/03/18 18:19:00	AWS3	0.00	106	M	M	M	M	M	NA	NA	988.2	NA	NA		M	NA	NA	NA	NA
2017/03/18 18:20:00	AWS3	0.00	59	M	M	M	M	M	NA	NA	988.2	NA	NA		M	NA	NA	NA	NA
2017/03/18 18:21:00	AWS3	0.00	43	M	M	M	M	M	NA	NA	988.2	NA	NA		M	NA	NA	NA	NA
2017/03/18 18:22:00	AWS3	0.00	33	M	M	M	M	M	NA	NA	988.3	NA	NA		M	NA	NA	NA	NA
2017/03/18 18:23:00	AWS3	0.37	349	1.75	321	M	M	M	NA	NA	988.3	NA	NA		M	NA	NA	NA	NA
2017/03/18 18:24:00	AWS3	0.37	327	1.75	321	M	M	M	NA	NA	988.3	NA	NA		M	NA	NA	NA	NA
2017/03/18 18:25:00	AWS3	0.00	9	1.75	321	M	M	M	NA	NA	988.3	NA	NA		M	NA	NA	NA	NA
2017/03/18 18:26:00	AWS3	0.00	354	1.75	321	M	M	M	NA	NA	988.3	NA	NA		M	NA	NA	NA	NA
2017/03/18 18:27:00	AWS3	0.00	298	1.75	321	M	M	M	NA	NA	988.3	NA	NA		M	NA	NA	NA	NA
2017/03/18 18:28:00	AWS3	0.00	299	1.75	321	M	M	M	NA	NA	988.3	NA	NA		M	NA	NA	NA	NA
2017/03/18 18:29:00	AWS3	0.00	293	1.75	321	M	M	M	NA	NA	988.3	NA	NA		M	NA	NA	NA	NA
2017/03/18 18:30:00	AWS3	0.00	263	1.75	321	M	M	M	NA	NA	988.3	NA	NA		M	NA	NA	NA	NA
2017/03/18 18:31:00	AWS3	0.00	258	1.75	321	M	M	M	NA	NA	988.3	NA	NA		M	NA	NA	NA	NA
2017/03/18 18:32:00	AWS3	0.00	249	1.75	321	M	M	M	NA	NA	988.3	NA	NA		M	NA	NA	NA	NA
2017/03/18 18:33:00	AWS3	0.00	259	M	M	M	M	M	NA	NA	988.3	NA	NA		M	NA	NA	NA	NA
2017/03/18 18:34:00	AWS3	0.00	275	M	M	M	M	M	NA	NA	988.3	NA	NA		M	NA	NA	NA	NA
2017/03/18 18:35:00	AWS3	0.00	250	M	M	M	M	M	NA	NA	988.3	NA	NA		M	NA	NA	NA	NA
2017/03/18 18:36:00	AWS3	0.00	225	M	M	M	M	M	NA	NA	988.3	NA	NA		M	NA	NA	NA	NA
2017/03/18 18:37:00	AWS3	0.00	227	M	M	M	M	M	NA	NA	988.3	NA	NA		M	NA	NA	NA	NA
2017/03/18 18:38:00	AWS3	0.00	234	M	M	M	M	M	NA	NA	988.3	NA	NA		M	NA	NA	NA	NA
2017/03/18 18:39:00	AWS3	0.00	246	M	M	M	M	M	NA	NA	988.3	NA	NA		M	NA	NA	NA	NA
2017/03/18 18:40:00	AWS3	0.00	259	M	M	M	M	M	NA	NA	988.4	NA	NA		M	NA	NA	NA	NA
2017/03/18 18:41:00	AWS3	0.00	292	M	M	M	M	M	NA	NA	988.4	NA	NA		M	NA	NA	NA	NA
2017/03/18 18:42:00	AWS3	0.30	307	1.29	310	M	M	M	NA	NA	988.4	NA	NA		M	NA	NA	NA	NA
2017/03/18 18:43:00	AWS3	0.30	286	1.29	310	M	M	M	NA	NA	988.4	NA	NA		M	NA	NA	NA	NA
2017/03/18 18:44:00	AWS3	0.00	274	1.29	310	M	M	M	NA	NA	988.4	NA	NA		M	NA	NA	NA	NA
2017/03/18 18:45:00	AWS3	0.00	269	1.29	310	M	M	M	NA	NA	988.4	NA	NA		M	NA	NA	NA	NA
2017/03/18 18:46:00	AWS3	0.00	280	1.29	310	M	M	M	NA	NA	988.4	NA	NA		M	NA	NA	NA	NA
2017/03/18 18:47:00	AWS3	0.00	297	1.29	310	M	M	M	NA	NA	988.4	NA	NA		M	NA	NA	NA	NA
2017/03/18 18:48:00	AWS3	0.00	291	1.29	310	M	M	M	NA	NA	988.4	NA	NA		M	NA	NA	NA	NA
2017/03/18 18:49:00	AWS3	0.00	294	1.29	310	M	M	M	NA	NA	988.4	NA	NA		M	NA	NA	NA	NA
2017/03/18 18:50:00	AWS3	0.00	307	1.29	310	M	M	M	NA	NA	988.4	NA	NA		M	NA	NA	NA	NA
2017/03/18 18:51:00	AWS3	0.00	316	1.29	310	M	M	M	NA	NA	988.4	NA	NA		M	NA	NA	NA	NA
2017/03/18 18:52:00	AWS3	0.00	309	M	M	M	M	M	NA	NA	988.4	NA	NA		M	NA	NA	NA	NA
2017/03/18 18:53:00	AWS3	0.00	302	M	M	M	M	M	NA	NA	988.4	NA	NA		M	NA	NA	NA	NA
2017/03/18 18:54:00	AWS3	0.24	311	1.54	342	M	M	M	NA	NA	988.4	NA	NA		M	NA	NA	NA	NA
2017/03/18 18:55:00	AWS3	0.41	319	1.54	342	M	M	M	NA	NA	988.4	NA	NA		M	NA	NA	NA	NA
2017/03/18 18:56:00	AWS3	1.02	331	1.95	342	M	M	M	NA	NA	988.5	NA	NA		M	NA	NA	NA	NA
2017/03/18 18:57:00	AWS3	1.69	334	1.95	342	M	M	M	NA	NA	988.5	NA	NA		M	NA	NA	NA	NA
2017/03/18 18:58:00	AWS3	1.85	333	2.68	337	M	M	M	NA	NA	988.5	NA	NA		M	NA	NA	NA	NA
2017/03/18 18:59:00	AWS3	2.15	332	3.09	319	M	M	M	NA	NA	988.5	NA	NA		M	NA	NA	NA	NA
2017/03/18 19:00:00	AWS3	2.45	328	3.34	338	M	M	M	NA	NA	988.5	NA	NA		M	NA	NA	NA	NA
2017/03/18 19:01:00	AWS3	2.66	325	3.34	338	M	M	M	NA	NA	988.5	NA	NA		M	NA	NA	NA	NA
2017/03/18 19:02:00	AWS3	2.90	323	3.40	317	M	M	M	NA	NA	988.5	NA	NA		M	NA	NA	NA	NA
2017/03/18 19:03:00	AWS3	3.28	322	3.81	317	M	M	M	NA	NA	988.5	NA	NA		M	NA	NA	NA	NA
2017/03/18 19:04:00	AWS3	3.22	321	3.81	317	M	M	M	NA	NA	988.5	NA	NA		M	NA	NA	NA	NA
2017/03/18 19:05:00	AWS3	2.92	322	3.81	317	M	M	M	NA	NA	988.5	NA	NA		M	NA	NA	NA	NA
2017/03/18 19:06:00	AWS3	2.97	323	3.81	317	M	M	M	NA	NA	988.5	NA	NA		M	NA	NA	NA	NA
2017/03/18 19:07:00	AWS3	2.89	320	3.81	317	M	M	M	NA	NA	988.5	NA	NA		M	NA	NA	NA	NA
2017/03/18 19:08:00	AWS3	2.63	320	3.81	317	M	M	M	NA	NA	988.5	NA	NA		M	NA	NA	NA	NA
2017/03/18 19:09:00	AWS3	2.47	320	3.81	317	M	M	M	NA	NA	988.5	NA	NA		M	NA	NA	NA	NA
2017/03/18 19:10:00	AWS3	2.47	318	3.81	317	M	M	M	NA	NA	988.5	NA	NA		M	NA	NA	NA	NA
2017/03/18 19:11:00	AWS3	2.70	316	3.81	317	M	M	M	NA	NA	988.5	NA	NA		M	NA	NA	NA	NA
2017/03/18 19:12:00	AWS3	2.84	318	3.81	317	M	M	M	NA	NA	988.5	NA	NA		M	NA	NA	NA	NA
2017/03/18 19:13:00	AWS3	2.90	317	3.24	318	M	M	M	NA	NA	988.5	NA	NA		M	NA	NA	NA	NA
2017/03/18 19:14:00	AWS3	2.96	315	3.24	318	M	M	M	NA	NA	988.5	NA	NA		M	NA	NA	NA	NA
2017/03/18 19:15:00	AWS3	3.01	314	3.34	310	M	M	M	NA	NA	988.5	NA	NA		M	NA	NA	NA	NA
2017/03/18 19:16:00	AWS3	2.97	312	3.34	319	M	M	M	NA	NA	988.5	NA	NA		M	NA	NA	NA	NA
2017/03/18 19:17:00	AWS3	3.07	315	3.50	319	M	M	M	NA	NA	988.5	NA	NA		M	NA	NA	NA	NA
2017/03/18 19:18:00	AWS3	3.25	318	3.55	315	M	M	M	NA	NA	988.5	NA	NA		M	NA	NA	NA	NA
2017/03/18 19:19:00	AWS3	3.16	318	3.55	315	M	M	M	NA	NA	988.5	NA	NA		M	NA	NA	NA	NA
2017/03/18 19:20:00	AWS3	3.26	317	3.55	317	M	M	M	NA	NA	988.5	NA	NA		M	NA	NA	NA	NA
2017/03/18 19:21:00	AWS3	3.29	317	3.55	316	M	M	M	NA	NA	988.6	NA	NA		M	NA	NA	NA	NA
2017/03/18 19:22:00	AWS3	3.31	317	3.70	315	M	M	M	NA	NA	988.6	NA	NA		M	NA	NA	NA	NA
2017/03/18 19:23:00	AWS3	3.43	318	3.70	315	M	M	M	NA	NA	988.6	NA	NA		M	NA	NA	NA	NA
2017/03/18 19:24:00	AWS3	3.33	322	3.70	315	M	M	M	NA	NA	988.6	NA	NA		M	NA	NA	NA	NA
2017/03/18 19:25:00	AWS3	3.19	323	3.70	315	M	M	M	NA	NA	988.6	NA	NA		M	NA	NA	NA	NA
2017/03/18 19:26:00	AWS3	3.20	319	3.70	315	M	M	M	NA	NA	988.6	NA	NA		M	NA	NA	NA	NA
2017/03/18 19:27:00	AWS3	3.47	318	3.76	317	M	M	M	NA	NA	988.6	NA	NA		M	NA	NA	NA	NA
2017/03/18 19:28:00	AWS3	3.69	319	4.12	323	M	M	M	NA	NA	988.7	NA	NA		M	NA	NA	NA	NA
2017/03/18 19:29:00	AWS3	3.82	320	4.12	323	M	M	M	NA	NA	988.7	NA	NA		M	NA	NA	NA	NA
2017/03/18 19:30:00	AWS3	3.99	321	4.27	322	M	M	M	NA	NA	988.7	NA	NA		M	NA	NA	NA	NA
2017/03/18 19:31:00	AWS3	4.00	322	4.27	322	M	M	M	NA	NA	988.7	NA	NA		M	NA	NA	NA	NA
2017/03/18 19:32:00	AWS3	3.89	322	4.27	322	M	M	M	NA	NA	988.7	NA	NA		M	NA	NA	NA	NA
2017/03/18 19:33:00	AWS3	3.81	323	4.27	322	M	M	M	NA	NA	988.7	NA	NA		M	NA	NA	NA	NA
2017/03/18 19:34:00	AWS3	3.65	323	4.27	322	M	M	M	NA	NA	988.7	NA	NA		M	NA	NA	NA	NA
2017/03/18 19:35:00	AWS3	3.69	319	4.27	322	M	M	M	NA	NA	988.7	NA	NA		M	NA	NA	NA	NA
2017/03/18 19:36:00	AWS3	3.74	317	4.27	322	M	M	M	NA	NA	988.7	NA	NA		M	NA	NA	NA	NA
2017/03/18 19:37:00	AWS3	3.87	316	4.68	322	M	M	M	NA	NA	988.8	NA	NA		M	NA	NA	NA	NA
2017/03/18 19:38:00	AWS3	4.07	316	4.68	322	M	M	M	NA	NA	988.8	NA	NA		M	NA	NA	NA	NA
2017/03/18 19:39:00	AWS3	4.11	314	4.68	322	M	M	M	NA	NA	988.8	NA	NA		M	NA	NA	NA	NA
2017/03/18 19:40:00	AWS3	3.77	312	4.68	322	M	M	M	NA	NA	988.8	NA	NA		M	NA	NA	NA	NA
2017/03/18 19:41:00	AWS3	3.43	311	4.68	322	M	M	M	NA	NA	988.8	NA	NA		M	NA	NA	NA	NA
2017/03/18 19:42:00	AWS3	3.68	309	4.68	322	M	M	M	NA	NA	988.8	NA	NA		M	NA	NA	NA	NA
2017/03/18 19:43:00	AWS3	3.99	304	4.68	322	M	M	M	NA	NA	988.9	NA	NA		M	NA	NA	NA	NA
2017/03/18 19:44:00	AWS3	4.00	299	4.68	322	M	M	M	NA	NA	988.9	NA	NA		M	NA	NA	NA	NA
2017/03/18 19:45:00	AWS3	4.02	298	4.68	322	M	M	M	NA	NA	988.9	NA	NA		M	NA	NA	NA	NA
2017/03/18 19:46:00	AWS3	4.24	302	4.68	322	M	M	M	NA	NA	988.9	NA	NA		M	NA	NA	NA	NA
2017/03/18 19:47:00	AWS3	4.29	306	4.58	308	M	M	M	NA	NA	989.0	NA	NA		M	NA	NA	NA	NA
2017/03/18 19:48:00	AWS3	4.17	307	4.58	308	M	M	M	NA	NA	989.0	NA	NA		M	NA	NA	NA	NA
2017/03/18 19:49:00	AWS3	4.25	304	4.68	304	M	M	M	NA	NA	989.0	NA	NA		M	NA	NA	NA	NA
2017/03/18 19:50:00	AWS3	4.68	305	5.40	304	M	M	M	NA	NA	989.0	NA	NA		M	NA	NA	NA	NA
2017/03/18 19:51:00	AWS3	4.97	301	5.40	295	M	M	M	NA	NA	989.0	NA	NA		M	NA	NA	NA	NA
2017/03/18 19:52:00	AWS3	4.88	293	5.40	295	M	M	M	NA	NA	989.0	NA	NA		M	NA	NA	NA	NA
2017/03/18 19:53:00	AWS3	4.70	287	5.40	295	M	M	M	NA	NA	989.0	NA	NA		M	NA	NA	NA	NA
2017/03/18 19:54:00	AWS3	4.56	283	5.40	295	M	M	M	NA	NA	989.1	NA	NA		M	NA	NA	NA	NA
2017/03/18 19:55:00	AWS3	4.47	280	5.40	295	M	M	M	NA	NA	989.1	NA	NA		M	NA	NA	NA	NA
2017/03/18 19:56:00	AWS3	4.59	278	5.40	295	M	M	M	NA	NA	989.1	NA	NA		M	NA	NA	NA	NA
2017/03/18 19:57:00	AWS3	4.72	277	5.40	295	M	M	M	NA	NA	989.1	NA	NA		M	NA	NA	NA	NA
2017/03/18 19:58:00	AWS3	4.72	278	5.40	295	M	M	M	NA	NA	989.1	NA	NA		M	NA	NA	NA	NA
2017/03/18 19:59:00	AWS3	4.86	277	5.40	295	M	M	M	NA	NA	989.1	NA	NA		M	NA	NA	NA	NA
2017/03/18 20:00:00	AWS3	4.87	278	5.40	295	M	M	M	NA	NA	989.2	NA	NA		M	NA	NA	NA	NA
2017/03/18 20:01:00	AWS3	4.64	280	5.25	274	M	M	M	NA	NA	989.2	NA	NA		M	NA	NA	NA	NA
2017/03/18 20:02:00	AWS3	4.41	281	5.25	274	M	M	M	NA	NA	989.2	NA	NA		M	NA	NA	NA	NA
2017/03/18 20:03:00	AWS3	4.38	281	5.25	274	M	M	M	NA	NA	989.2	NA	NA		M	NA	NA	NA	NA
2017/03/18 20:04:00	AWS3	4.58	279	5.25	274	M	M	M	NA	NA	989.2	NA	NA		M	NA	NA	NA	NA
2017/03/18 20:05:00	AWS3	4.58	279	5.25	274	M	M	M	NA	NA	989.2	NA	NA		M	NA	NA	NA	NA
2017/03/18 20:06:00	AWS3	4.45	280	5.14	281	M	M	M	NA	NA	989.2	NA	NA		M	NA	NA	NA	NA
2017/03/18 20:07:00	AWS3	4.47	281	5.14	281	M	M	M	NA	NA	989.2	NA	NA		M	NA	NA	NA	NA
2017/03/18 20:08:00	AWS3	4.53	284	5.14	281	M	M	M	NA	NA	989.2	NA	NA		M	NA	NA	NA	NA
2017/03/18 20:09:00	AWS3	4.51	284	5.14	281	M	M	M	NA	NA	989.3	NA	NA		M	NA	NA	NA	NA
2017/03/18 20:10:00	AWS3	4.39	284	5.14	281	M	M	M	NA	NA	989.3	NA	NA		M	NA	NA	NA	NA
2017/03/18 20:11:00	AWS3	4.18	284	5.14	281	M	M	M	NA	NA	989.3	NA	NA		M	NA	NA	NA	NA
2017/03/18 20:12:00	AWS3	3.96	287	5.14	281	M	M	M	NA	NA	989.3	NA	NA		M	NA	NA	NA	NA
2017/03/18 20:13:00	AWS3	3.69	293	5.14	281	M	M	M	NA	NA	989.3	NA	NA		M	NA	NA	NA	NA
2017/03/18 20:14:00	AWS3	3.48	300	5.04	277	M	M	M	NA	NA	989.3	NA	NA		M	NA	NA	NA	NA
2017/03/18 20:15:00	AWS3	3.68	304	4.94	284	M	M	M	NA	NA	989.3	NA	NA		M	NA	NA	NA	NA
2017/03/18 20:16:00	AWS3	3.83	307	4.94	284	M	M	M	NA	NA	989.4	NA	NA		M	NA	NA	NA	NA
2017/03/18 20:17:00	AWS3	3.77	307	4.94	284	M	M	M	NA	NA	989.4	NA	NA		M	NA	NA	NA	NA
2017/03/18 20:18:00	AWS3	3.63	307	4.89	288	M	M	M	NA	NA	989.4	NA	NA		M	NA	NA	NA	NA
2017/03/18 20:19:00	AWS3	3.55	309	4.58	282	M	M	M	NA	NA	989.4	NA	NA		M	NA	NA	NA	NA
2017/03/18 20:20:00	AWS3	3.75	308	4.37	293	M	M	M	NA	NA	989.4	NA	NA		M	NA	NA	NA	NA
2017/03/18 20:21:00	AWS3	3.88	306	4.37	293	M	M	M	NA	NA	989.5	NA	NA		M	NA	NA	NA	NA
2017/03/18 20:22:00	AWS3	3.64	307	4.12	305	M	M	M	NA	NA	989.5	NA	NA		M	NA	NA	NA	NA
2017/03/18 20:23:00	AWS3	3.35	309	4.12	305	M	M	M	NA	NA	989.5	NA	NA		M	NA	NA	NA	NA
2017/03/18 20:24:00	AWS3	3.30	308	4.12	305	M	M	M	NA	NA	989.5	NA	NA		M	NA	NA	NA	NA
2017/03/18 20:25:00	AWS3	3.24	308	4.12	305	M	M	M	NA	NA	989.6	NA	NA		M	NA	NA	NA	NA
2017/03/18 20:26:00	AWS3	3.10	313	4.12	305	M	M	M	NA	NA	989.6	NA	NA		M	NA	NA	NA	NA
2017/03/18 20:27:00	AWS3	3.09	316	4.06	304	M	M	M	NA	NA	989.6	NA	NA		M	NA	NA	NA	NA
2017/03/18 20:28:00	AWS3	3.12	317	4.06	304	M	M	M	NA	NA	989.6	NA	NA		M	NA	NA	NA	NA
2017/03/18 20:29:00	AWS3	3.12	319	4.06	304	M	M	M	NA	NA	989.6	NA	NA		M	NA	NA	NA	NA
2017/03/18 20:30:00	AWS3	2.97	322	4.06	304	M	M	M	NA	NA	989.6	NA	NA		M	NA	NA	NA	NA
2017/03/18 20:31:00	AWS3	2.89	327	3.91	304	M	M	M	NA	NA	989.6	NA	NA		M	NA	NA	NA	NA
2017/03/18 20:32:00	AWS3	3.10	329	3.81	304	M	M	M	NA	NA	989.6	NA	NA		M	NA	NA	NA	NA
2017/03/18 20:33:00	AWS3	3.46	333	3.91	331	M	M	M	NA	NA	989.6	NA	NA		M	NA	NA	NA	NA
2017/03/18 20:34:00	AWS3	3.65	333	3.91	331	M	M	M	NA	NA	989.6	NA	NA		M	NA	NA	NA	NA
2017/03/18 20:35:00	AWS3	3.50	331	3.91	331	M	M	M	NA	NA	989.6	NA	NA		M	NA	NA	NA	NA
2017/03/18 20:36:00	AWS3	3.40	332	3.91	331	M	M	M	NA	NA	989.6	NA	NA		M	NA	NA	NA	NA
2017/03/18 20:37:00	AWS3	3.40	332	3.91	331	M	M	M	NA	NA	989.6	NA	NA		M	NA	NA	NA	NA
2017/03/18 20:38:00	AWS3	3.36	331	3.91	331	M	M	M	NA	NA	989.6	NA	NA		M	NA	NA	NA	NA
2017/03/18 20:39:00	AWS3	3.21	334	3.91	331	M	M	M	NA	NA	989.7	NA	NA		M	NA	NA	NA	NA
2017/03/18 20:40:00	AWS3	3.35	339	3.96	339	M	M	M	NA	NA	989.7	NA	NA		M	NA	NA	NA	NA
2017/03/18 20:41:00	AWS3	3.77	340	4.17	340	M	M	M	NA	NA	989.7	NA	NA		M	NA	NA	NA	NA
2017/03/18 20:42:00	AWS3	3.95	340	4.17	340	M	M	M	NA	NA	989.7	NA	NA		M	NA	NA	NA	NA
2017/03/18 20:43:00	AWS3	3.81	339	4.17	340	M	M	M	NA	NA	989.7	NA	NA		M	NA	NA	NA	NA
2017/03/18 20:44:00	AWS3	3.40	340	4.17	340	M	M	M	NA	NA	989.7	NA	NA		M	NA	NA	NA	NA
2017/03/18 20:45:00	AWS3	3.17	341	4.17	340	M	M	M	NA	NA	989.7	NA	NA		M	NA	NA	NA	NA
2017/03/18 20:46:00	AWS3	3.32	340	4.17	340	M	M	M	NA	NA	989.8	NA	NA		M	NA	NA	NA	NA
2017/03/18 20:47:00	AWS3	3.28	340	4.17	340	M	M	M	NA	NA	989.8	NA	NA		M	NA	NA	NA	NA
2017/03/18 20:48:00	AWS3	3.10	338	4.17	340	M	M	M	NA	NA	989.8	NA	NA		M	NA	NA	NA	NA
2017/03/18 20:49:00	AWS3	3.31	337	4.17	340	M	M	M	NA	NA	989.8	NA	NA		M	NA	NA	NA	NA
2017/03/18 20:50:00	AWS3	3.48	337	4.17	340	M	M	M	NA	NA	989.9	NA	NA		M	NA	NA	NA	NA
2017/03/18 20:51:00	AWS3	3.44	334	4.12	341	M	M	M	NA	NA	989.9	NA	NA		M	NA	NA	NA	NA
2017/03/18 20:52:00	AWS3	3.37	332	3.96	338	M	M	M	NA	NA	989.9	NA	NA		M	NA	NA	NA	NA
2017/03/18 20:53:00	AWS3	3.33	331	3.81	338	M	M	M	NA	NA	989.9	NA	NA		M	NA	NA	NA	NA
2017/03/18 20:54:00	AWS3	3.65	333	4.37	335	M	M	M	NA	NA	989.9	NA	NA		M	NA	NA	NA	NA
2017/03/18 20:55:00	AWS3	3.93	333	4.37	335	M	M	M	NA	NA	990.0	NA	NA		M	NA	NA	NA	NA
2017/03/18 20:56:00	AWS3	3.81	334	4.37	335	M	M	M	NA	NA	990.0	NA	NA		M	NA	NA	NA	NA
2017/03/18 20:57:00	AWS3	3.81	336	4.37	335	M	M	M	NA	NA	990.0	NA	NA		M	NA	NA	NA	NA
2017/03/18 20:58:00	AWS3	3.99	337	4.37	335	M	M	M	NA	NA	990.0	NA	NA		M	NA	NA	NA	NA
2017/03/18 20:59:00	AWS3	4.15	336	4.48	337	M	M	M	NA	NA	990.0	NA	NA		M	NA	NA	NA	NA
2017/03/18 21:00:00	AWS3	4.23	336	4.48	337	M	M	M	NA	NA	990.1	NA	NA		M	NA	NA	NA	NA
2017/03/18 21:01:00	AWS3	4.31	337	4.84	338	M	M	M	NA	NA	990.1	NA	NA		M	NA	NA	NA	NA
2017/03/18 21:02:00	AWS3	4.26	336	4.84	338	M	M	M	NA	NA	990.1	NA	NA		M	NA	NA	NA	NA
2017/03/18 21:03:00	AWS3	4.22	335	4.84	338	M	M	M	NA	NA	990.2	NA	NA		M	NA	NA	NA	NA
2017/03/18 21:04:00	AWS3	4.17	335	4.84	338	M	M	M	NA	NA	990.2	NA	NA		M	NA	NA	NA	NA
2017/03/18 21:05:00	AWS3	4.02	335	4.84	338	M	M	M	NA	NA	990.2	NA	NA		M	NA	NA	NA	NA
2017/03/18 21:06:00	AWS3	4.04	335	4.84	338	M	M	M	NA	NA	990.2	NA	NA		M	NA	NA	NA	NA
2017/03/18 21:07:00	AWS3	4.05	335	4.84	338	M	M	M	NA	NA	990.3	NA	NA		M	NA	NA	NA	NA
2017/03/18 21:08:00	AWS3	4.02	336	4.84	338	M	M	M	NA	NA	990.3	NA	NA		M	NA	NA	NA	NA
2017/03/18 21:09:00	AWS3	4.01	337	4.84	338	M	M	M	NA	NA	990.3	NA	NA		M	NA	NA	NA	NA
2017/03/18 21:10:00	AWS3	3.87	336	4.84	338	M	M	M	NA	NA	990.3	NA	NA		M	NA	NA	NA	NA
2017/03/18 21:11:00	AWS3	3.68	334	4.63	335	M	M	M	NA	NA	990.3	NA	NA		M	NA	NA	NA	NA
2017/03/18 21:12:00	AWS3	3.53	333	4.63	335	M	M	M	NA	NA	990.3	NA	NA		M	NA	NA	NA	NA
2017/03/18 21:13:00	AWS3	3.58	334	4.27	336	M	M	M	NA	NA	990.4	NA	NA		M	NA	NA	NA	NA
2017/03/18 21:14:00	AWS3	3.84	335	4.27	336	M	M	M	NA	NA	990.4	NA	NA		M	NA	NA	NA	NA
2017/03/18 21:15:00	AWS3	3.96	336	4.27	336	M	M	M	NA	NA	990.4	NA	NA		M	NA	NA	NA	NA
2017/03/18 21:16:00	AWS3	3.96	338	4.68	338	M	M	M	NA	NA	990.4	NA	NA		M	NA	NA	NA	NA
2017/03/18 21:17:00	AWS3	4.17	340	4.68	338	M	M	M	NA	NA	990.4	NA	NA		M	NA	NA	NA	NA
2017/03/18 21:18:00	AWS3	4.43	340	4.68	334	M	M	M	NA	NA	990.5	NA	NA		M	NA	NA	NA	NA
2017/03/18 21:19:00	AWS3	4.32	340	4.78	340	M	M	M	NA	NA	990.5	NA	NA		M	NA	NA	NA	NA
2017/03/18 21:20:00	AWS3	4.32	341	4.89	345	M	M	M	NA	NA	990.5	NA	NA		M	NA	NA	NA	NA
2017/03/18 21:21:00	AWS3	4.40	341	4.89	345	M	M	M	NA	NA	990.5	NA	NA		M	NA	NA	NA	NA
2017/03/18 21:22:00	AWS3	4.02	341	4.89	345	M	M	M	NA	NA	990.5	NA	NA		M	NA	NA	NA	NA
2017/03/18 21:23:00	AWS3	3.85	344	4.89	345	M	M	M	NA	NA	990.5	NA	NA		M	NA	NA	NA	NA
2017/03/18 21:24:00	AWS3	3.93	346	4.89	345	M	M	M	NA	NA	990.5	NA	NA		M	NA	NA	NA	NA
2017/03/18 21:25:00	AWS3	3.99	346	4.89	345	M	M	M	NA	NA	990.5	NA	NA		M	NA	NA	NA	NA
2017/03/18 21:26:00	AWS3	4.13	346	4.89	345	M	M	M	NA	NA	990.5	NA	NA		M	NA	NA	NA	NA
2017/03/18 21:27:00	AWS3	4.05	344	4.89	345	M	M	M	NA	NA	990.6	NA	NA		M	NA	NA	NA	NA
2017/03/18 21:28:00	AWS3	3.77	343	4.89	345	M	M	M	NA	NA	990.6	NA	NA		M	NA	NA	NA	NA
2017/03/18 21:29:00	AWS3	3.47	344	4.89	345	M	M	M	NA	NA	990.6	NA	NA		M	NA	NA	NA	NA
2017/03/18 21:30:00	AWS3	3.58	342	4.78	342	M	M	M	NA	NA	990.7	NA	NA		M	NA	NA	NA	NA
2017/03/18 21:31:00	AWS3	4.11	339	4.78	342	M	M	M	NA	NA	990.7	NA	NA		M	NA	NA	NA	NA
2017/03/18 21:32:00	AWS3	4.22	339	4.78	342	M	M	M	NA	NA	990.7	NA	NA		M	NA	NA	NA	NA
2017/03/18 21:33:00	AWS3	4.02	340	4.78	342	M	M	M	NA	NA	990.7	NA	NA		M	NA	NA	NA	NA
2017/03/18 21:34:00	AWS3	3.87	338	4.78	342	M	M	M	NA	NA	990.7	NA	NA		M	NA	NA	NA	NA
2017/03/18 21:35:00	AWS3	3.29	329	4.78	342	M	M	M	NA	NA	990.8	NA	NA		M	NA	NA	NA	NA
2017/03/18 21:36:00	AWS3	2.23	309	4.78	342	M	M	M	NA	NA	990.8	NA	NA		M	NA	NA	NA	NA
2017/03/18 21:37:00	AWS3	2.51	260	4.63	231	M	M	M	NA	NA	990.8	NA	NA		M	NA	NA	NA	NA
2017/03/18 21:38:00	AWS3	3.93	231	4.99	231	M	M	M	NA	NA	990.8	NA	NA		M	NA	NA	NA	NA
2017/03/18 21:39:00	AWS3	4.50	231	5.56	227	M	M	M	NA	NA	990.8	NA	NA		M	NA	NA	NA	NA
2017/03/18 21:40:00	AWS3	4.72	229	5.56	227	M	M	M	NA	NA	990.8	NA	NA		M	NA	NA	NA	NA
2017/03/18 21:41:00	AWS3	5.14	231	6.38	231	M	M	M	NA	NA	990.9	NA	NA		M	NA	NA	NA	NA
2017/03/18 21:42:00	AWS3	5.36	232	6.38	231	M	M	M	NA	NA	990.9	NA	NA		M	NA	NA	NA	NA
2017/03/18 21:43:00	AWS3	5.57	231	6.38	231	M	M	M	NA	NA	990.9	NA	NA		M	NA	NA	NA	NA
2017/03/18 21:44:00	AWS3	5.80	231	6.38	231	M	M	M	NA	NA	991.0	NA	NA		M	NA	NA	NA	NA
2017/03/18 21:45:00	AWS3	5.63	232	6.38	231	M	M	M	NA	NA	991.0	NA	NA		M	NA	NA	NA	NA
2017/03/18 21:46:00	AWS3	5.53	233	6.38	231	M	M	M	NA	NA	991.0	NA	NA		M	NA	NA	NA	NA
2017/03/18 21:47:00	AWS3	5.59	233	6.38	231	M	M	M	NA	NA	991.0	NA	NA		M	NA	NA	NA	NA
2017/03/18 21:48:00	AWS3	5.27	231	6.38	231	M	M	M	NA	NA	991.1	NA	NA		M	NA	NA	NA	NA
2017/03/18 21:49:00	AWS3	4.98	231	6.38	231	M	M	M	NA	NA	991.1	NA	NA		M	NA	NA	NA	NA
2017/03/18 21:50:00	AWS3	4.85	231	6.38	231	M	M	M	NA	NA	991.1	NA	NA		M	NA	NA	NA	NA
2017/03/18 21:51:00	AWS3	4.88	230	6.17	233	M	M	M	NA	NA	991.1	NA	NA		M	NA	NA	NA	NA
2017/03/18 21:52:00	AWS3	5.01	232	6.17	233	M	M	M	NA	NA	991.2	NA	NA		M	NA	NA	NA	NA
2017/03/18 21:53:00	AWS3	4.97	232	6.17	233	M	M	M	NA	NA	991.2	NA	NA		M	NA	NA	NA	NA
2017/03/18 21:54:00	AWS3	4.71	233	6.02	234	M	M	M	NA	NA	991.2	NA	NA		M	NA	NA	NA	NA
2017/03/18 21:55:00	AWS3	4.54	235	6.02	234	M	M	M	NA	NA	991.2	NA	NA		M	NA	NA	NA	NA
2017/03/18 21:56:00	AWS3	4.39	235	5.76	231	M	M	M	NA	NA	991.3	NA	NA		M	NA	NA	NA	NA
2017/03/18 21:57:00	AWS3	3.96	237	5.50	229	M	M	M	NA	NA	991.3	NA	NA		M	NA	NA	NA	NA
2017/03/18 21:58:00	AWS3	3.76	238	5.40	230	M	M	M	NA	NA	991.3	NA	NA		M	NA	NA	NA	NA
2017/03/18 21:59:00	AWS3	3.55	236	5.40	230	M	M	M	NA	NA	991.4	NA	NA		M	NA	NA	NA	NA
2017/03/18 22:00:00	AWS3	3.30	235	5.40	230	M	M	M	NA	NA	991.4	NA	NA		M	NA	NA	NA	NA
2017/03/18 22:01:00	AWS3	3.17	232	5.35	227	M	M	M	NA	NA	991.4	NA	NA		M	NA	NA	NA	NA
2017/03/18 22:02:00	AWS3	3.20	232	5.14	235	M	M	M	NA	NA	991.4	NA	NA		M	NA	NA	NA	NA
2017/03/18 22:03:00	AWS3	3.50	233	4.84	235	M	M	M	NA	NA	991.4	NA	NA		M	NA	NA	NA	NA
2017/03/18 22:04:00	AWS3	3.60	231	4.84	235	M	M	M	NA	NA	991.4	NA	NA		M	NA	NA	NA	NA
2017/03/18 22:05:00	AWS3	3.34	229	4.63	237	M	M	M	NA	NA	991.4	NA	NA		M	NA	NA	NA	NA
2017/03/18 22:06:00	AWS3	3.07	232	4.12	239	M	M	M	NA	NA	991.4	NA	NA		M	NA	NA	NA	NA
2017/03/18 22:07:00	AWS3	3.07	233	4.01	234	M	M	M	NA	NA	991.4	NA	NA		M	NA	NA	NA	NA
2017/03/18 22:08:00	AWS3	3.07	230	3.91	230	M	M	M	NA	NA	991.4	NA	NA		M	NA	NA	NA	NA
2017/03/18 22:09:00	AWS3	2.95	229	3.91	230	M	M	M	NA	NA	991.4	NA	NA		M	NA	NA	NA	NA
2017/03/18 22:10:00	AWS3	2.81	228	3.91	230	M	M	M	NA	NA	991.5	NA	NA		M	NA	NA	NA	NA
2017/03/18 22:11:00	AWS3	2.83	226	3.91	230	M	M	M	NA	NA	991.5	NA	NA		M	NA	NA	NA	NA
2017/03/18 22:12:00	AWS3	2.94	228	3.91	230	M	M	M	NA	NA	991.5	NA	NA		M	NA	NA	NA	NA
2017/03/18 22:13:00	AWS3	2.87	231	3.91	230	M	M	M	NA	NA	991.5	NA	NA		M	NA	NA	NA	NA
2017/03/18 22:14:00	AWS3	2.80	233	3.50	227	M	M	M	NA	NA	991.5	NA	NA		M	NA	NA	NA	NA
2017/03/18 22:15:00	AWS3	3.12	240	3.76	245	M	M	M	NA	NA	991.5	NA	NA		M	NA	NA	NA	NA
2017/03/18 22:16:00	AWS3	3.42	241	3.76	239	M	M	M	NA	NA	991.5	NA	NA		M	NA	NA	NA	NA
2017/03/18 22:17:00	AWS3	3.23	237	3.76	239	M	M	M	NA	NA	991.5	NA	NA		M	NA	NA	NA	NA
2017/03/18 22:18:00	AWS3	3.11	238	3.76	239	M	M	M	NA	NA	991.6	NA	NA		M	NA	NA	NA	NA
2017/03/18 22:19:00	AWS3	3.13	246	3.76	239	M	M	M	NA	NA	991.6	NA	NA		M	NA	NA	NA	NA
2017/03/18 22:20:00	AWS3	2.95	251	3.76	239	M	M	M	NA	NA	991.6	NA	NA		M	NA	NA	NA	NA
2017/03/18 22:21:00	AWS3	2.64	254	3.76	239	M	M	M	NA	NA	991.6	NA	NA		M	NA	NA	NA	NA
2017/03/18 22:22:00	AWS3	2.44	257	3.76	239	M	M	M	NA	NA	991.6	NA	NA		M	NA	NA	NA	NA
2017/03/18 22:23:00	AWS3	2.20	261	3.76	239	M	M	M	NA	NA	991.7	NA	NA		M	NA	NA	NA	NA
2017/03/18 22:24:00	AWS3	2.13	264	3.76	239	M	M	M	NA	NA	991.7	NA	NA		M	NA	NA	NA	NA
2017/03/18 22:25:00	AWS3	2.39	266	3.76	239	M	M	M	NA	NA	991.7	NA	NA		M	NA	NA	NA	NA
2017/03/18 22:26:00	AWS3	2.34	265	3.45	240	M	M	M	NA	NA	991.7	NA	NA		M	NA	NA	NA	NA
2017/03/18 22:27:00	AWS3	1.99	262	3.45	240	M	M	M	NA	NA	991.7	NA	NA		M	NA	NA	NA	NA
2017/03/18 22:28:00	AWS3	1.67	271	3.14	253	M	M	M	NA	NA	991.7	NA	NA		M	NA	NA	NA	NA
2017/03/18 22:29:00	AWS3	1.71	280	2.98	246	M	M	M	NA	NA	991.7	NA	NA		M	NA	NA	NA	NA
2017/03/18 22:30:00	AWS3	1.93	283	2.62	252	M	M	M	NA	NA	991.7	NA	NA		M	NA	NA	NA	NA
2017/03/18 22:31:00	AWS3	2.00	286	2.57	269	M	M	M	NA	NA	991.7	NA	NA		M	NA	NA	NA	NA
2017/03/18 22:32:00	AWS3	1.86	286	2.57	269	M	M	M	NA	NA	991.7	NA	NA		M	NA	NA	NA	NA
2017/03/18 22:33:00	AWS3	1.72	289	2.57	269	M	M	M	NA	NA	991.7	NA	NA		M	NA	NA	NA	NA
2017/03/18 22:34:00	AWS3	1.73	294	2.57	269	M	M	M	NA	NA	991.7	NA	NA		M	NA	NA	NA	NA
2017/03/18 22:35:00	AWS3	1.85	294	2.31	262	M	M	M	NA	NA	991.8	NA	NA		M	NA	NA	NA	NA
2017/03/18 22:36:00	AWS3	1.92	290	2.11	289	M	M	M	NA	NA	991.8	NA	NA		M	NA	NA	NA	NA
2017/03/18 22:37:00	AWS3	2.03	291	2.31	293	M	M	M	NA	NA	991.8	NA	NA		M	NA	NA	NA	NA
2017/03/18 22:38:00	AWS3	2.34	285	2.98	263	M	M	M	NA	NA	991.9	NA	NA		M	NA	NA	NA	NA
2017/03/18 22:39:00	AWS3	2.92	264	3.55	253	M	M	M	NA	NA	991.9	NA	NA		M	NA	NA	NA	NA
2017/03/18 22:40:00	AWS3	3.33	250	3.60	241	M	M	M	NA	NA	991.9	NA	NA		M	NA	NA	NA	NA
2017/03/18 22:41:00	AWS3	3.34	247	3.60	241	M	M	M	NA	NA	991.9	NA	NA		M	NA	NA	NA	NA
2017/03/18 22:42:00	AWS3	3.07	238	3.60	241	M	M	M	NA	NA	991.9	NA	NA		M	NA	NA	NA	NA
2017/03/18 22:43:00	AWS3	2.38	221	3.60	241	M	M	M	NA	NA	991.9	NA	NA		M	NA	NA	NA	NA
2017/03/18 22:44:00	AWS3	1.05	216	3.60	241	M	M	M	NA	NA	991.9	NA	NA		M	NA	NA	NA	NA
2017/03/18 22:45:00	AWS3	0.24	239	3.60	241	M	M	M	NA	NA	992.0	NA	NA		M	NA	NA	NA	NA
2017/03/18 22:46:00	AWS3	0.14	265	3.60	241	M	M	M	NA	NA	992.0	NA	NA		M	NA	NA	NA	NA
2017/03/18 22:47:00	AWS3	0.72	264	3.60	241	M	M	M	NA	NA	992.0	NA	NA		M	NA	NA	NA	NA
2017/03/18 22:48:00	AWS3	1.80	252	3.60	241	M	M	M	NA	NA	992.0	NA	NA		M	NA	NA	NA	NA
2017/03/18 22:49:00	AWS3	2.69	247	3.60	241	M	M	M	NA	NA	992.0	NA	NA		M	NA	NA	NA	NA
2017/03/18 22:50:00	AWS3	3.46	243	3.81	240	M	M	M	NA	NA	992.0	NA	NA		M	NA	NA	NA	NA
2017/03/18 22:51:00	AWS3	3.80	239	4.12	235	M	M	M	NA	NA	992.0	NA	NA		M	NA	NA	NA	NA
2017/03/18 22:52:00	AWS3	3.89	237	4.12	237	M	M	M	NA	NA	992.0	NA	NA		M	NA	NA	NA	NA
2017/03/18 22:53:00	AWS3	3.73	238	4.12	237	M	M	M	NA	NA	992.1	NA	NA		M	NA	NA	NA	NA
2017/03/18 22:54:00	AWS3	3.55	237	4.12	237	M	M	M	NA	NA	992.1	NA	NA		M	NA	NA	NA	NA
2017/03/18 22:55:00	AWS3	3.43	237	4.12	237	M	M	M	NA	NA	992.1	NA	NA		M	NA	NA	NA	NA
2017/03/18 22:56:00	AWS3	3.57	238	4.12	237	M	M	M	NA	NA	992.1	NA	NA		M	NA	NA	NA	NA
2017/03/18 22:57:00	AWS3	3.60	236	4.12	237	M	M	M	NA	NA	992.1	NA	NA		M	NA	NA	NA	NA
2017/03/18 22:58:00	AWS3	3.39	236	4.12	237	M	M	M	NA	NA	992.1	NA	NA		M	NA	NA	NA	NA
2017/03/18 22:59:00	AWS3	3.45	240	4.12	237	M	M	M	NA	NA	992.1	NA	NA		M	NA	NA	NA	NA
2017/03/18 23:00:00	AWS3	3.55	243	4.12	237	M	M	M	NA	NA	992.1	NA	NA		M	NA	NA	NA	NA
2017/03/18 23:01:00	AWS3	3.54	242	4.12	237	M	M	M	NA	NA	992.2	NA	NA		M	NA	NA	NA	NA
2017/03/18 23:02:00	AWS3	3.54	242	4.12	237	M	M	M	NA	NA	992.2	NA	NA		M	NA	NA	NA	NA
2017/03/18 23:03:00	AWS3	3.61	246	4.12	237	M	M	M	NA	NA	992.2	NA	NA		M	NA	NA	NA	NA
2017/03/18 23:04:00	AWS3	3.59	250	4.12	237	M	M	M	NA	NA	992.2	NA	NA		M	NA	NA	NA	NA
2017/03/18 23:05:00	AWS3	3.41	253	4.12	237	M	M	M	NA	NA	992.2	NA	NA		M	NA	NA	NA	NA
2017/03/18 23:06:00	AWS3	3.27	253	3.91	254	M	M	M	NA	NA	992.3	NA	NA		M	NA	NA	NA	NA
2017/03/18 23:07:00	AWS3	3.25	253	3.91	254	M	M	M	NA	NA	992.3	NA	NA		M	NA	NA	NA	NA
2017/03/18 23:08:00	AWS3	3.05	257	3.91	254	M	M	M	NA	NA	992.3	NA	NA		M	NA	NA	NA	NA
2017/03/18 23:09:00	AWS3	3.00	260	3.91	254	M	M	M	NA	NA	992.3	NA	NA		M	NA	NA	NA	NA
2017/03/18 23:10:00	AWS3	2.93	263	3.91	254	M	M	M	NA	NA	992.3	NA	NA		M	NA	NA	NA	NA
2017/03/18 23:11:00	AWS3	2.51	264	3.91	254	M	M	M	NA	NA	992.3	NA	NA		M	NA	NA	NA	NA
2017/03/18 23:12:00	AWS3	2.30	264	3.91	254	M	M	M	NA	NA	992.3	NA	NA		M	NA	NA	NA	NA
2017/03/18 23:13:00	AWS3	2.18	273	3.76	248	M	M	M	NA	NA	992.3	NA	NA		M	NA	NA	NA	NA
2017/03/18 23:14:00	AWS3	1.97	287	3.70	254	M	M	M	NA	NA	992.3	NA	NA		M	NA	NA	NA	NA
2017/03/18 23:15:00	AWS3	1.87	292	3.70	254	M	M	M	NA	NA	992.3	NA	NA		M	NA	NA	NA	NA
2017/03/18 23:16:00	AWS3	1.73	299	3.65	258	M	M	M	NA	NA	992.3	NA	NA		M	NA	NA	NA	NA
2017/03/18 23:17:00	AWS3	1.71	305	3.45	259	M	M	M	NA	NA	992.3	NA	NA		M	NA	NA	NA	NA
2017/03/18 23:18:00	AWS3	1.77	304	3.45	259	M	M	M	NA	NA	992.4	NA	NA		M	NA	NA	NA	NA
2017/03/18 23:19:00	AWS3	1.75	303	2.98	264	M	M	M	NA	NA	992.4	NA	NA		M	NA	NA	NA	NA
2017/03/18 23:20:00	AWS3	1.76	301	2.52	259	M	M	M	NA	NA	992.4	NA	NA		M	NA	NA	NA	NA
2017/03/18 23:21:00	AWS3	1.68	301	2.52	259	M	M	M	NA	NA	992.4	NA	NA		M	NA	NA	NA	NA
2017/03/18 23:22:00	AWS3	1.53	306	2.11	290	M	M	M	NA	NA	992.5	NA	NA		M	NA	NA	NA	NA
2017/03/18 23:23:00	AWS3	1.67	312	2.11	290	M	M	M	NA	NA	992.5	NA	NA		M	NA	NA	NA	NA
2017/03/18 23:24:00	AWS3	1.97	313	2.26	313	M	M	M	NA	NA	992.5	NA	NA		M	NA	NA	NA	NA
2017/03/18 23:25:00	AWS3	1.90	313	2.26	313	M	M	M	NA	NA	992.5	NA	NA		M	NA	NA	NA	NA
2017/03/18 23:26:00	AWS3	1.69	315	2.26	313	M	M	M	NA	NA	992.5	NA	NA		M	NA	NA	NA	NA
2017/03/18 23:27:00	AWS3	1.50	311	2.26	313	M	M	M	NA	NA	992.5	NA	NA		M	NA	NA	NA	NA
2017/03/18 23:28:00	AWS3	1.19	310	2.26	313	M	M	M	NA	NA	992.6	NA	NA		M	NA	NA	NA	NA
2017/03/18 23:29:00	AWS3	1.23	317	2.26	313	M	M	M	NA	NA	992.6	NA	NA		M	NA	NA	NA	NA
2017/03/18 23:30:00	AWS3	1.57	318	2.26	313	M	M	M	NA	NA	992.6	NA	NA		M	NA	NA	NA	NA
2017/03/18 23:31:00	AWS3	1.69	327	2.26	313	M	M	M	NA	NA	992.6	NA	NA		M	NA	NA	NA	NA
2017/03/18 23:32:00	AWS3	1.54	341	2.26	313	M	M	M	NA	NA	992.6	NA	NA		M	NA	NA	NA	NA
2017/03/18 23:33:00	AWS3	1.69	345	2.62	341	M	M	M	NA	NA	992.6	NA	NA		M	NA	NA	NA	NA
2017/03/18 23:34:00	AWS3	2.27	340	3.04	328	M	M	M	NA	NA	992.6	NA	NA		M	NA	NA	NA	NA
2017/03/18 23:35:00	AWS3	2.65	327	3.04	328	M	M	M	NA	NA	992.6	NA	NA		M	NA	NA	NA	NA
2017/03/18 23:36:00	AWS3	2.23	320	3.04	328	M	M	M	NA	NA	992.7	NA	NA		M	NA	NA	NA	NA
2017/03/18 23:37:00	AWS3	2.03	324	3.24	332	M	M	M	NA	NA	992.7	NA	NA		M	NA	NA	NA	NA
2017/03/18 23:38:00	AWS3	2.79	335	3.50	346	M	M	M	NA	NA	992.7	NA	NA		M	NA	NA	NA	NA
2017/03/18 23:39:00	AWS3	3.45	340	3.91	337	M	M	M	NA	NA	992.7	NA	NA		M	NA	NA	NA	NA
2017/03/18 23:40:00	AWS3	3.50	340	3.91	337	M	M	M	NA	NA	992.8	NA	NA		M	NA	NA	NA	NA
2017/03/18 23:41:00	AWS3	3.32	338	3.91	337	M	M	M	NA	NA	992.8	NA	NA		M	NA	NA	NA	NA
2017/03/18 23:42:00	AWS3	3.42	332	3.91	337	M	M	M	NA	NA	992.8	NA	NA		M	NA	NA	NA	NA
2017/03/18 23:43:00	AWS3	3.39	329	3.91	337	M	M	M	NA	NA	992.9	NA	NA		M	NA	NA	NA	NA
2017/03/18 23:44:00	AWS3	3.24	331	3.91	337	M	M	M	NA	NA	992.9	NA	NA		M	NA	NA	NA	NA
2017/03/18 23:45:00	AWS3	3.70	330	4.58	324	M	M	M	NA	NA	992.9	NA	NA		M	NA	NA	NA	NA
2017/03/18 23:46:00	AWS3	4.01	333	4.58	324	M	M	M	NA	NA	993.0	NA	NA		M	NA	NA	NA	NA
2017/03/18 23:47:00	AWS3	3.85	338	4.58	324	M	M	M	NA	NA	993.0	NA	NA		M	NA	NA	NA	NA
2017/03/18 23:48:00	AWS3	3.84	338	4.58	324	M	M	M	NA	NA	993.0	NA	NA		M	NA	NA	NA	NA
2017/03/18 23:49:00	AWS3	3.97	338	4.58	324	M	M	M	NA	NA	993.1	NA	NA		M	NA	NA	NA	NA
2017/03/18 23:50:00	AWS3	4.12	338	4.58	324	M	M	M	NA	NA	993.1	NA	NA		M	NA	NA	NA	NA
2017/03/18 23:51:00	AWS3	3.97	339	4.58	324	M	M	M	NA	NA	993.1	NA	NA		M	NA	NA	NA	NA
2017/03/18 23:52:00	AWS3	3.77	339	4.58	324	M	M	M	NA	NA	993.1	NA	NA		M	NA	NA	NA	NA
2017/03/18 23:53:00	AWS3	3.77	339	4.58	324	M	M	M	NA	NA	993.2	NA	NA		M	NA	NA	NA	NA
2017/03/18 23:54:00	AWS3	3.80	338	4.58	324	M	M	M	NA	NA	993.2	NA	NA		M	NA	NA	NA	NA
2017/03/18 23:55:00	AWS3	3.74	339	4.37	336	M	M	M	NA	NA	993.3	NA	NA		M	NA	NA	NA	NA
2017/03/18 23:56:00	AWS3	3.67	339	4.37	336	M	M	M	NA	NA	993.3	NA	NA		M	NA	NA	NA	NA
2017/03/18 23:57:00	AWS3	3.51	338	4.37	336	M	M	M	NA	NA	993.3	NA	NA		M	NA	NA	NA	NA
2017/03/18 23:58:00	AWS3	3.20	341	4.37	336	M	M	M	NA	NA	993.3	NA	NA		M	NA	NA	NA	NA
2017/03/18 23:59:00	AWS3	2.99	346	4.32	338	M	M	M	NA	NA	993.3	NA	NA		M	NA	NA	NA	NA